[[{"header":{"parameterUnit":"m.s-1","parameterCategory":1,"la1":30.6,"la2":28.766,"lo1":-90.7593,"lo2":-88.6598,"dy":0.0162,"dx":0.0183,"nx":116,"ny":114,"refTime":"2024-02-16T06:00:00:Z","depth":0,"parameterNumber":2,"parameterNumberName":"U-component_of_WINDS"},"data":[0.0,0.0,0.0,0.0,0.0,0.0,0.0,0.0,0.0,0.0,0.0,0.0,0.0,0.0,0.0,0.0,0.0,0.0,0.0,0.0,0.0,0.0,0.0,0.0,0.0,0.0,0.0,0.0,0.0,0.0,0.0,0.0,0.0,0.0,0.0,0.0,0.0,0.0,0.0,0.0,0.0,0.0,0.0,0.0,0.0,0.0,0.0,0.0,0.0,0.0,0.0,0.0,0.0,0.0,0.0,0.0,0.0,0.0,0.0,0.0,0.0,0.0,0.0,0.0,0.0,0.0,0.0,0.0,0.0,0.0,0.0,0.0,0.0,0.0,0.0,0.0,0.0,0.0,0.0,0.0,0.0,0.0,0.0,0.0,0.0,0.0,0.0,0.0,0.0,0.0,0.0,0.0,0.0,0.0,0.0,0.0,0.0,0.0,0.0,0.0,0.0,0.0,0.0,0.0,0.0,0.0,0.0,0.0,0.0,0.0,0.0,0.0,0.0,0.0,0.0,0.0,0.0,0.0,0.0,0.0,0.0,0.0,0.0,0.0,0.0,0.0,0.0,0.0,0.0,0.0,0.0,0.0,0.0,0.0,0.0,0.0,0.0,0.0,0.0,0.0,0.0,0.0,0.0,0.0,0.0,0.0,0.0,0.0,0.0,0.0,0.0,0.0,0.0,0.0,0.0,0.0,0.0,0.0,0.0,0.0,0.0,0.0,0.0,0.0,0.0,0.0,0.0,0.0,0.0,0.0,0.0,0.0,0.0,0.0,0.0,0.0,0.0,0.0,0.0,0.0,0.0,0.0,0.0,0.0,0.0,0.0,0.0,0.0,0.0,0.0,0.0,0.0,0.0,0.0,0.0,0.0,0.0,0.0,0.0,0.0,0.0,0.0,0.0,0.0,0.0,0.0,0.0,0.0,0.0,0.0,0.0,0.0,0.0,0.0,0.0,0.0,0.0,0.0,0.0,0.0,0.0,0.0,0.0,0.0,0.0,0.0,0.0,0.0,0.0,0.0,0.0,0.0,0.0,0.0,0.0,0.0,0.0,0.0,0.0,0.0,0.0,0.0,0.0,0.0,0.0,0.0,0.0,0.0,0.0,0.0,0.0,0.0,0.0,0.0,0.0,0.0,0.0,0.0,0.0,0.0,0.0,0.0,0.0,0.0,0.0,0.0,0.0,0.0,0.0,0.0,0.0,0.0,0.0,0.0,0.0,0.0,0.0,0.0,0.0,0.0,0.0,0.0,0.0,0.0,0.0,0.0,0.0,0.0,0.0,0.0,0.0,0.0,0.0,0.0,0.0,0.0,0.0,0.0,0.0,0.0,0.0,0.0,0.0,0.0,0.0,0.0,0.0,0.0,0.0,0.0,0.0,0.0,0.0,0.0,0.0,0.0,0.0,0.0,0.0,0.0,0.0,0.0,0.0,0.0,0.0,0.0,0.0,0.0,0.0,0.0,0.0,0.0,0.0,0.0,0.0,0.0,0.0,0.0,0.0,0.0,0.0,0.0,0.0,0.0,0.0,0.0,0.0,0.0,0.0,0.0,0.0,0.0,0.0,0.0,0.0,0.0,0.0,0.0,0.0,0.0,0.0,0.0,0.0,0.0,0.0,0.0,0.0,0.0,0.0,0.0,0.0,0.0,0.0,0.0,0.0,0.0,0.0,0.0,0.0,0.0,0.0,0.0,0.0,0.0,0.0,0.0,0.0,0.0,0.0,0.0,0.0,0.0,0.0,0.0,0.0,0.0,0.0,0.0,0.0,0.0,0.0,0.0,0.0,0.0,0.0,0.0,0.0,0.0,0.0,0.0,0.0,0.0,0.0,0.0,0.0,0.0,0.0,0.0,0.0,0.0,0.0,0.0,0.0,0.0,0.0,0.0,0.0,0.0,0.0,0.0,0.0,0.0,0.0,0.0,0.0,0.0,0.0,0.0,0.0,0.0,0.0,0.0,0.0,0.0,0.0,0.0,0.0,0.0,0.0,0.0,0.0,0.0,0.0,0.0,0.0,0.0,0.0,0.0,0.0,0.0,0.0,0.0,0.0,0.0,0.0,0.0,0.0,0.0,0.0,0.0,0.0,0.0,0.0,0.0,0.0,0.0,0.0,0.0,0.0,0.0,0.0,0.0,0.0,0.0,0.0,0.0,0.0,0.0,0.0,0.0,0.0,0.0,0.0,0.0,0.0,0.0,0.0,0.0,0.0,0.0,0.0,0.0,0.0,0.0,0.0,0.0,0.0,0.0,0.0,0.0,0.0,0.0,0.0,0.0,0.0,0.0,0.0,0.0,0.0,0.0,0.0,0.0,0.0,0.0,0.0,0.0,0.0,0.0,0.0,0.0,0.0,0.0,0.0,0.0,0.0,0.0,0.0,0.0,0.0,0.0,0.0,0.0,0.0,0.0,0.0,0.0,0.0,0.0,0.0,0.0,0.0,0.0,0.0,0.0,0.0,0.0,0.0,0.0,0.0,0.0,0.0,0.0,0.0,0.0,0.0,0.0,0.0,0.0,0.0,0.0,0.0,0.0,0.0,0.0,0.0,0.0,0.0,0.0,0.0,0.0,0.0,0.0,0.0,0.0,0.0,0.0,0.0,0.0,0.0,0.0,0.0,0.0,0.0,0.0,0.0,0.0,0.0,0.0,0.0,0.0,0.0,0.0,0.0,0.0,0.0,0.0,0.0,0.0,0.0,0.0,0.0,0.0,0.0,0.0,0.0,0.0,0.0,0.0,0.0,0.0,0.0,0.0,0.0,0.0,0.0,0.0,0.0,0.0,0.0,0.0,0.0,0.0,0.0,0.0,0.0,0.0,0.0,0.0,0.0,0.0,0.0,0.0,0.0,0.0,0.0,0.0,0.0,0.0,0.0,0.0,0.0,0.0,0.0,0.0,0.0,0.0,0.0,0.0,0.0,0.0,0.0,0.0,0.0,0.0,0.0,0.0,0.0,0.0,0.0,0.0,0.0,0.0,0.0,0.0,0.0,0.0,0.0,0.0,0.0,0.0,0.0,0.0,0.0,0.0,0.0,0.0,0.0,0.0,0.0,0.0,0.0,0.0,0.0,0.0,0.0,0.0,0.0,0.0,0.0,0.0,0.0,0.0,0.0,0.0,0.0,0.0,0.0,0.0,0.0,0.0,0.0,0.0,0.0,0.0,0.0,0.0,0.0,0.0,0.0,0.0,0.0,0.0,0.0,0.0,0.0,0.0,0.0,0.0,0.0,0.0,0.0,0.0,0.0,0.0,0.0,0.0,0.0,0.0,0.0,0.0,0.0,0.0,0.0,0.0,0.0,0.0,0.0,0.0,0.0,0.0,0.0,0.0,0.0,0.0,0.0,0.0,0.0,0.0,0.0,0.0,0.0,0.0,0.0,0.0,0.0,0.0,0.0,0.0,0.0,0.0,0.0,0.0,0.0,0.0,0.0,0.0,0.0,0.0,0.0,0.0,0.0,0.0,0.0,0.0,0.0,0.0,0.0,0.0,0.0,0.0,0.0,0.0,0.0,0.0,0.0,0.0,0.0,0.0,0.0,0.0,0.0,0.0,0.0,0.0,0.0,0.0,0.0,0.0,0.0,0.0,0.0,0.0,0.0,0.0,0.0,0.0,0.0,0.0,0.0,0.0,0.0,0.0,0.0,0.0,0.0,0.0,0.0,0.0,0.0,0.0,0.0,0.0,0.0,0.0,0.0,0.0,0.0,0.0,0.0,0.0,0.0,0.0,0.0,0.0,0.0,0.0,0.0,0.0,0.0,0.0,0.0,0.0,0.0,0.0,0.0,0.0,0.0,0.0,0.0,0.0,0.0,0.0,0.0,0.0,0.0,0.0,0.0,0.0,0.0,0.0,0.0,0.0,0.0,0.0,0.0,0.0,0.0,0.0,0.0,0.0,0.0,0.0,0.0,0.0,0.0,0.0,0.0,0.0,0.0,0.0,0.0,0.0,0.0,0.0,0.0,0.0,0.0,0.0,0.0,0.0,0.0,0.0,0.0,0.0,0.0,0.0,0.0,0.0,0.0,0.0,0.0,0.0,0.0,0.0,0.0,0.0,0.0,0.0,0.0,0.0,0.0,0.0,0.0,0.0,0.0,0.0,0.0,0.0,0.0,0.0,0.0,0.0,0.0,0.0,0.0,0.0,0.0,0.0,0.0,0.0,0.0,0.0,0.0,0.0,0.0,0.0,0.0,0.0,0.0,0.0,0.0,0.0,0.0,0.0,0.0,0.0,0.0,0.0,0.0,0.0,0.0,0.0,0.0,0.0,0.0,0.0,0.0,0.0,0.0,0.0,0.0,0.0,0.0,0.0,0.0,0.0,0.0,0.0,0.0,0.0,0.0,0.0,0.0,0.0,0.0,0.0,0.0,0.0,0.0,0.0,0.0,0.0,0.0,0.0,0.0,0.0,0.0,0.0,0.0,0.0,0.0,0.0,0.0,0.0,0.0,0.0,0.0,0.0,0.0,0.0,0.0,0.0,0.0,0.0,0.0,0.0,0.0,0.0,0.0,0.0,0.0,0.0,0.0,0.0,0.0,0.0,0.0,0.0,0.0,0.0,0.0,0.0,0.0,0.0,0.0,0.0,0.0,0.0,0.0,0.0,0.0,0.0,0.0,0.0,0.0,0.0,0.0,0.0,0.0,0.0,0.0,0.0,0.0,0.0,0.0,0.0,0.0,0.0,0.0,0.0,0.0,0.0,0.0,0.0,0.0,0.0,0.0,0.0,0.0,0.0,0.0,0.0,0.0,0.0,0.0,0.0,0.0,0.0,0.0,0.0,0.0,0.0,0.0,0.0,0.0,0.0,0.0,0.0,0.0,0.0,0.0,0.0,0.0,0.0,0.0,0.0,0.0,0.0,0.0,0.0,0.0,0.0,0.0,0.0,0.0,0.0,0.0,0.0,0.0,0.0,0.0,0.0,0.0,0.0,0.0,0.0,0.0,0.0,0.0,0.0,0.0,0.0,0.0,0.0,0.0,0.0,0.0,0.0,0.0,0.0,0.0,0.0,0.0,0.0,0.0,0.0,0.0,0.0,0.0,0.0,0.0,0.0,0.0,0.0,0.0,0.0,0.0,0.0,0.0,0.0,0.0,0.0,0.0,0.0,0.0,0.0,0.0,0.0,0.0,0.0,0.0,0.0,0.0,0.0,0.0,0.0,0.0,0.0,0.0,0.0,0.0,0.0,0.0,0.0,0.0,0.0,0.0,0.0,0.0,0.0,0.0,0.0,0.0,0.0,0.0,0.0,0.0,0.0,0.0,0.0,0.0,0.0,0.0,0.0,0.0,0.0,0.0,0.0,0.0,0.0,0.0,0.0,0.0,0.0,0.0,0.0,0.0,0.0,0.0,0.0,0.0,0.0,0.0,0.0,0.0,0.0,0.0,0.0,0.0,0.0,0.0,0.0,0.0,0.0,0.0,0.0,0.0,0.0,0.0,0.0,0.0,0.0,0.0,0.0,0.0,0.0,0.0,0.0,0.0,0.0,0.0,0.0,0.0,0.0,0.0,0.0,0.0,0.0,0.0,0.0,0.0,0.0,0.0,0.0,0.0,0.0,0.0,0.0,0.0,0.0,0.0,0.0,0.0,0.0,0.0,0.0,0.0,0.0,0.0,0.0,0.0,0.0,0.0,0.0,0.0,0.0,0.0,0.0,0.0,0.0,0.0,0.0,0.0,0.0,0.0,0.0,0.0,0.0,0.0,0.0,0.0,0.0,0.0,0.0,0.0,0.0,0.0,0.0,0.0,0.0,0.0,0.0,0.0,0.0,0.0,0.0,0.0,0.0,0.0,0.0,0.0,0.0,0.0,0.0,0.0,0.0,0.0,0.0,0.0,0.0,0.0,0.0,0.0,0.0,0.0,0.0,0.0,0.0,0.0,0.0,0.0,0.0,0.0,0.0,0.0,0.0,0.0,0.0,0.0,0.0,0.0,0.0,0.0,0.0,0.0,0.0,0.0,0.0,0.0,0.0,0.0,0.0,0.0,0.0,0.0,0.0,0.0,0.0,0.0,0.0,0.0,0.0,0.0,0.0,0.0,0.0,0.0,0.0,0.0,0.0,0.0,0.0,0.0,0.0,0.0,0.0,0.0,0.0,0.0,0.0,7.2322,6.9858,0.0,0.0,0.0,0.0,0.0,0.0,0.0,0.0,0.0,0.0,0.0,0.0,0.0,0.0,0.0,0.0,0.0,0.0,0.0,0.0,0.0,0.0,0.0,0.0,0.0,0.0,6.7657,6.8069,6.8497,6.843,6.8778,6.9625,6.9739,7.016,7.0971,7.1464,7.2081,7.2893,7.2047,7.1777,7.2166,0.0,0.0,0.0,0.0,0.0,0.0,0.0,0.0,0.0,0.0,0.0,0.0,0.0,0.0,0.0,0.0,0.0,0.0,0.0,0.0,0.0,0.0,0.0,0.0,0.0,0.0,0.0,0.0,0.0,0.0,0.0,0.0,0.0,0.0,0.0,0.0,0.0,0.0,0.0,0.0,0.0,0.0,0.0,0.0,0.0,0.0,0.0,0.0,0.0,0.0,0.0,0.0,0.0,0.0,0.0,0.0,0.0,0.0,0.0,0.0,0.0,0.0,0.0,0.0,0.0,0.0,0.0,0.0,0.0,0.0,0.0,0.0,0.0,7.694,7.4324,0.0,0.0,0.0,0.0,0.0,0.0,0.0,0.0,0.0,0.0,0.0,0.0,0.0,0.0,0.0,0.0,0.0,0.0,0.0,0.0,0.0,0.0,0.0,0.0,6.7662,6.8498,6.8835,6.8875,6.8708,6.8964,6.9008,6.8854,6.9716,7.0524,7.1207,7.1955,7.2879,7.3817,7.3406,7.375,7.4623,0.0,0.0,0.0,0.0,0.0,0.0,0.0,0.0,0.0,0.0,0.0,0.0,0.0,0.0,0.0,0.0,0.0,0.0,0.0,0.0,0.0,0.0,0.0,0.0,0.0,0.0,0.0,0.0,0.0,0.0,0.0,0.0,0.0,0.0,0.0,0.0,0.0,0.0,0.0,0.0,0.0,0.0,0.0,0.0,0.0,0.0,0.0,0.0,0.0,0.0,0.0,0.0,0.0,0.0,0.0,0.0,0.0,0.0,0.0,0.0,0.0,0.0,0.0,0.0,0.0,0.0,0.0,8.4018,8.5634,8.763,8.6784,8.6861,8.7401,8.3176,8.0639,7.9175,7.6244,0.0,0.0,0.0,0.0,0.0,0.0,0.0,0.0,0.0,0.0,0.0,0.0,0.0,0.0,0.0,0.0,0.0,0.0,0.0,0.0,0.0,6.7248,6.7644,6.8436,6.9812,7.0321,6.9567,7.0867,7.1323,7.0629,7.1459,7.2035,7.2124,7.2286,7.3053,7.4653,7.5995,7.7422,7.8933,0.0,0.0,0.0,0.0,0.0,0.0,0.0,0.0,0.0,0.0,0.0,0.0,0.0,0.0,0.0,0.0,0.0,0.0,0.0,0.0,0.0,0.0,0.0,0.0,0.0,0.0,0.0,0.0,0.0,0.0,0.0,0.0,0.0,0.0,0.0,0.0,0.0,0.0,0.0,0.0,0.0,0.0,0.0,0.0,0.0,0.0,0.0,7.2479,7.3397,0.0,0.0,0.0,0.0,0.0,0.0,0.0,0.0,0.0,0.0,0.0,0.0,0.0,8.1246,8.3858,8.763,8.9631,8.9938,9.2253,9.3489,9.3794,9.2945,9.3022,9.3794,9.3104,0.0,8.2868,8.1633,0.0,0.0,0.0,0.0,0.0,0.0,0.0,0.0,0.0,0.0,0.0,0.0,0.0,0.0,0.0,0.0,0.0,0.0,0.0,0.0,0.0,6.9396,7.1013,7.1294,7.4132,7.5201,7.3324,7.3939,7.3554,7.1708,7.2048,7.2467,7.3047,7.3048,7.4124,7.6274,7.9819,8.1937,8.2704,0.0,0.0,0.0,0.0,0.0,0.0,0.0,0.0,0.0,0.0,0.0,0.0,0.0,0.0,0.0,0.0,0.0,0.0,0.0,0.0,0.0,0.0,0.0,0.0,0.0,0.0,0.0,0.0,0.0,0.0,0.0,0.0,0.0,0.0,0.0,0.0,0.0,0.0,0.0,0.0,0.0,0.0,0.0,0.0,0.0,0.0,7.2322,7.4859,7.2782,7.3708,7.3168,0.0,0.0,0.0,0.0,0.0,0.0,0.0,0.0,0.0,8.4786,8.563,8.7705,9.1244,9.4557,9.6403,9.6937,9.9483,10.087,10.1404,10.1017,10.0791,10.0719,10.0719,9.7718,9.2486,8.7329,8.3324,8.0089,0.0,0.0,0.0,0.0,7.5482,7.5562,0.0,0.0,0.0,0.0,0.0,0.0,0.0,0.0,0.0,0.0,0.0,0.0,6.8733,7.1925,7.4293,7.5018,7.8394,7.9475,7.709,7.6553,7.5401,7.3248,7.2939,7.3198,7.3867,7.4944,7.6867,7.9635,8.4269,8.6705,0.0,0.0,0.0,0.0,0.0,0.0,0.0,0.0,0.0,0.0,0.0,0.0,0.0,0.0,0.0,0.0,0.0,0.0,0.0,0.0,0.0,0.0,0.0,0.0,0.0,0.0,0.0,0.0,0.0,0.0,0.0,0.0,0.0,0.0,0.0,0.0,0.0,0.0,0.0,0.0,0.0,0.0,0.0,0.0,0.0,0.0,0.0,7.5243,7.7786,7.3937,7.748,7.7863,0.0,0.0,0.0,0.0,0.0,0.0,8.2627,8.3708,8.6861,9.2323,9.2704,9.4858,9.9171,10.087,10.2174,10.3323,10.5023,10.6174,10.7015,10.6782,10.648,10.6023,10.5638,10.4023,10.1101,9.3251,8.8476,8.578,8.1789,7.9327,7.8171,8.0098,8.0404,8.0481,0.0,0.0,0.0,0.0,0.0,0.0,0.0,0.0,0.0,0.0,0.0,6.7895,7.274,7.4197,7.6013,7.9248,8.1093,8.1477,7.9704,7.8092,7.6788,7.5861,7.5013,7.4626,7.463,7.8634,8.233,8.5634,0.0,0.0,0.0,0.0,0.0,0.0,0.0,0.0,0.0,0.0,0.0,0.0,0.0,0.0,0.0,0.0,0.0,0.0,0.0,0.0,0.0,0.0,0.0,0.0,0.0,0.0,0.0,0.0,0.0,0.0,0.0,0.0,0.0,0.0,0.0,0.0,0.0,0.0,0.0,0.0,0.0,0.0,0.0,0.0,0.0,0.0,0.0,0.0,0.0,0.0,0.0,8.0939,8.502,0.0,0.0,0.0,0.0,8.171,8.417,8.709,9.0475,9.2172,9.51,9.9411,10.0325,10.2784,10.7098,10.64,10.6864,10.8482,10.7867,10.8021,10.8711,10.8021,10.8021,10.8636,10.7015,10.6167,10.5631,9.9478,9.4093,8.9549,8.856,8.61,8.3484,8.6021,8.6942,8.7173,0.0,0.0,0.0,0.0,0.0,0.0,0.0,0.0,6.6246,6.7118,6.8928,7.1631,7.5589,8.0198,8.3859,8.6091,8.7863,8.7942,8.5634,8.14,7.8783,7.8475,7.6011,7.6011,7.8783,8.2399,8.5707,8.8549,0.0,0.0,0.0,0.0,0.0,0.0,0.0,0.0,0.0,0.0,0.0,0.0,0.0,0.0,0.0,0.0,0.0,0.0,0.0,0.0,0.0,0.0,0.0,0.0,0.0,0.0,0.0,0.0,0.0,0.0,0.0,0.0,0.0,0.0,0.0,0.0,0.0,0.0,0.0,0.0,0.0,0.0,0.0,0.0,0.0,0.0,0.0,0.0,0.0,0.0,0.0,8.6936,9.0327,0.0,8.6019,8.6786,8.7707,8.8015,9.1941,9.5249,9.7553,9.9327,10.2025,10.5638,10.6018,10.748,11.0093,11.0401,11.0788,11.1324,11.1634,11.2175,11.3027,11.2099,11.1634,11.1327,11.017,10.8785,10.7015,10.4323,10.0635,9.6252,9.3717,9.164,9.0253,9.1717,9.2255,9.2486,0.0,0.0,0.0,0.0,0.0,0.0,0.0,0.0,6.6048,6.7457,7.04,7.4321,7.9438,8.4947,8.9449,9.2246,9.3247,9.271,9.0176,8.4403,8.086,8.0242,7.7781,7.8396,8.2706,8.6091,8.9475,0.0,0.0,0.0,0.0,0.0,0.0,0.0,0.0,0.0,0.0,0.0,0.0,0.0,0.0,0.0,7.5934,0.0,0.0,0.0,0.0,0.0,0.0,0.0,0.0,0.0,0.0,0.0,0.0,0.0,0.0,0.0,0.0,0.0,0.0,0.0,0.0,0.0,0.0,0.0,0.0,0.0,0.0,0.0,0.0,0.0,0.0,0.0,0.0,0.0,0.0,8.7094,9.209,9.0936,9.5557,9.71,9.2561,9.4174,9.5708,9.6322,9.9712,10.2481,10.4171,10.5867,10.8021,11.0483,11.0868,11.1868,11.3632,11.3868,11.4096,11.4401,11.5019,11.5561,11.6099,11.5481,11.4791,11.3868,11.2788,11.1173,10.9329,10.7785,10.5405,10.2332,9.8562,9.6408,9.5485,9.6102,9.6256,9.6331,0.0,0.0,0.0,0.0,0.0,0.0,0.0,6.357,6.5676,6.8352,7.092,7.573,8.4208,8.8213,9.2242,9.7247,9.6863,9.5247,9.2789,8.6944,8.2789,8.1093,8.0398,8.2012,8.6245,8.9628,9.3862,0.0,0.0,0.0,0.0,0.0,0.0,0.0,0.0,0.0,0.0,0.0,0.0,0.0,0.0,0.0,8.171,0.0,0.0,0.0,0.0,0.0,0.0,0.0,0.0,0.0,0.0,0.0,0.0,0.0,0.0,0.0,0.0,0.0,0.0,0.0,0.0,0.0,0.0,0.0,0.0,0.0,0.0,0.0,0.0,0.0,0.0,0.0,0.0,0.0,8.2787,8.9936,9.4704,9.3251,10.1017,10.4633,9.9637,10.2176,10.4789,10.6397,10.7403,10.8636,11.0337,11.1865,11.317,11.4099,11.5028,11.6179,11.7786,11.7025,11.7025,11.7786,11.7786,11.7866,11.7866,11.7786,11.733,11.6413,11.4794,11.3481,11.2481,11.0021,10.8482,10.7326,10.3012,10.0404,9.8945,9.8868,9.8868,9.8714,0.0,0.0,0.0,0.0,0.0,0.0,0.0,6.3967,6.6097,6.9839,7.4705,8.0633,8.7827,9.3834,9.8637,10.1868,9.9096,9.6632,9.5324,8.6786,8.1323,8.0244,8.2858,8.663,9.1481,9.4326,9.7632,10.1635,0.0,0.0,0.0,0.0,0.0,0.0,0.0,0.0,0.0,0.0,0.0,0.0,0.0,0.0,8.2868,0.0,0.0,0.0,0.0,0.0,0.0,0.0,0.0,0.0,0.0,0.0,0.0,0.0,0.0,0.0,0.0,0.0,0.0,0.0,0.0,0.0,0.0,0.0,0.0,0.0,0.0,0.0,0.0,0.0,0.0,0.0,8.2866,8.8023,9.0253,9.6326,10.1709,10.4869,10.7564,10.887,10.8095,10.8865,10.9631,11.0093,11.2019,11.3412,11.3874,11.5484,11.6478,11.6709,11.7638,11.8333,11.8712,11.8484,11.8484,11.8712,11.8712,11.902,11.9564,11.8405,11.7712,11.7328,11.5717,11.4102,11.2632,11.1324,10.9634,10.7403,10.4407,10.2868,10.233,10.1096,10.063,10.0479,0.0,0.0,0.0,0.0,0.0,0.0,0.0,6.3117,6.5308,6.9883,7.5684,8.2225,8.9705,9.5894,10.0563,10.3097,9.9788,9.6555,9.4321,8.6632,8.2247,0.0,0.0,9.1018,9.5713,9.8327,10.1325,10.471,10.4866,10.5095,10.5484,10.5636,10.5177,10.441,10.3869,0.0,0.0,0.0,0.0,0.0,9.5005,9.1637,8.8481,8.4091,8.2166,8.1475,7.8706,7.8556,7.9096,7.5943,0.0,0.0,0.0,0.0,0.0,0.0,0.0,0.0,0.0,0.0,0.0,0.0,0.0,0.0,0.0,0.0,0.0,0.0,0.0,0.0,0.0,0.0,0.0,0.0,8.8252,9.433,9.8481,10.2325,10.6172,11.0332,11.1719,11.2794,11.4017,11.3788,11.3868,11.4635,11.5712,11.6718,11.7413,11.8718,11.9562,11.9864,12.079,12.1174,12.1174,12.1174,12.1174,12.1174,12.1174,12.1331,12.1408,12.0405,11.9405,11.8171,11.6487,11.4794,11.3173,11.2016,11.0401,10.8485,0.0,0.0,0.0,0.0,10.1786,10.2174,0.0,0.0,0.0,0.0,0.0,0.0,0.0,6.1794,6.418,6.9319,7.5178,8.2009,9.0173,9.5557,9.956,10.2171,9.9171,9.5326,9.1169,8.6713,0.0,8.6861,9.1171,9.5405,9.956,10.2176,10.502,10.8095,10.7326,10.7169,10.8021,10.7172,10.6405,10.5487,10.5487,10.4967,10.3864,10.318,10.2309,10.1298,10.0472,9.8606,9.5632,8.9323,8.832,8.9626,8.548,8.3482,8.2477,8.0252,0.0,0.0,0.0,0.0,0.0,0.0,0.0,0.0,0.0,0.0,0.0,0.0,0.0,0.0,0.0,0.0,0.0,0.0,0.0,0.0,0.0,0.0,0.0,0.0,9.4482,10.1096,10.6092,10.7864,10.948,11.1785,11.4176,11.633,11.7789,11.7333,11.7567,11.9334,11.8789,11.9097,12.0795,12.1722,0.0,0.0,0.0,12.4406,12.4098,12.4175,12.4175,12.4098,12.4021,12.3636,12.2864,12.2713,12.1328,11.9023,11.7413,11.5717,11.4022,11.2401,11.1175,11.0027,10.748,10.5015,10.2712,10.2015,10.2633,10.3563,0.0,0.0,0.0,0.0,0.0,0.0,0.0,6.2616,6.5246,7.0964,7.6928,8.3091,8.9479,9.4091,9.8093,10.1322,9.7173,9.2943,8.9406,0.0,8.9101,9.2099,9.6939,10.1322,10.4861,10.7405,10.9406,11.0788,10.9867,10.9565,10.9716,10.9485,10.9024,10.8177,10.8177,10.7269,10.5694,10.4788,10.3892,10.2931,10.1324,9.893,9.6014,9.3249,9.2095,9.1556,8.7942,8.9556,9.2554,8.7404,8.6863,8.7322,8.2018,0.0,0.0,0.0,0.0,0.0,0.0,0.0,0.0,0.0,0.0,0.0,0.0,0.0,0.0,0.0,0.0,0.0,0.0,0.0,0.0,9.1558,9.8331,10.4407,10.8793,11.2486,11.5028,11.5489,11.7179,11.8484,11.8789,11.9334,12.0026,12.1029,12.1636,12.2636,12.4332,12.5181,12.5492,12.487,12.6406,12.6172,12.4098,12.4793,12.4793,12.4098,12.3402,0.0,12.2867,12.1405,12.0177,11.9023,11.802,11.6638,11.5028,11.3868,11.2175,11.0027,10.8175,10.5867,10.3715,10.4179,10.4179,10.3715,0.0,0.0,0.0,0.0,0.0,0.0,0.0,6.1814,6.405,6.9555,7.4735,8.0206,8.6098,8.9787,9.2556,9.417,9.0866,8.8485,0.0,9.0022,9.3253,9.7944,10.2633,10.648,10.9477,11.1717,11.3027,11.3407,11.3027,11.2486,11.2101,11.1717,11.1021,11.017,10.9729,10.8717,10.7296,10.601,10.5096,10.4503,10.2884,10.1095,9.9088,9.6941,9.5974,9.5405,9.3713,9.448,9.5785,9.2328,9.1481,9.1171,8.7322,8.3476,7.9706,0.0,0.0,0.0,0.0,0.0,0.0,0.0,0.0,0.0,0.0,0.0,0.0,0.0,0.0,7.909,8.2868,0.0,9.24,9.7944,10.3789,10.8867,11.2335,11.6025,11.8336,11.7795,11.8869,12.002,12.0867,12.1713,12.2562,12.3411,12.4332,12.5332,12.6637,12.7101,12.7332,12.7332,12.8099,12.7865,12.6714,12.6714,12.6403,12.6018,12.5178,12.4562,12.4101,12.2793,12.1485,12.0334,11.9023,11.7712,11.6487,11.5179,11.3409,11.1329,11.0096,10.8018,10.5715,10.4792,10.4792,10.502,0.0,0.0,0.0,0.0,0.0,0.0,0.0,6.0939,6.2784,6.7547,7.1547,7.609,8.1791,8.4328,8.5713,8.5942,8.4634,8.5097,0.0,9.2251,9.7329,10.3325,10.779,11.1175,11.3404,11.5099,11.6025,11.6025,11.5874,11.5333,11.4486,11.3635,11.2711,11.1703,11.0899,10.9937,10.8669,10.7328,10.6401,10.5925,10.4596,10.3628,10.259,10.0207,9.9292,9.925,9.8714,9.7557,9.617,9.5485,9.4253,9.2712,9.1323,8.8782,8.5476,8.102,7.9785,0.0,0.0,0.0,0.0,0.0,0.0,0.0,0.0,0.0,7.6242,7.9171,8.1787,8.4942,8.9562,9.4328,9.9171,10.433,10.9021,11.3019,11.5874,11.8718,12.0411,12.01,12.0639,12.1719,12.3172,12.4021,12.479,12.6024,12.6797,12.772,12.8788,12.8865,12.9176,12.9871,13.0099,13.0025,12.9487,12.8865,12.8403,12.7862,12.7175,12.6489,12.5566,12.4793,12.3485,12.2029,12.01,11.8712,11.7709,11.633,11.4794,11.3096,11.2324,11.0631,10.8406,10.579,10.571,10.6631,0.0,0.0,0.0,0.0,0.0,0.0,0.0,0.0,6.3249,6.6787,6.963,7.3016,7.7482,7.8867,7.9788,8.055,8.3166,0.0,9.0475,9.5482,10.0868,10.6867,11.187,11.5105,11.6108,11.7795,11.8718,11.8718,11.7866,11.71,11.6182,11.5412,11.4099,11.2629,11.2285,11.1327,10.9589,10.9315,10.8276,10.6707,10.5811,10.5115,10.4309,10.2471,10.1528,10.0707,9.8478,9.7093,9.6322,9.617,9.5482,9.4717,9.4487,9.3176,9.0635,8.563,0.0,7.8627,7.3324,7.1708,7.2091,7.463,7.4934,7.6317,0.0,8.3401,8.3634,8.7626,9.0554,9.3174,9.6019,9.9481,10.3638,10.8719,11.187,11.5099,11.918,12.0719,12.2029,12.3405,12.3636,12.4101,12.5024,12.5178,12.6178,12.8637,12.8868,12.9871,13.2263,13.2417,13.2493,13.2574,13.3333,13.2638,13.0413,13.1028,13.0099,12.7862,12.7785,12.7329,12.6492,12.572,12.4716,12.3716,12.1177,11.9331,11.7786,11.7635,11.6484,11.4871,11.4102,11.3099,11.1785,10.9329,10.8485,10.8406,0.0,0.0,0.0,0.0,0.0,0.0,0.0,0.0,0.0,6.4551,6.709,6.9786,7.2554,7.3633,7.3862,7.324,7.8092,0.0,8.9404,9.679,10.4097,11.1098,11.5794,11.8564,11.9413,12.11,12.1485,12.0568,12.018,11.9103,11.7176,11.641,11.5412,11.417,11.2906,11.2026,11.1194,10.9987,10.8792,10.7612,10.6917,10.5888,10.4613,10.2982,10.1013,9.886,9.7324,9.5942,0.0,0.0,9.3403,9.3638,9.41,9.271,9.0244,8.6628,8.4243,0.0,7.894,7.7092,7.6551,7.8477,8.0167,8.2166,8.5399,8.6707,8.8325,9.2097,9.5331,9.8331,10.1407,10.5095,10.8788,11.187,11.5022,11.7869,12.0721,12.218,12.3101,12.3405,12.4716,12.58,12.6104,12.7489,12.9025,13.0487,13.1564,13.2638,13.3718,13.4183,13.418,13.3798,13.4564,13.4334,13.2715,13.2025,13.1182,13.0099,12.9099,12.8483,12.8102,12.68,12.5101,12.3326,12.2328,12.079,11.9174,11.8712,11.81,11.7333,11.5489,11.4794,11.4486,11.1024,10.9716,10.9408,0.0,0.0,0.0,0.0,0.0,0.0,0.0,0.0,0.0,0.0,6.4554,6.6402,6.8088,6.9246,6.9398,6.8165,0.0,0.0,0.0,9.6713,10.5328,11.3022,11.7407,12.0177,12.1568,12.3024,12.3332,12.2334,12.2334,12.1103,11.8789,11.8222,11.7208,11.5889,11.4103,11.2986,11.2517,11.0828,10.9522,10.8508,10.7925,10.6578,10.4895,10.2678,9.9606,9.6326,9.5247,9.3172,0.0,0.0,8.9327,8.9866,9.0941,9.0169,8.8472,8.6397,8.4553,8.2937,8.1862,8.0939,8.0473,8.1783,8.486,8.7707,8.8402,9.0554,9.3323,9.6716,9.9796,10.2794,10.5872,10.9403,11.2478,11.4714,11.733,11.9795,12.1719,12.3024,12.3636,12.3021,12.4716,12.6107,12.6338,12.8563,13.0798,13.2333,13.3564,13.4484,13.5026,13.5488,13.5565,13.5026,13.5568,13.5488,13.4638,13.3414,13.249,13.2029,13.0794,13.0099,12.9791,12.8412,12.6181,12.3636,12.3636,12.2485,12.0565,11.9795,11.9331,11.8869,11.7102,11.641,11.6105,11.3107,11.1563,11.1024,0.0,0.0,0.0,0.0,0.0,0.0,0.0,0.0,0.0,0.0,0.0,0.0,0.0,6.6247,6.7172,6.7172,0.0,0.0,0.0,9.4946,10.3563,11.1167,11.5632,11.902,12.1491,12.2485,12.3329,12.4021,12.4021,12.3181,12.1488,12.1283,11.9917,11.7523,11.626,11.4914,11.3297,11.2316,11.1035,10.947,10.8707,10.7476,10.5692,10.1621,9.7385,9.3636,9.1939,0.0,0.0,0.0,8.3328,8.2941,8.463,8.5628,0.0,8.5166,8.1939,7.8865,7.9629,8.0475,8.1631,8.4166,8.7936,9.171,9.4179,9.6716,9.9483,10.2868,10.502,10.7015,10.9565,11.1483,11.3786,11.7094,11.8484,12.0023,12.2479,12.2864,12.2864,12.2864,12.3713,12.4486,12.5412,12.7714,13.0637,13.4023,13.4334,13.5026,13.6568,13.6722,13.6722,13.6722,13.6722,13.6334,13.5488,13.5411,13.4568,13.3035,13.2878,13.2417,13.1567,13.0798,12.8486,12.5332,12.5332,12.3876,12.1494,12.0565,11.9792,11.91,11.9023,11.8028,11.6492,11.6415,11.5335,11.3635,0.0,0.0,0.0,0.0,0.0,0.0,0.0,0.0,0.0,0.0,0.0,0.0,0.0,0.0,0.0,0.0,6.9321,0.0,0.0,9.1246,9.9401,10.5323,11.3401,11.8174,11.91,12.1636,12.3326,12.4098,12.3636,12.2671,12.1517,12.0774,11.9705,11.8231,11.6596,11.5294,11.4216,11.2622,11.0678,10.8597,10.73,10.5803,10.398,9.9904,9.4679,8.9096,0.0,0.0,0.0,0.0,0.0,0.0,8.0096,8.0481,8.0017,7.855,7.8704,7.9708,8.1093,8.3787,8.7021,9.0714,9.3482,9.6016,9.8634,10.0712,10.2486,10.3717,10.5172,10.648,10.6795,10.9637,11.2481,11.4091,11.7481,12.0639,12.2633,12.387,12.3716,12.1405,12.3408,12.4636,12.379,12.7101,13.041,13.3183,13.4487,13.5565,13.6722,13.7264,13.7418,13.6799,13.7418,13.7184,13.6414,13.5795,13.518,13.4564,13.3494,13.2266,13.0875,13.0025,12.8102,12.5412,12.4793,12.3411,12.1491,12.0719,12.0488,12.0565,11.9485,11.9103,11.8875,11.7795,11.702,11.6097,0.0,0.0,0.0,0.0,0.0,0.0,0.0,0.0,0.0,0.0,0.0,0.0,0.0,0.0,0.0,0.0,0.0,7.1245,0.0,0.0,9.286,9.9173,10.5713,11.0016,11.1862,11.3481,11.5404,11.7789,11.7866,11.8191,11.8688,11.8406,11.77,11.6723,11.5208,11.3996,11.3234,11.1685,10.9608,10.7227,10.4739,10.2386,9.9838,9.4567,8.8865,0.0,0.0,0.0,0.0,0.0,0.0,7.4322,7.5095,7.5787,7.6324,7.6092,7.8477,8.1708,8.4322,8.7942,9.1871,9.5874,9.8331,10.0404,10.2628,10.4171,10.5331,10.5331,10.5867,10.6169,10.5715,10.7636,10.9788,11.148,11.4791,11.8177,12.1094,12.2485,12.2716,12.1408,12.3408,12.4636,12.3867,12.6791,12.9791,13.234,13.4103,13.5407,13.6337,13.7187,13.7418,13.6799,13.7264,13.7418,13.6799,13.618,13.5719,13.5103,13.39,13.2519,13.0875,13.0333,12.8486,12.5797,12.5335,12.3719,12.1571,12.1029,12.0875,12.1106,12.0334,11.9795,11.9331,11.8479,11.7866,11.7023,0.0,0.0,0.0,0.0,0.0,0.0,0.0,0.0,0.0,0.0,0.0,0.0,0.0,0.0,0.0,0.0,0.0,0.0,0.0,0.0,0.0,9.2561,9.3328,9.5865,10.0704,9.9481,10.1173,10.6092,10.7711,11.0119,11.3162,11.3882,11.3673,11.2697,11.1796,11.0892,10.9968,10.9124,10.7367,10.482,10.079,9.7217,9.3491,8.6212,0.0,0.0,0.0,0.0,0.0,0.0,6.9624,7.0937,7.032,7.2241,7.5397,7.8019,8.1252,8.4867,8.9088,9.2787,9.6259,9.9567,10.2332,10.4638,10.6169,10.7172,10.7711,10.748,10.6708,10.6013,10.5782,10.5405,10.6105,10.9488,11.1098,11.3632,11.8715,11.9485,12.0485,0.0,0.0,0.0,0.0,0.0,12.9099,13.1567,13.3333,13.4561,13.5488,13.6414,13.6799,13.6799,13.6799,13.6799,13.6799,13.6799,13.603,13.4407,13.4112,13.3197,13.1801,13.1567,12.9797,12.6723,12.6569,12.4725,12.1568,12.1568,12.1103,12.0411,12.1337,12.01,11.8097,11.8789,11.8103,11.6492,0.0,0.0,0.0,0.0,0.0,0.0,0.0,0.0,0.0,0.0,0.0,0.0,0.0,0.0,0.0,0.0,0.0,0.0,6.8555,0.0,0.0,0.0,8.8479,9.2787,0.0,0.0,0.0,10.1717,10.271,10.357,10.4298,10.4494,10.4372,10.4014,10.3064,10.2164,10.133,10.0488,9.8397,9.5305,0.0,8.9741,8.6785,0.0,0.0,0.0,0.0,0.0,0.0,0.0,7.0932,7.3164,7.4862,7.5941,7.7478,8.1937,8.563,8.9244,9.3475,9.8096,10.2099,10.4328,10.6174,10.7713,10.8175,10.8406,10.7867,10.5407,10.3179,10.087,9.8408,10.0789,10.4095,10.6864,11.2865,11.8484,12.2328,12.5021,0.0,12.5797,0.0,12.8717,12.8332,12.9714,13.1336,13.2574,13.3109,13.4183,13.6414,13.6722,13.6799,13.6799,13.6799,13.6799,13.6799,13.6799,13.6337,13.5177,13.4522,13.3683,13.257,13.0718,12.872,12.6569,12.5332,12.3565,12.1568,12.1568,12.1494,12.1337,12.1491,12.1183,12.0488,11.9487,11.8792,11.8179,0.0,0.0,0.0,0.0,0.0,0.0,0.0,0.0,0.0,0.0,0.0,0.0,0.0,0.0,0.0,0.0,0.0,0.0,0.0,0.0,0.0,0.0,7.9013,8.1937,0.0,0.0,0.0,0.0,0.0,0.0,9.4996,9.5375,9.5511,9.5255,9.4798,9.431,9.3798,9.3396,0.0,0.0,0.0,0.0,0.0,0.0,0.0,0.0,0.0,0.0,0.0,0.0,7.4474,7.6626,7.8786,8.0558,8.2556,8.6938,9.0629,9.4091,9.8017,10.2171,10.6023,10.7634,10.879,10.9331,10.848,10.8095,10.6403,10.1635,9.9101,9.6949,9.3869,9.6865,10.1017,10.471,11.1173,11.7635,12.2787,12.5483,12.7178,0.0,13.0028,0.0,13.041,13.1795,13.3333,13.4571,13.4725,13.5263,13.6722,13.7488,13.7873,13.7873,13.7572,13.7234,13.6706,13.6565,13.6223,13.5298,13.4526,13.3868,13.34,13.092,12.9025,12.772,12.5563,12.3716,12.2103,12.1799,12.1568,12.1568,12.1568,12.1417,12.0875,12.0026,11.9177,11.8405,0.0,0.0,0.0,0.0,0.0,0.0,0.0,0.0,0.0,0.0,0.0,0.0,0.0,0.0,0.0,0.0,0.0,0.0,0.0,0.0,0.0,0.0,6.9087,0.0,7.1787,7.1323,7.2862,7.6482,7.8861,0.0,0.0,0.0,0.0,0.0,0.0,0.0,0.0,0.0,0.0,0.0,0.0,0.0,0.0,0.0,0.0,0.0,0.0,0.0,0.0,0.0,7.9017,8.0706,8.2785,8.5788,8.9096,9.2633,9.5942,9.925,10.2712,10.5864,10.8711,11.0332,11.0562,11.0024,10.8021,10.6631,10.3782,9.717,9.4869,9.3332,9.1092,9.3554,9.7709,10.3179,10.848,11.4709,12.2479,12.4483,12.6329,12.9634,13.2106,13.3186,13.2493,13.3718,13.5334,13.6879,13.7107,13.7103,13.7103,13.8485,13.9328,13.9328,13.8398,13.7492,13.6768,13.652,13.5978,13.5305,13.4283,13.388,13.3934,13.1394,12.9766,12.892,12.64,12.4406,12.2787,12.2103,12.1722,12.1568,12.1494,12.1029,12.0411,12.0177,11.9331,11.8094,0.0,0.0,0.0,0.0,0.0,0.0,0.0,0.0,0.0,0.0,6.3171,0.0,0.0,0.0,0.0,0.0,0.0,0.0,0.0,0.0,0.0,0.0,0.0,0.0,7.0089,7.1325,7.2017,7.2016,7.3934,7.5154,0.0,0.0,0.0,0.0,0.0,0.0,0.0,0.0,0.0,0.0,0.0,0.0,0.0,0.0,0.0,0.0,0.0,0.0,0.0,0.0,8.2095,8.3712,8.8248,9.1481,9.4484,9.8555,10.1712,10.4484,10.8026,11.0329,11.2096,11.3099,11.2788,11.1327,10.7477,10.432,10.0476,9.4403,9.0789,8.856,8.8173,9.1402,9.6482,10.3717,11.0411,11.7484,12.5864,12.9025,13.1413,0.0,13.5411,13.6106,13.5876,13.6183,13.6799,13.7802,13.8488,13.887,13.887,13.9097,13.9328,13.9328,13.7682,13.7207,13.7766,13.6803,13.6265,13.6311,13.4574,13.3837,13.3712,13.0715,12.878,12.7938,12.6129,12.4406,12.2864,12.2713,12.2334,12.1491,12.0795,12.0875,12.1183,11.9792,11.9482,11.9795,0.0,0.0,0.0,0.0,0.0,0.0,0.0,0.0,0.0,6.9396,6.9167,6.8167,0.0,0.0,0.0,0.0,0.0,0.0,0.0,0.0,0.0,0.0,0.0,0.0,6.8323,6.9552,7.0244,7.0243,0.0,7.2164,7.2164,7.2549,7.2684,7.2646,7.2258,7.1774,7.1275,7.0928,0.0,6.8806,6.846,6.7632,0.0,0.0,0.0,0.0,0.0,0.0,0.0,0.0,8.2945,8.7177,9.2249,9.6172,9.9406,10.1866,10.51,10.8334,11.0791,11.3404,11.5324,11.5333,11.4022,11.1093,10.509,10.1092,9.6632,8.9404,8.6559,8.5251,8.4865,8.894,9.4326,10.0176,10.6482,11.3868,12.3332,12.6409,12.9413,13.3721,13.5722,13.6568,13.6183,13.6876,13.7799,13.8722,13.9485,14.0024,14.0024,14.0024,13.9793,13.9328,13.8117,13.7277,13.7191,13.6583,13.6274,13.6266,13.496,13.4627,13.5097,13.1784,13.009,12.9623,12.7234,12.5412,12.4098,12.3329,12.2716,12.2177,12.1334,12.1183,12.1414,12.018,12.0026,12.018,0.0,0.0,0.0,0.0,0.0,0.0,0.0,6.7016,6.8859,7.4163,7.5548,7.4626,7.0932,6.8781,6.6936,0.0,0.0,0.0,0.0,0.0,0.0,0.0,0.0,0.0,0.0,0.0,0.0,6.9167,6.9629,0.0,0.0,0.0,0.0,0.0,6.9244,6.8781,6.8087,6.7931,6.7475,0.0,0.0,6.6479,0.0,0.0,0.0,0.0,0.0,0.0,0.0,0.0,8.2868,8.8485,9.3633,9.8632,10.271,10.3405,10.7023,11.1101,11.3022,11.5709,11.7866,11.7179,11.4714,11.0478,10.3012,9.8168,9.2939,8.4946,8.3022,8.2789,8.2864,8.7017,9.2095,0.0,10.2633,10.9713,11.9875,12.3178,12.6794,13.257,13.5417,13.6488,13.5795,13.7187,13.8415,13.9174,14.0331,14.0873,14.0873,14.0485,14.0101,13.9636,13.8431,13.7386,13.6634,13.6383,13.6207,13.6114,13.5191,13.5325,13.6105,13.2936,13.1493,13.1218,12.8169,12.6415,12.5335,12.4024,12.3172,12.2787,12.1873,12.1568,12.1494,12.0565,12.0411,12.0488,0.0,0.0,0.0,0.0,0.0,0.0,0.0,6.9017,7.2551,7.8473,7.9935,7.9785,7.779,7.4707,7.1545,0.0,0.0,0.0,0.0,0.0,0.0,0.0,0.0,0.0,0.0,0.0,0.0,6.7326,6.6708,0.0,0.0,0.0,0.0,0.0,0.0,6.7326,6.7172,6.6478,0.0,0.0,0.0,0.0,0.0,0.0,0.0,0.0,0.0,7.0862,7.3325,7.894,8.2328,8.4946,9.0092,9.6709,10.2633,10.2712,10.7326,11.3019,11.5489,11.7487,11.9023,11.8869,11.5173,10.9782,10.2938,9.6322,8.9938,8.371,8.1246,8.1089,8.4087,8.6324,0.0,0.0,0.0,10.8795,11.9026,12.3876,12.8416,13.3564,13.5719,13.6799,13.6722,13.7495,13.8415,13.9174,14.0793,14.18,14.18,14.0331,13.9713,14.0489,13.7924,13.6915,13.7718,13.6523,13.5984,13.6114,13.5199,13.4915,13.4875,13.2613,13.1133,13.0234,12.8507,12.6868,12.5412,12.5178,12.4332,12.2787,12.1873,12.1568,12.1494,12.0565,12.0795,12.1494,0.0,0.0,0.0,0.0,0.0,0.0,0.0,6.9398,7.2474,8.0941,8.2404,8.2174,8.0943,7.9169,7.5703,0.0,0.0,0.0,0.0,0.0,0.0,0.0,0.0,0.0,0.0,0.0,6.7015,6.7858,6.7548,0.0,0.0,0.0,0.0,0.0,0.0,6.6864,6.6324,6.6017,0.0,0.0,0.0,0.0,0.0,0.0,0.0,0.0,0.0,0.0,7.2635,7.5551,7.8629,8.1554,8.3095,8.8483,9.5177,9.9716,10.5177,11.0711,11.5335,11.9177,12.1713,12.0177,11.602,11.0172,10.2407,9.5324,8.8859,8.3403,8.14,8.1168,8.3014,8.5091,0.0,0.0,0.0,0.0,10.987,11.3871,11.9177,12.7871,13.1333,13.4183,13.7264,13.8334,13.9181,14.0024,14.0716,14.1104,14.1104,14.0024,13.9177,13.9107,13.7372,13.6632,13.6907,13.6319,13.5972,13.6114,13.5731,13.5376,13.51,13.36,13.2011,13.0334,12.9231,12.7714,12.6104,12.5566,12.5024,12.4332,12.287,12.2408,12.2177,12.0795,12.0875,12.1491,0.0,0.0,0.0,0.0,0.0,0.0,6.9166,7.001,7.3088,8.202,8.3407,8.3482,8.3093,8.1016,7.74,7.2012,0.0,0.0,0.0,0.0,0.0,0.0,0.0,0.0,0.0,0.0,6.7322,6.8391,6.8162,6.801,0.0,0.0,6.7552,6.6787,0.0,0.0,0.0,0.0,0.0,0.0,0.0,0.0,0.0,0.0,0.0,0.0,0.0,0.0,0.0,0.0,0.0,7.8242,7.8173,0.0,0.0,9.5254,10.1791,10.7867,11.3797,11.8869,12.2174,12.0719,11.6099,10.9865,10.2176,9.4788,8.8169,8.3326,8.1633,8.1402,8.2479,8.5016,0.0,0.0,0.0,9.7252,10.4102,10.7485,11.2637,12.1719,12.5569,12.949,13.4568,13.7411,13.9331,14.0181,14.0178,14.0104,13.9873,13.9214,13.8578,13.797,13.6978,13.6367,13.6208,13.6125,13.5888,13.5666,13.5837,13.5303,13.4437,13.3678,13.208,13.0105,12.9176,12.8025,12.6726,12.6027,12.5563,12.5335,12.4101,12.3482,12.3098,12.1636,12.1488,12.1873,0.0,0.0,0.0,0.0,0.0,0.0,0.0,7.1315,7.5549,8.1556,8.3097,8.3943,8.4782,7.9629,7.6015,7.5938,0.0,0.0,0.0,0.0,0.0,0.0,0.0,0.0,0.0,0.0,0.0,6.8391,6.7553,6.7096,6.7096,6.7096,6.671,6.5939,0.0,0.0,0.0,0.0,0.0,0.0,0.0,0.0,0.0,0.0,0.0,0.0,0.0,0.0,0.0,0.0,0.0,0.0,0.0,7.8477,8.1394,0.0,9.7326,10.5177,11.1093,11.5866,11.9331,12.01,11.5179,10.8719,10.271,9.4788,8.7485,8.3174,8.1633,8.1633,8.3253,8.6408,0.0,0.0,0.0,0.0,10.441,10.8026,11.1796,11.6108,11.8795,12.2408,12.7477,13.4103,13.8415,13.9331,13.9328,13.9023,13.8187,13.7899,13.7819,13.7819,13.682,13.6201,13.6121,13.6033,13.5492,13.4579,13.4974,13.4199,13.2523,13.1977,13.0794,12.9179,12.8326,12.7486,12.6723,12.6723,12.6184,12.5412,12.5412,12.4793,12.4021,12.3172,12.2864,12.279,0.0,0.0,0.0,0.0,0.0,0.0,0.0,6.7242,7.0398,7.6321,7.7321,7.8323,8.0327,7.7323,7.4857,7.4318,0.0,0.0,0.0,0.0,0.0,0.0,0.0,0.0,0.0,0.0,0.0,0.0,0.0,6.9707,6.9707,6.9707,6.8632,6.671,6.671,6.6401,0.0,0.0,0.0,0.0,0.0,0.0,6.8938,0.0,0.0,0.0,0.0,0.0,0.0,0.0,0.0,0.0,0.0,0.0,0.0,8.3093,9.0712,9.887,10.363,10.84,11.1793,11.0334,10.7021,10.2866,9.8098,9.2717,8.779,8.4707,8.3401,8.3174,8.4247,8.6326,0.0,0.0,0.0,9.7865,10.1178,10.7098,11.2711,11.6869,12.6335,13.3337,13.5484,13.7639,13.8796,13.8492,13.8404,13.8192,13.7888,13.7205,13.6632,13.6126,13.5573,13.5021,13.4429,13.4198,13.3964,13.3662,13.4024,13.3486,13.2519,13.1794,13.0702,12.9179,12.8326,12.7406,12.6723,12.6723,12.6517,12.5978,12.5609,12.5203,12.4736,12.3279,12.2795,12.2778,0.0,0.0,0.0,0.0,0.0,0.0,0.0,6.4939,6.7553,7.2241,7.278,7.4245,7.8098,7.5091,7.3395,7.4782,0.0,0.0,0.0,0.0,0.0,0.0,0.0,0.0,0.0,0.0,0.0,0.0,0.0,0.0,0.0,0.0,7.1631,6.8555,6.8247,6.7478,0.0,0.0,0.0,0.0,0.0,0.0,6.9318,0.0,0.0,0.0,0.0,0.0,0.0,0.0,0.0,0.0,0.0,0.0,0.0,0.0,8.5865,9.2405,9.7937,10.2864,10.6328,10.5331,10.2715,9.9404,9.5795,9.1255,8.7173,8.532,8.4172,8.3943,8.5168,0.0,0.0,0.0,9.4713,9.7021,10.0483,10.6328,11.217,11.81,12.7871,13.4564,13.5407,13.7177,13.808,13.7572,13.7407,13.7327,13.7194,13.6584,13.5931,13.5111,13.4927,13.448,13.4033,13.3479,13.3123,13.2818,13.2671,13.218,13.1518,13.0799,13.0016,12.91,12.8562,12.7793,0.0,12.6974,12.6674,12.6299,12.5921,12.5672,12.5368,12.3682,12.3115,12.3017,0.0,0.0,0.0,0.0,0.0,0.0,0.0,0.0,0.0,6.9012,6.9398,7.1552,7.7174,7.286,7.1552,7.6403,0.0,0.0,0.0,0.0,0.0,0.0,0.0,0.0,0.0,0.0,0.0,7.2327,7.3318,7.4626,7.617,0.0,0.0,7.0937,7.0244,6.8861,0.0,0.0,0.0,0.0,6.8783,6.9241,0.0,0.0,0.0,0.0,0.0,0.0,0.0,0.0,0.0,0.0,0.0,0.0,0.0,0.0,0.0,0.0,0.0,9.8401,10.1863,10.333,10.0794,9.7331,9.4871,9.002,0.0,0.0,0.0,0.0,0.0,0.0,0.0,0.0,9.41,9.6946,10.202,10.6174,11.1868,12.0488,12.5714,12.8865,12.9714,13.4016,13.6726,13.6594,13.6563,13.6489,13.6266,13.6189,13.5716,13.4881,13.4805,13.4576,13.4499,13.3582,13.2814,13.2122,13.1508,13.0667,12.9927,12.9286,12.9106,12.9116,12.9039,12.8498,12.7794,12.7585,12.7074,12.6314,12.6324,12.6174,12.5867,12.4337,12.3729,12.3426,0.0,0.0,0.0,0.0,0.0,0.0,0.0,0.0,0.0,0.0,6.6397,6.7784,7.0472,6.9547,6.9702,0.0,0.0,0.0,0.0,0.0,0.0,0.0,0.0,0.0,0.0,0.0,0.0,7.3164,7.594,7.7559,7.7944,7.8784,0.0,0.0,0.0,0.0,0.0,0.0,0.0,0.0,6.9473,6.9935,0.0,0.0,0.0,0.0,7.0937,7.1477,0.0,0.0,0.0,0.0,0.0,0.0,0.0,0.0,8.1475,8.3478,8.5944,0.0,9.1561,9.0017,8.9863,8.9558,0.0,0.0,0.0,0.0,0.0,0.0,0.0,0.0,0.0,9.4631,9.6249,9.8481,10.3022,11.2104,12.2029,13.1801,13.4029,13.4795,13.5029,13.6007,13.6618,13.6583,13.6368,13.6211,13.6093,13.6018,13.5929,13.562,13.4324,13.362,13.3582,13.2814,13.2279,13.2122,13.1927,13.1479,13.0835,12.9991,12.9703,12.9726,12.9113,12.8726,12.8492,12.8378,12.7908,12.7161,12.7268,12.6622,12.5317,12.4171,12.3466,12.2827,0.0,0.0,0.0,0.0,0.0,0.0,0.0,0.0,0.0,0.0,0.0,0.0,0.0,0.0,0.0,0.0,0.0,0.0,0.0,0.0,0.0,0.0,0.0,0.0,0.0,0.0,0.0,0.0,0.0,7.8713,0.0,0.0,0.0,0.0,0.0,0.0,0.0,0.0,0.0,0.0,6.9935,0.0,0.0,0.0,0.0,0.0,7.0937,7.1685,0.0,7.4161,7.5608,7.7199,0.0,0.0,0.0,0.0,8.1016,8.1864,8.2326,8.5251,8.7867,8.6865,8.7017,8.7173,8.6245,0.0,0.0,0.0,0.0,0.0,0.0,0.0,0.0,9.5555,9.7634,10.1332,10.8562,11.7179,12.5797,13.4109,13.5278,13.5773,13.6622,13.657,13.6374,13.6379,13.6215,13.593,13.5395,13.5306,13.5106,13.4724,13.3815,13.3509,13.3888,13.2279,13.1897,13.2585,13.1519,13.1178,13.149,13.0263,13.0116,13.0494,13.0027,12.9571,12.9188,12.9188,12.8501,12.7369,12.7592,12.6804,12.5582,12.4738,12.3593,12.2429,0.0,0.0,0.0,0.0,0.0,0.0,0.0,0.0,0.0,0.0,0.0,0.0,0.0,0.0,0.0,0.0,0.0,0.0,0.0,0.0,0.0,0.0,0.0,0.0,0.0,0.0,0.0,0.0,0.0,0.0,0.0,0.0,8.146,0.0,0.0,0.0,0.0,0.0,0.0,6.8931,7.032,0.0,0.0,0.0,0.0,0.0,0.0,0.0,0.0,7.5888,7.8025,7.9913,8.1132,0.0,0.0,0.0,0.0,0.0,8.1554,8.4632,8.7711,8.7562,8.7252,8.6942,8.6557,0.0,0.0,0.0,0.0,0.0,0.0,9.0558,0.0,9.6632,10.0099,10.5874,11.6415,12.187,12.7025,13.2724,13.3995,13.4994,13.6307,13.6384,13.6299,13.6082,13.6106,13.5636,13.4736,13.4575,13.427,13.3505,13.3433,13.3815,13.4805,13.2508,13.213,13.3509,13.1217,13.0831,13.2126,13.0583,13.0416,13.1101,13.1101,13.0565,12.988,12.9807,12.8914,12.7512,12.7484,12.6794,12.576,12.53,12.3834,12.2102,0.0,0.0,0.0,0.0,0.0,0.0,0.0,0.0,0.0,0.0,0.0,0.0,0.0,0.0,0.0,0.0,0.0,0.0,0.0,0.0,0.0,0.0,0.0,6.8393,0.0,0.0,0.0,0.0,0.0,0.0,8.3482,8.64,8.4285,0.0,0.0,0.0,0.0,0.0,7.0014,7.0552,7.0783,0.0,0.0,0.0,0.0,0.0,0.0,0.0,0.0,7.3684,7.6472,7.9517,7.8294,0.0,0.0,0.0,0.0,0.0,8.3551,8.6857,8.8318,8.3478,8.3785,8.4705,8.2554,0.0,0.0,0.0,0.0,0.0,0.0,9.2792,9.6023,10.0786,10.7405,11.4714,12.2873,12.6563,13.0099,13.4564,13.5933,13.6227,13.5686,13.6137,13.6266,13.6321,13.6068,13.5512,13.4575,13.4575,13.4495,13.4422,13.3739,13.4117,13.5718,13.4575,13.4113,13.4422,13.328,13.2512,13.2122,13.1083,13.0712,13.0785,13.0785,13.0788,13.0635,12.9875,12.9184,12.841,12.7828,12.6216,12.4502,12.512,12.3731,12.1511,0.0,0.0,0.0,0.0,0.0,0.0,0.0,0.0,0.0,0.0,0.0,0.0,0.0,0.0,0.0,0.0,0.0,0.0,0.0,0.0,0.0,0.0,7.1545,7.1162,6.9702,0.0,0.0,0.0,0.0,8.6607,8.8238,8.6533,8.3284,7.8871,0.0,0.0,0.0,0.0,7.0552,7.0937,0.0,0.0,0.0,0.0,0.0,0.0,0.0,0.0,0.0,0.0,7.6876,7.9537,7.9318,0.0,0.0,0.0,0.0,0.0,8.232,8.463,8.6094,8.4247,8.6786,8.9092,0.0,0.0,0.0,0.0,0.0,0.0,0.0,9.6482,10.1791,11.0175,11.5176,12.0029,12.5335,12.7871,13.0378,13.3694,13.4687,13.5407,13.5868,13.5974,13.6132,13.6218,13.5624,13.4801,13.3888,13.3502,13.3192,13.3192,13.289,13.3196,13.4499,13.4117,13.4117,13.4575,13.2818,13.1973,13.2122,13.1209,13.0827,13.0827,13.0827,13.0601,13.0074,12.9778,12.8976,12.7885,12.7662,12.6728,12.5219,12.4234,12.2972,12.1591,0.0,0.0,0.0,0.0,0.0,0.0,0.0,0.0,0.0,0.0,0.0,0.0,0.0,0.0,0.0,0.0,0.0,0.0,0.0,0.0,7.217,7.2855,7.4086,7.3857,7.2087,0.0,7.9477,8.4093,8.8175,9.1417,9.3589,8.7582,8.3129,0.0,0.0,0.0,0.0,7.1065,7.1065,7.0914,0.0,0.0,0.0,0.0,0.0,0.0,0.0,0.0,0.0,0.0,0.0,0.0,0.0,0.0,0.0,8.1529,8.0611,8.0162,8.1836,8.3389,8.4869,8.6324,0.0,9.1712,0.0,0.0,0.0,0.0,0.0,0.0,0.0,10.1407,10.8406,11.81,12.1799,12.4568,12.8031,12.9689,13.1397,13.3367,13.4138,13.4963,13.6504,13.6175,13.6133,13.6412,13.5276,13.4193,13.3276,13.2661,13.2279,13.2122,13.2279,13.2661,13.328,13.3123,13.3425,13.427,13.1897,13.1129,13.182,13.0903,13.0368,13.0216,13.0368,13.007,12.9314,12.9206,12.843,12.7327,12.7063,12.6674,12.5864,12.3374,12.2291,12.1871,0.0,0.0,0.0,0.0,0.0,0.0,0.0,0.0,0.0,0.0,0.0,0.0,0.0,0.0,0.0,0.0,0.0,0.0,0.0,0.0,7.1014,7.1089,7.3395,7.6086,7.901,8.0167,8.3553,8.9316,9.2869,9.5771,9.7948,9.1872,8.6494,8.165,0.0,0.0,0.0,0.0,7.1522,7.0843,7.0834,0.0,0.0,0.0,0.0,0.0,0.0,0.0,0.0,0.0,0.0,0.0,0.0,0.0,8.2308,8.2144,8.1023,8.0686,8.4609,8.6343,8.7327,8.8254,0.0,0.0,0.0,0.0,0.0,0.0,0.0,0.0,0.0,10.8095,11.5022,12.0491,12.5489,12.9791,13.3333,13.4369,13.5207,13.6199,13.6217,13.6504,13.7417,13.6579,13.6405,13.7178,13.5582,13.4193,13.3276,13.32,13.2894,13.2122,13.2814,13.32,13.328,13.2585,13.2585,13.3433,13.1591,13.0827,13.0907,13.007,12.9226,12.8531,12.9302,12.9226,12.8298,12.7628,12.7265,12.7198,12.5785,12.5404,12.5189,12.3017,12.2194,12.2021,0.0,0.0,0.0,0.0,0.0,0.0,0.0,0.0,0.0,0.0,0.0,0.0,0.0,0.0,0.0,0.0,0.0,0.0,0.0,0.0,7.1629,7.3166,7.5243,7.74,7.9781,8.4241,8.9784,9.6252,10.0038,10.067,9.8224,9.2212,0.0,0.0,0.0,0.0,0.0,0.0,7.1706,7.2281,7.1907,7.1942,0.0,0.0,0.0,0.0,0.0,0.0,0.0,0.0,7.7682,7.9675,0.0,8.1487,8.3002,8.2364,8.1402,8.1073,8.3058,8.5102,8.694,8.8329,0.0,0.0,0.0,0.0,0.0,0.0,0.0,0.0,0.0,11.4176,11.9411,12.403,12.8569,13.2304,13.4597,13.5615,13.6207,13.6321,13.6168,13.628,13.6587,13.621,13.6079,13.6565,13.5433,13.4193,13.3276,13.328,13.3204,13.2894,13.2665,13.2814,13.328,13.1977,13.1434,13.1668,13.0605,13.0296,13.0831,12.9375,12.8916,12.9073,12.9535,12.8767,12.7515,12.7375,12.6671,12.58,12.5329,12.48,12.4299,12.342,12.2589,12.1974,0.0,0.0,0.0,0.0,0.0,0.0,0.0,0.0,0.0,0.0,0.0,0.0,0.0,0.0,0.0,0.0,0.0,0.0,0.0,7.0089,7.1397,7.3395,7.5707,7.8017,8.055,8.7243,9.3554,9.9257,10.3801,10.3191,9.7827,0.0,0.0,0.0,0.0,0.0,0.0,0.0,0.0,0.0,7.2523,7.2325,0.0,0.0,0.0,0.0,0.0,0.0,0.0,0.0,7.8064,7.9733,0.0,0.0,0.0,8.3056,8.2548,8.23,8.2854,8.4059,8.5827,0.0,0.0,0.0,0.0,0.0,0.0,0.0,0.0,0.0,0.0,0.0,12.1103,12.5876,13.0228,13.3624,13.5361,13.6113,13.6361,13.6063,13.6072,13.6114,13.6424,13.609,13.599,13.6416,13.502,13.3888,13.3276,13.328,13.3204,13.289,13.2585,13.2585,13.289,13.1284,13.0597,13.0827,12.9593,12.938,12.9986,12.8611,12.8076,12.8389,12.8698,12.8003,12.6682,12.6806,12.6035,12.4533,12.4812,12.4286,12.3371,12.3094,12.2592,12.1893,0.0,0.0,0.0,0.0,0.0,0.0,0.0,0.0,0.0,0.0,0.0,0.0,0.0,0.0,0.0,0.0,0.0,0.0,0.0,6.9164,7.0012,7.086,7.417,7.7938,8.2172,8.8942,9.4095,9.7555,10.3189,10.2928,9.7007,9.0994,0.0,0.0,0.0,0.0,0.0,0.0,0.0,0.0,7.2524,7.2783,7.3537,0.0,0.0,0.0,0.0,0.0,0.0,0.0,7.9514,8.0251,0.0,0.0,0.0,8.4187,8.4504,8.4579,8.4593,8.4043,8.4287,0.0,0.0,0.0,0.0,0.0,0.0,0.0,0.0,11.4868,11.7404,11.7866,11.9789,12.572,13.0068,13.3664,13.6196,13.6318,13.6114,13.6114,13.5972,13.6176,13.7025,13.6409,13.6176,13.7025,13.4732,13.328,13.328,13.3276,13.2886,13.2115,13.2882,13.2879,13.2107,13.0614,13.0161,13.0812,12.8769,12.7979,12.8298,12.7537,12.6624,12.5867,12.6704,12.6628,12.5791,12.5787,12.4966,12.3705,12.4286,12.3563,12.2422,12.2095,12.197,12.1893,0.0,0.0,0.0,0.0,0.0,0.0,0.0,0.0,0.0,0.0,0.0,0.0,0.0,0.0,0.0,0.0,0.0,0.0,6.8314,6.809,6.8553,7.0012,7.2703,7.5396,7.7784,8.5713,9.3441,10.0888,10.2003,9.8832,9.1765,8.9282,0.0,7.9988,0.0,0.0,0.0,0.0,0.0,0.0,7.5114,7.4628,7.4462,0.0,0.0,0.0,0.0,0.0,0.0,0.0,0.0,0.0,8.1589,0.0,8.4909,8.3869,8.4049,8.4334,8.3047,8.4769,0.0,8.9075,0.0,0.0,0.0,0.0,0.0,0.0,12.1405,12.1174,12.1405,12.2873,12.4412,12.5566,12.9216,13.2468,13.4434,13.5022,13.5387,13.588,13.5898,13.6019,13.6172,13.6019,13.5714,13.5416,13.4575,13.3731,13.2508,13.3236,13.2876,13.1511,13.1823,13.1618,13.0789,12.9776,12.9594,13.0213,12.8977,12.8964,12.9975,12.7636,12.6902,12.7537,12.7235,12.6628,12.5769,12.5262,12.4129,12.2505,12.3471,12.3261,12.2422,12.2095,12.197,12.1893,0.0,0.0,0.0,0.0,0.0,0.0,0.0,0.0,0.0,0.0,6.9162,6.9704,0.0,0.0,0.0,0.0,0.0,0.0,0.0,0.0,6.8244,6.9627,7.2472,7.5857,7.9937,8.5713,9.1202,9.6398,9.7185,9.4281,8.8148,0.0,8.6401,8.2256,0.0,8.3599,0.0,0.0,7.7852,7.7519,7.712,7.6709,7.631,0.0,0.0,0.0,0.0,0.0,0.0,0.0,0.0,0.0,0.0,0.0,0.0,8.3344,8.3964,8.492,8.4903,8.6905,0.0,9.3397,9.8228,10.3818,11.0398,0.0,0.0,0.0,12.4021,12.4329,12.4787,12.5332,12.6181,12.7723,13.009,13.2613,13.4513,13.4784,13.4917,13.5271,13.5106,13.4881,13.4881,13.4881,13.4489,13.3835,13.373,13.3178,13.19,13.2787,13.2674,13.1395,13.1424,13.1203,13.0697,12.9616,12.9376,13.021,12.9327,12.929,13.0208,12.7691,12.7024,12.7836,12.6728,12.5732,12.4878,12.4566,12.3287,12.1689,12.2665,12.252,12.1705,12.1626,12.1504,12.1508,0.0,0.0,6.37,6.4549,0.0,0.0,0.0,0.0,0.0,0.0,6.9241,6.9781,0.0,0.0,0.0,0.0,0.0,0.0,0.0,0.0,6.8854,6.9858,7.3395,7.855,8.563,8.7327,8.7675,8.6739,9.0099,8.962,8.5598,0.0,8.9048,8.8281,0.0,8.9307,8.6703,8.4113,8.1324,7.8509,7.8679,7.8713,7.8619,7.8533,0.0,0.0,0.0,0.0,0.0,0.0,0.0,0.0,7.9446,8.0539,8.2032,8.2715,8.4062,8.5987,8.8536,8.9556,0.0,9.9332,10.193,0.0,11.4698,12.0719,12.4486,12.5332,12.4926,12.5225,12.7705,12.6231,12.6222,13.0779,13.2008,13.3199,13.5569,13.5,13.4419,13.4499,13.3696,13.321,13.321,13.3171,13.2879,13.2316,13.2174,13.1863,13.1263,13.2007,13.1968,13.1228,13.1228,13.1113,13.0886,12.951,12.9371,13.0598,12.9398,12.9093,12.9379,12.7802,12.702,12.6764,12.5474,12.4388,12.3635,12.3716,12.2733,12.1226,12.1772,12.1504,12.0813,12.0813,12.0813,12.0813,0.0,0.0,6.4626,6.5477,0.0,0.0,0.0,0.0,0.0,0.0,0.0,0.0,0.0,0.0,0.0,0.0,0.0,0.0,0.0,0.0,6.9395,7.1556,7.6863,8.0785,8.3095,8.348,8.3209,8.2273,8.5653,8.5427,0.0,0.0,0.0,8.6221,0.0,8.7961,8.4674,8.1624,7.9936,7.9347,8.019,8.0092,7.9617,8.013,7.8982,0.0,0.0,0.0,0.0,0.0,0.0,0.0,8.0328,8.0994,8.1869,8.2003,8.3219,8.4984,8.6833,8.9807,0.0,10.0284,10.749,11.4181,11.8536,12.2411,12.5412,12.6181,12.6626,12.7384,12.9523,12.9315,12.9126,13.0314,13.1106,13.1864,13.2972,13.2863,13.289,13.3505,13.3007,13.2602,13.2602,13.2212,13.1592,13.0781,13.0772,13.04,12.9574,12.9931,12.9733,12.8902,12.8807,12.8798,12.8804,12.7565,12.7724,12.9086,12.8231,12.8,12.8596,12.7737,12.6563,12.543,12.5009,12.3878,12.2431,12.3329,12.2436,12.0631,12.1639,12.1504,12.0813,12.0813,12.0813,12.0813,0.0,0.0,0.0,0.0,0.0,0.0,0.0,0.0,0.0,0.0,0.0,0.0,0.0,0.0,0.0,0.0,0.0,0.0,0.0,0.0,7.0087,7.3862,7.8167,8.1014,8.2249,8.1939,8.1266,8.0216,8.1635,0.0,0.0,0.0,0.0,8.6347,0.0,8.8859,8.4836,8.3653,8.2209,8.0858,8.1877,8.1787,8.1002,8.0882,7.9272,7.7067,7.7841,0.0,0.0,0.0,0.0,0.0,0.0,0.0,8.0776,8.1538,8.2455,8.3998,8.818,9.1788,0.0,10.4886,11.2335,11.8177,12.0917,12.3178,12.5219,12.6786,12.7561,12.8275,12.8888,12.951,12.9971,13.0178,13.0765,13.1511,13.1804,13.1217,13.1026,13.1781,13.0467,12.9906,13.0726,13.0073,12.962,12.9309,12.958,12.9515,12.8823,12.9219,12.9098,12.8272,12.7894,12.7829,12.8012,12.6981,12.7202,12.8523,12.7982,12.7617,12.7332,12.6979,12.6092,12.478,12.3884,12.2703,12.1433,12.1881,12.1072,11.9784,12.0988,12.1198,12.0813,12.0813,12.0813,12.0813,0.0,0.0,0.0,0.0,0.0,0.0,0.0,0.0,0.0,0.0,0.0,0.0,0.0,0.0,0.0,0.0,0.0,0.0,0.0,0.0,0.0,7.5784,7.8321,8.0314,8.1996,8.1164,8.0245,7.9305,0.0,0.0,0.0,0.0,0.0,8.747,0.0,8.9559,8.5519,8.5721,8.4203,8.1702,8.2569,8.2473,8.1753,0.0,0.0,7.6965,7.6809,7.6285,7.5966,7.7643,0.0,0.0,0.0,0.0,7.9405,8.1079,8.1612,8.2935,8.9153,9.3692,9.9174,10.9728,11.5481,11.9293,12.2011,12.3376,12.4625,12.6377,12.7581,12.8124,12.7571,12.8601,12.949,12.9585,13.028,13.0827,13.0733,12.947,12.889,12.9738,12.7834,12.7019,12.8277,12.7663,12.7391,12.7503,12.8283,12.8486,12.7832,12.8627,12.8701,12.7804,12.7104,12.7024,12.7589,12.6492,12.6569,12.7723,12.7338,12.6671,12.58,12.5389,12.4917,12.4335,12.2478,12.1221,12.0269,12.0189,11.9734,11.9184,12.0205,12.0666,12.0813,12.0813,12.0813,12.0813,0.0,0.0,0.0,0.0,0.0,0.0,0.0,0.0,0.0,0.0,6.9162,6.9704,0.0,6.8931,6.8468,6.8545,6.8391,6.8316,6.8547,0.0,0.0,7.5861,7.7711,7.9446,8.106,7.9598,7.8709,7.8457,0.0,0.0,0.0,0.0,0.0,8.8968,0.0,0.0,8.5289,8.1965,8.0292,7.9859,8.0178,8.0205,7.9915,0.0,0.0,0.0,0.0,7.6722,7.6802,7.8564,7.9101,0.0,0.0,0.0,7.8481,8.0162,8.0699,8.1542,8.5299,9.3543,10.2785,11.0086,11.4809,11.8293,12.0766,12.279,12.4035,12.382,12.5215,12.6694,12.7471,12.7789,12.779,12.7324,12.7901,12.8301,12.8016,12.7416,12.7068,12.7703,12.6576,12.5911,12.6131,12.5622,12.5232,12.5208,12.6021,12.6126,12.5288,12.6106,12.61,12.5283,12.5031,12.5386,12.6693,12.4916,12.448,12.539,12.3426,12.3026,12.3969,12.2172,12.1767,12.2273,12.1283,12.0071,11.8906,11.9412,11.9381,11.9221,11.9824,12.0302,12.0813,12.0813,12.0813,12.0813,0.0,0.0,0.0,0.0,0.0,0.0,0.0,0.0,0.0,0.0,0.0,6.8931,6.8931,6.8165,6.7475,6.7011,6.7011,6.7167,6.7628,7.0092,7.2171,7.3785,7.5941,7.7462,7.8114,7.742,7.6995,0.0,0.0,0.0,0.0,8.5062,8.6698,0.0,0.0,0.0,0.0,0.0,0.0,8.0234,7.9901,8.0004,0.0,0.0,0.0,0.0,0.0,0.0,0.0,0.0,7.8946,7.8865,8.0697,0.0,0.0,0.0,7.9477,8.0771,8.841,9.5416,10.2488,11.0599,11.4315,11.6927,12.0137,12.238,12.3919,12.3889,12.5128,12.5984,12.577,12.5966,12.6093,12.5912,12.6592,12.6899,12.6312,12.5681,12.5618,12.6331,12.4911,12.4185,12.5074,12.4497,12.4322,12.4768,12.5134,12.5214,12.4763,12.5134,12.5214,12.4768,12.3791,12.367,12.4605,12.316,12.2933,12.3533,12.1926,12.1391,12.1991,12.0274,12.02,12.1191,12.0001,11.9222,11.8616,11.877,11.8861,11.9216,11.9676,12.0326,12.0813,12.0813,12.0813,12.0813,0.0,0.0,0.0,0.0,0.0,0.0,0.0,0.0,0.0,0.0,0.0,6.8391,6.8391,0.0,0.0,0.0,6.5862,6.6247,6.7018,6.8863,7.0477,7.1787,7.392,7.513,7.5265,7.544,7.5551,0.0,0.0,0.0,8.603,8.5857,8.7419,0.0,8.856,0.0,0.0,0.0,0.0,0.0,0.0,0.0,0.0,0.0,0.0,0.0,0.0,0.0,0.0,0.0,0.0,7.84,8.0468,7.9701,0.0,0.0,0.0,7.9743,8.9291,9.4558,9.9437,10.8163,11.2268,11.5131,11.8888,12.1604,12.3373,12.377,12.4695,12.5175,12.4173,12.468,12.5033,12.4492,12.5124,12.5468,12.4872,12.4196,12.4074,12.4905,12.3386,12.2831,12.402,12.3574,12.3505,12.4094,12.4397,12.4397,12.4174,12.4174,12.4099,12.3876,12.2385,12.1971,12.2624,12.1585,12.1273,12.1887,12.0519,12.0005,12.0297,11.888,11.8929,11.9822,11.8798,11.8272,11.8324,11.8322,11.8565,11.9216,11.9676,12.0326,12.0813,12.0813,12.0813,12.0813,0.0,0.0,0.0,0.0,0.0,0.0,0.0,0.0,0.0,0.0,0.0,6.8391,6.8391,6.7628,6.6787,6.5939,6.5862,6.6247,6.7018,6.7249,6.8401,7.086,7.1865,0.0,7.3334,7.4167,0.0,0.0,0.0,0.0,8.6867,8.6772,9.0241,9.6286,9.2231,8.9482,8.7664,0.0,0.0,0.0,0.0,0.0,0.0,0.0,0.0,0.0,0.0,0.0,0.0,0.0,0.0,0.0,0.0,7.8791,7.8018,0.0,0.0,0.0,8.3462,8.7962,9.297,10.0896,10.7506,11.2978,11.6384,11.968,12.2137,12.2108,12.3201,12.3973,12.3536,12.4619,12.4814,12.28,12.3115,12.361,12.3333,12.2788,12.2599,12.3303,12.2721,12.231,12.2385,12.2385,12.2385,12.2385,12.3122,12.3197,12.2533,12.2385,12.2088,12.127,12.0532,12.0263,12.0831,11.998,11.9927,12.0487,11.8517,11.8302,11.9478,11.8071,11.747,11.7581,11.747,11.7534,11.7506,11.8102,11.8565,11.9216,11.9676,12.0326,12.0813,12.0813,12.0813,12.0813,0.0,0.0,0.0,0.0,0.0,0.0,0.0,0.0,0.0,0.0,0.0,0.0,0.0,6.7628,6.6787,6.5939,6.6401,6.6556,6.6325,6.7321,6.8318,6.9239,7.1089,7.2189,7.2471,0.0,0.0,0.0,0.0,7.8098,8.4576,8.5472,8.9021,9.4376,9.177,8.9938,8.8568,8.3864,0.0,0.0,0.0,0.0,0.0,0.0,0.0,0.0,0.0,0.0,0.0,0.0,0.0,0.0,0.0,0.0,0.0,0.0,7.6957,7.8681,8.1934,8.5477,8.9755,9.634,10.2184,10.7305,11.092,11.5694,11.9468,11.9991,12.1603,12.2816,12.2688,12.3113,12.3326,12.2895,12.3098,12.333,12.3188,12.3022,12.2966,12.3198,12.2726,12.231,12.231,12.231,12.231,12.231,12.2608,12.2385,12.1573,12.1493,12.1201,12.0389,11.9476,11.913,11.9188,11.8487,11.8526,11.8979,11.7889,11.7738,11.8112,11.7569,11.738,11.738,11.738,11.738,11.7432,11.8107,11.8565,11.9216,11.9676,12.0326,12.0813,12.0813,12.0813,12.0813,0.0,0.0,0.0,0.0,0.0,6.9472,0.0,0.0,0.0,0.0,0.0,0.0,0.0,0.0,6.7632,6.6782,6.7244,6.7322,6.6782,6.7777,6.861,6.9199,7.1045,7.2145,7.2427,0.0,0.0,0.0,0.0,0.0,0.0,8.4241,8.7801,9.2618,9.0629,9.0244,0.0,0.0,0.0,8.2885,0.0,0.0,8.1904,0.0,0.0,0.0,0.0,0.0,0.0,0.0,0.0,0.0,0.0,0.0,0.0,0.0,0.0,0.0,8.0261,8.3182,8.7232,9.3667,9.7782,10.177,10.7926,11.2169,11.5382,11.7375,11.9723,12.1295,12.157,12.1821,12.2089,12.2833,12.29,12.29,12.29,12.29,12.29,12.29,12.2509,12.2189,12.1967,12.1908,12.1817,12.1595,12.1536,12.1276,12.0676,12.0373,11.9927,11.9115,11.85,11.8113,11.7964,11.7607,11.7607,11.7964,11.7597,11.738,11.738,11.738,11.738,11.7391,11.7622,11.7719,11.7695,11.8336,11.8935,11.9409,12.0005,12.0387,12.0813,12.0813,12.0813,12.0813,0.0,7.3469,7.3241,7.2402,7.0862,6.9781,0.0,0.0,0.0,0.0,0.0,0.0,0.0,0.0,0.0,6.8622,6.8545,6.8545,6.8468,6.8467,6.92,7.0739,7.157,7.2335,7.3107,0.0,0.0,0.0,0.0,0.0,0.0,0.0,8.6889,9.1551,8.9182,9.0402,9.3988,0.0,8.8693,8.7769,0.0,8.1135,8.2505,0.0,0.0,0.0,8.665,8.5881,0.0,8.2595,0.0,0.0,0.0,0.0,0.0,0.0,0.0,0.0,0.0,0.0,0.0,9.2577,9.4243,9.6787,10.7424,10.9102,10.9734,11.4192,11.7196,11.9313,12.0383,12.0818,12.1297,12.2093,12.2316,12.2316,12.2321,12.2316,12.2316,12.2321,12.2321,12.211,12.1413,12.1175,12.0931,12.0162,11.9985,11.9869,11.9874,11.9025,11.8192,11.7375,11.738,11.738,11.738,11.738,11.738,11.738,11.738,11.738,11.738,11.738,11.738,11.7417,11.7989,11.8284,11.8365,11.8873,11.9417,12.0002,12.0635,12.0813,12.0813,12.0813,12.0813,12.0813,7.2785,7.3551,7.4086,7.3241,7.2778,7.2241,0.0,0.0,0.0,0.0,0.0,0.0,0.0,0.0,0.0,7.1169,7.2241,7.2164,7.032,7.0726,7.13,7.1738,7.2372,7.3124,0.0,0.0,0.0,0.0,0.0,0.0,0.0,0.0,0.0,0.0,8.8716,8.8945,8.8637,8.4592,0.0,8.7689,8.2543,8.3618,0.0,0.0,0.0,0.0,0.0,8.9378,8.908,0.0,8.6036,8.3068,0.0,0.0,0.0,0.0,0.0,0.0,7.6681,0.0,0.0,0.0,0.0,0.0,9.5665,9.8507,10.1813,10.8394,11.1122,11.3613,11.759,11.9169,12.0115,12.0538,12.1493,12.237,12.252,12.2413,12.2067,12.1706,12.2174,12.1909,12.0485,12.0925,12.1009,12.0332,11.9985,11.9709,11.9276,11.8297,11.7598,11.738,11.738,11.738,11.738,11.738,11.738,11.738,11.738,11.738,11.738,11.738,11.738,11.7391,11.7582,11.8115,11.8891,11.9526,11.9824,12.0002,12.0635,12.0813,12.0813,12.0813,12.0813,12.0813,7.3399,7.432,7.5088,7.4626,7.4547,7.4474,0.0,0.0,0.0,0.0,0.0,0.0,0.0,0.0,0.0,0.0,7.5247,7.4861,7.2628,7.2553,7.2571,7.2534,7.2946,7.3776,0.0,0.0,0.0,0.0,0.0,0.0,0.0,0.0,0.0,0.0,8.5203,8.5662,0.0,0.0,0.0,0.0,8.4057,0.0,0.0,8.9223,9.0687,0.0,0.0,0.0,9.2739,9.1763,8.8785,0.0,0.0,0.0,0.0,0.0,0.0,0.0,0.0,0.0,0.0,8.3076,0.0,0.0,9.2372,9.4491,9.7203,10.4625,10.7637,11.0186,11.4479,11.6591,11.7915,11.8722,12.0225,12.1425,12.1562,12.1781,12.168,12.0987,12.1588,12.1508,11.9838,12.0,11.9967,11.9411,11.8985,11.8717,11.8405,11.7676,11.738,11.738,11.738,11.738,11.738,11.738,11.7232,11.6934,11.7226,11.7232,11.6934,11.7226,11.738,11.7411,11.7885,11.8529,11.9221,11.997,12.033,12.028,12.071,12.0616,12.0373,12.0373,12.0326,12.0094,0.0,7.5628,7.617,7.6399,7.6553,0.0,0.0,0.0,0.0,0.0,0.0,0.0,0.0,0.0,0.0,0.0,7.7936,7.709,7.5229,7.4233,0.0,0.0,7.3519,7.4433,0.0,0.0,0.0,0.0,0.0,0.0,0.0,0.0,0.0,0.0,8.047,8.1616,8.3374,0.0,0.0,8.4215,8.5962,8.8025,0.0,0.0,9.4593,9.5822,9.6605,9.6543,9.5804,9.4133,9.0344,0.0,0.0,0.0,0.0,0.0,7.9675,0.0,0.0,0.0,0.0,0.0,8.5305,0.0,9.3221,9.3958,9.4631,10.1389,10.4564,10.7277,11.0922,11.2923,11.4488,11.5671,11.7714,11.9374,12.0083,12.0774,12.1008,12.0219,12.0815,12.0728,11.9334,11.8765,11.848,11.8129,11.7722,11.7406,11.738,11.7306,11.7306,11.738,11.7306,11.7306,11.738,11.7306,11.6934,11.6192,11.6786,11.6791,11.6122,11.6934,11.7273,11.7407,11.8538,11.9063,11.9328,12.0319,12.0739,12.0739,12.0739,12.0397,11.9923,11.9923,11.9578,11.9328,7.6788,7.6942,7.7478,7.8858,8.0169,0.0,0.0,0.0,0.0,0.0,0.0,0.0,0.0,0.0,0.0,0.0,0.0,8.0298,7.7847,7.6768,0.0,0.0,7.5725,7.5902,7.5739,0.0,0.0,0.0,0.0,0.0,0.0,0.0,0.0,0.0,8.047,8.0009,7.9319,0.0,0.0,8.2452,8.4819,8.9635,9.5361,9.4593,9.6851,10.0311,9.8822,9.927,10.001,9.7143,9.4273,9.1003,0.0,0.0,0.0,8.004,0.0,0.0,0.0,0.0,0.0,0.0,8.7534,0.0,8.5797,8.8078,9.1625,9.3735,9.6093,9.941,10.4686,10.6989,10.7806,10.6766,11.0934,11.5603,11.9577,12.0327,12.0175,11.9622,12.0235,12.003,11.8178,11.8608,11.8593,11.778,11.7709,11.7582,11.7391,11.6786,11.6706,11.738,11.6791,11.6706,11.738,11.6791,11.642,11.6192,11.5677,11.5379,11.5305,11.6122,11.6715,11.7068,11.8065,11.8918,11.982,12.0013,12.0094,12.0094,12.0094,11.9879,11.9676,11.9676,11.9936,12.0089,7.7867,7.825,7.9092,8.0783,0.0,0.0,0.0,0.0,0.0,0.0,0.0,0.0,0.0,0.0,0.0,0.0,0.0,0.0,0.0,0.0,0.0,7.5636,7.5935,7.6501,7.7344,7.7793,0.0,0.0,0.0,0.0,0.0,0.0,0.0,0.0,0.0,0.0,0.0,0.0,8.2228,8.3372,8.7116,0.0,9.5362,9.5998,9.8375,10.1313,9.9992,10.0521,10.1327,9.7237,9.5638,0.0,8.8914,8.8003,8.8203,0.0,8.4689,8.6143,0.0,0.0,0.0,8.8055,8.8723,0.0,0.0,8.7815,8.9115,9.2912,9.3607,9.4957,9.9485,10.0975,10.1718,10.209,10.6265,11.069,11.3602,11.7383,11.9319,11.7605,11.8974,11.9323,11.7383,11.7864,11.8125,11.7566,11.7189,11.7133,11.7391,11.6632,11.6568,11.738,11.7009,11.7009,11.738,11.6563,11.5974,11.5602,11.5231,11.5008,11.5003,11.582,11.6706,11.7713,11.7923,11.8707,11.9772,11.971,11.939,11.9121,11.9463,11.9464,11.932,11.8971,11.9033,11.9038,7.8944,7.94,8.0321,8.2018,0.0,0.0,0.0,0.0,0.0,0.0,0.0,0.0,0.0,0.0,0.0,0.0,0.0,0.0,0.0,0.0,0.0,7.5838,7.5926,7.6809,7.8569,7.8175,0.0,0.0,0.0,0.0,0.0,0.0,0.0,0.0,0.0,0.0,0.0,0.0,0.0,8.5654,9.0027,9.2342,9.3526,9.668,9.9057,10.0678,10.0893,10.149,10.1597,9.7724,9.7185,9.7167,9.199,9.2046,0.0,0.0,0.0,0.0,0.0,0.0,0.0,9.2286,9.0945,8.9721,0.0,0.0,0.0,9.2836,9.238,9.2133,9.4878,9.5403,9.5997,9.7706,10.1894,10.5085,10.5195,11.2076,11.6466,11.4688,11.6578,11.75,11.6099,11.6189,11.6492,11.7017,11.6035,11.5787,11.6865,11.6266,11.6261,11.7078,11.7009,11.7083,11.738,11.6271,11.5528,11.5008,11.478,11.4777,11.4982,11.5865,11.7113,11.8363,11.8291,11.8786,11.9623,11.9403,11.8878,11.8315,11.8995,11.9001,11.8479,11.8366,11.8194,11.8034,8.0479,8.0242,8.0321,8.2018,0.0,0.0,0.0,0.0,0.0,0.0,0.0,0.0,0.0,0.0,0.0,0.0,0.0,0.0,8.7477,0.0,0.0,0.0,7.7339,0.0,7.5968,7.7258,0.0,0.0,0.0,0.0,0.0,0.0,0.0,0.0,7.8458,0.0,0.0,0.0,8.3749,8.8893,9.0977,9.1657,9.194,9.5945,9.8334,9.9825,10.2281,10.291,10.2626,10.2213,10.1674,10.0771,0.0,9.7338,9.706,9.3417,0.0,0.0,0.0,9.8226,10.0385,9.2653,9.6963,9.9717,8.7186,0.0,9.1993,8.7628,0.0,8.9908,9.1019,0.0,0.0,8.9685,9.5488,9.9195,9.6205,10.3103,10.8901,11.0192,11.1814,11.2837,11.2672,11.1889,11.2583,11.53,11.3414,11.3032,11.5172,11.5231,11.5528,11.6266,11.5597,11.5974,11.738,11.5231,11.4419,11.5008,11.427,11.4208,11.4689,11.6172,11.7526,11.8738,11.9388,11.9604,11.9496,11.9472,11.8967,11.8425,11.9117,11.8488,11.73,11.863,11.8934,11.8814,7.9327,7.9706,8.0321,8.2018,0.0,0.0,0.0,0.0,0.0,0.0,0.0,0.0,0.0,0.0,0.0,0.0,0.0,9.0297,0.0,0.0,0.0,0.0,0.0,0.0,0.0,7.9324,7.9018,0.0,7.7479,0.0,0.0,0.0,0.0,0.0,7.9947,0.0,8.4536,8.4779,8.6479,8.9145,9.1494,9.1606,9.1062,9.6679,9.9849,10.1513,10.3321,10.409,10.4065,10.2292,10.2367,10.2721,9.9612,9.9332,9.9704,9.6955,9.6838,9.7255,9.6174,9.9174,10.1417,9.6666,9.785,9.82,9.0464,8.8878,8.8796,8.7761,0.0,0.0,0.0,0.0,0.0,0.0,9.1913,9.4429,9.3114,9.7661,10.2484,10.6116,10.7219,10.8104,10.9134,10.9624,11.0373,11.1605,11.0692,11.0898,11.2794,11.3299,11.4111,11.5533,11.5231,11.53,11.5974,11.4483,11.3973,11.427,11.3368,11.3795,11.5315,11.598,11.7367,11.9427,11.8724,11.8665,11.9095,11.8187,11.7577,11.7502,11.802,11.7866,11.7619,11.851,11.8462,11.8221,7.8407,0.0,0.0,0.0,0.0,8.7399,0.0,0.0,0.0,0.0,0.0,0.0,10.1926,10.1297,0.0,0.0,0.0,9.5445,0.0,0.0,8.5361,0.0,0.0,0.0,0.0,0.0,0.0,0.0,0.0,0.0,0.0,0.0,0.0,0.0,0.0,8.4327,8.7162,8.8695,9.0243,9.1761,9.3793,9.426,9.4219,9.8124,10.1169,10.3515,10.4173,10.4897,10.5139,10.2796,10.3125,10.3967,10.15,10.1394,10.1887,10.0102,9.974,9.954,9.8173,10.0521,10.2398,9.8436,9.727,9.5895,9.1333,8.9058,8.8297,8.9354,8.9457,0.0,0.0,0.0,8.8719,0.0,0.0,9.1959,9.1653,9.3456,9.6472,10.0827,10.2478,10.4033,10.6129,10.6498,10.7103,10.8033,10.7274,10.7782,11.0193,11.1293,11.2626,11.427,11.4483,11.4785,11.5008,11.3973,11.3601,11.3824,11.3373,11.4023,11.547,11.6302,11.7817,11.9503,11.8714,11.8615,11.8832,11.7618,11.6977,11.6822,11.7216,11.7535,11.7677,11.8165,11.8067,11.7764,7.8484,7.9169,0.0,0.0,0.0,0.0,0.0,0.0,0.0,0.0,0.0,0.0,0.0,0.0,0.0,0.0,0.0,10.1885,10.1689,0.0,8.8945,0.0,0.0,8.1382,0.0,0.0,7.8326,7.7475,0.0,0.0,0.0,0.0,0.0,0.0,0.0,8.5844,8.7717,9.1344,9.5135,9.8872,9.8901,10.0792,10.3223,10.0338,10.1583,10.5131,10.5215,10.5215,10.5215,10.5071,10.5071,10.5131,10.4978,10.4463,10.3715,10.2805,10.3637,10.4234,10.2177,10.4689,10.5612,9.5653,9.5843,9.5926,8.6368,8.9512,9.3852,9.1575,9.5558,9.9014,9.7477,0.0,0.0,0.0,0.0,0.0,0.0,8.9991,9.0575,9.3464,9.7318,10.098,10.4068,10.1671,10.1469,10.5308,10.2687,10.2887,10.7518,10.9287,11.0922,11.2477,11.3373,11.4191,11.5008,11.3373,11.3007,11.3824,11.4567,11.4764,11.4664,11.7695,11.8921,11.8782,12.0068,11.993,11.8667,11.8671,11.7923,11.6872,11.7432,11.718,11.6808,11.7735,11.8081,11.8228,0.0,0.0,0.0,0.0,0.0,0.0,0.0,9.4474,0.0,0.0,0.0,0.0,0.0,11.3231,11.3491,0.0,0.0,10.848,10.3376,9.9437,0.0,0.0,0.0,8.729,0.0,0.0,8.19,7.9906,0.0,0.0,0.0,0.0,0.0,0.0,0.0,8.841,9.1009,9.5256,9.7748,9.8906,10.0294,10.3397,10.691,10.417,10.431,10.6097,10.6613,10.7212,10.7727,10.8326,10.8012,10.7436,10.722,10.6579,10.5923,10.5271,10.6069,10.6879,10.6076,10.8997,11.009,10.1198,10.0407,9.9251,8.9884,9.1319,9.3899,9.1475,9.5571,9.9154,9.7724,0.0,0.0,0.0,0.0,0.0,0.0,8.6936,8.7209,9.0384,9.4008,9.6663,9.7715,9.8029,9.8593,9.9731,9.9427,10.0622,10.3884,10.6293,10.8572,11.0485,11.1633,11.2477,11.3294,11.2779,11.2621,11.2923,11.322,11.4098,11.5409,11.6817,11.819,11.9526,11.9777,11.9606,11.9035,11.8093,11.7601,11.7286,11.68,11.6962,11.7582,11.8231,11.8066,11.7672,8.2683,0.0,0.0,0.0,0.0,0.0,0.0,0.0,0.0,0.0,10.7892,0.0,11.8536,0.0,11.8575,0.0,11.7773,11.3623,10.6605,10.4611,0.0,9.8225,9.5087,0.0,0.0,8.8878,8.5793,8.299,0.0,8.1028,0.0,0.0,0.0,0.0,0.0,8.9882,9.2556,9.8377,10.1026,10.1631,10.4165,10.7005,10.9269,10.7703,10.7567,10.8168,10.8314,10.8735,10.9324,10.9685,10.9422,10.8769,10.8711,10.807,10.7413,10.7131,10.7914,10.8807,10.8222,11.0609,11.1467,10.4681,10.3505,10.182,9.3598,9.54,9.7974,9.5258,9.9057,10.2792,10.2529,0.0,0.0,0.0,0.0,0.0,0.0,8.5376,8.6267,8.9017,9.1801,9.3907,9.4858,9.5447,9.5774,9.5616,9.586,9.7272,10.0079,10.352,10.6485,10.8768,11.0573,11.1885,11.2482,11.2477,11.2477,11.2477,11.3076,11.3934,11.502,11.6738,11.8114,11.9074,11.9705,11.9738,11.923,11.8198,11.7696,11.731,11.6809,11.7005,11.7615,11.789,11.7666,11.7418,8.5484,0.0,0.0,0.0,8.7216,0.0,0.0,0.0,10.4086,0.0,11.0636,11.5593,12.0936,12.073,12.1498,12.4617,12.1934,11.7422,11.1524,11.02,0.0,0.0,9.9784,9.8285,9.6612,9.3155,8.9834,0.0,0.0,0.0,0.0,0.0,0.0,0.0,8.8274,9.028,9.2204,10.0529,10.4983,10.6934,11.0276,11.1177,11.06,11.0666,11.108,11.1417,11.0194,10.9823,10.9788,10.9634,10.9473,10.9531,10.9521,10.8994,10.8309,10.8294,10.9413,11.0224,10.8989,10.9977,11.0428,10.6004,10.5133,10.3723,9.7434,10.1472,10.5726,10.2495,10.5887,10.9776,11.0965,10.7611,0.0,0.0,0.0,0.0,8.409,8.5227,8.7304,8.9017,9.0581,9.2504,9.519,9.3801,9.281,9.2959,9.2086,9.2971,9.6254,10.079,10.4622,10.7417,11.0377,11.2174,11.2482,11.2477,11.2477,11.2477,11.4111,11.4436,11.3528,11.7314,11.8472,11.7687,11.993,12.022,11.9119,11.9093,11.8179,11.6874,11.7333,11.7186,11.679,11.679,11.7064,11.738,8.5691,8.7206,8.8837,0.0,8.8926,8.9983,0.0,0.0,0.0,0.0,11.6631,12.1289,12.7593,12.7628,12.7271,12.7378,12.5086,0.0,0.0,0.0,0.0,10.8735,10.6601,10.4491,10.2462,9.7995,0.0,9.1714,0.0,0.0,8.6416,0.0,0.0,0.0,0.0,9.1316,9.2204,10.0529,10.6023,10.9321,11.1099,11.2434,11.3088,11.2169,11.3069,11.4593,11.2011,11.0976,11.0882,11.1269,11.1391,11.122,11.0967,11.0717,11.043,11.0419,11.1495,11.2665,11.2408,11.3909,11.4836,11.129,10.9625,10.7771,10.4404,10.6381,10.8668,10.7183,11.0305,11.223,10.8588,10.6472,10.3122,0.0,0.0,0.0,8.4391,8.4116,8.5157,8.8055,8.83,8.9232,9.1612,9.0423,8.9471,8.9385,8.9232,9.074,9.4281,9.815,10.1766,10.5272,10.8834,11.1232,11.2482,11.2477,11.2477,11.2477,11.2923,11.3602,11.462,11.6467,11.782,11.8825,12.0237,12.0408,11.9723,11.9332,11.8566,11.7925,11.7469,11.7294,11.7169,11.7169,11.7325,11.738,8.7223,0.0,0.0,9.2999,0.0,9.4939,9.8835,10.0886,0.0,11.3837,11.8778,0.0,12.7599,12.9406,12.9981,12.9128,12.6593,0.0,11.94,0.0,0.0,11.3197,11.1879,11.0364,10.84,10.3035,0.0,9.6554,0.0,0.0,8.8344,0.0,0.0,0.0,8.8942,9.1019,9.2282,10.1635,10.7784,11.139,11.2532,11.3362,0.0,11.3389,11.4087,11.5266,11.3512,11.2475,11.203,11.218,11.2168,11.2186,11.2424,11.2281,11.2322,11.2684,11.3424,11.4163,11.4615,11.5626,11.6208,11.4378,11.3288,11.1966,10.9617,11.0272,11.13,11.0487,11.1588,11.2073,11.0068,10.6207,10.0608,9.2717,0.0,0.0,8.4953,8.4878,8.5537,8.7315,8.7896,8.8228,8.8364,8.7974,8.7592,8.7133,8.8112,8.9329,9.0575,9.6194,10.0726,10.3475,10.7823,11.1026,11.2683,11.3135,11.3191,11.3076,11.3368,11.4188,11.5379,11.703,11.8173,11.9029,12.0274,12.028,11.9513,11.921,11.8593,11.791,11.7525,11.738,11.738,11.738,11.738,11.738,0.0,0.0,0.0,0.0,0.0,10.2161,10.4172,10.5536,10.8402,11.4428,0.0,12.4335,12.5503,12.8976,13.0868,12.9974,0.0,12.3878,12.0012,12.0876,11.9927,11.6105,11.6083,11.54,11.373,10.7712,10.3274,0.0,0.0,0.0,0.0,0.0,0.0,8.5528,8.8125,9.0589,9.3359,10.3311,10.9432,11.2588,11.381,11.4279,11.4337,11.4369,11.458,11.4768,11.4625,11.3784,11.2907,11.2676,11.2593,11.2729,11.3373,11.3587,11.3723,11.4372,11.4666,11.4965,11.5779,11.5999,11.5999,11.6066,11.6078,11.5491,11.3503,11.3728,11.4017,11.3277,11.2113,11.1526,11.2926,10.5799,9.7257,9.0014,8.8326,8.7445,8.6254,8.6826,8.7417,8.7533,8.8859,0.0,8.6199,8.6635,8.6632,8.5629,8.7408,8.7984,8.6889,9.4541,9.9886,10.1895,10.7132,11.0868,11.3108,11.3887,11.4122,11.3973,11.4716,11.53,11.5909,11.8036,11.8892,11.8813,12.0064,12.0067,11.908,11.9006,11.8398,11.738,11.738,11.738,11.738,11.738,11.738,11.7375,0.0,0.0,0.0,0.0,0.0,10.552,11.1066,11.4221,11.7633,12.2264,12.7475,13.1025,13.1694,13.2034,13.1632,12.997,12.8466,0.0,0.0,0.0,0.0,11.9209,11.8511,11.7407,11.5686,11.0688,10.6093,0.0,0.0,0.0,0.0,0.0,8.5747,8.4785,8.7906,9.2599,9.8467,10.4426,10.8378,11.0999,11.3203,11.4818,11.5679,11.511,11.5406,11.6176,11.4766,11.4195,11.4025,11.3706,11.3623,11.3596,11.3564,11.3587,11.3582,11.3808,11.431,11.4965,11.5779,11.5999,11.6219,11.6789,11.6507,11.6078,11.6275,11.7021,11.7535,11.7394,11.7088,11.5626,11.1379,10.2779,9.5044,9.1109,8.9286,8.8687,8.9503,8.9247,8.9526,9.1037,9.1066,9.0202,8.816,8.7264,8.5987,8.3964,8.4131,8.5064,8.697,9.1841,9.6595,10.0898,10.5888,10.9982,11.3089,11.3577,11.4197,11.4785,11.4929,11.5366,11.6183,11.7484,11.839,11.911,11.9788,11.9668,11.9125,11.8575,11.8008,11.738,11.738,11.738,11.738,11.738,11.738,11.7529,0.0,0.0,0.0,0.0,10.5789,11.1109,11.6668,12.1408,12.409,12.3893,12.65,12.8504,12.9028,13.0927,13.1564,13.0366,12.8963,12.7414,12.541,12.421,12.3282,12.2465,12.0819,11.9471,11.8813,11.3527,10.8688,10.4607,0.0,0.0,0.0,0.0,8.5153,8.4566,8.7474,9.2997,10.0298,10.3936,10.7628,11.137,11.3725,11.5209,11.5882,11.5501,11.5818,11.6193,11.5377,11.5236,11.5066,11.4587,11.4395,11.4372,11.4711,11.4824,11.4824,11.4824,11.5118,11.5479,11.5925,11.5999,11.6072,11.6507,11.6292,11.6213,11.7009,11.7523,11.7896,11.8263,11.7676,11.5332,10.9171,10.3298,9.8315,9.561,9.3506,9.2641,9.3653,9.2885,9.1924,9.1119,9.1589,9.0446,8.6486,8.6847,8.6233,8.3577,8.4425,8.5261,8.5708,8.982,9.4312,9.9025,10.3531,10.807,11.2709,11.4133,11.5012,11.5597,11.5597,11.6227,11.7263,11.8096,11.887,11.9513,11.9768,11.9582,11.9015,11.8188,11.7679,11.738,11.738,11.738,11.738,11.738,11.7677,11.7969,0.0,10.0781,0.0,10.7827,11.2413,11.6784,12.0984,12.6403,12.8687,12.5325,12.567,12.6406,12.6784,12.9865,13.1704,13.073,12.9569,12.8181,12.6403,12.5734,12.5214,12.4768,12.2762,12.1493,12.1424,11.6133,11.1011,0.0,0.0,9.4305,9.0261,0.0,8.5398,8.5365,8.8326,9.3565,10.0409,10.37,10.7767,11.2327,11.4466,11.5594,11.593,11.5887,11.5896,11.5999,11.5999,11.5999,11.5925,11.5332,11.5112,11.5191,11.5779,11.5999,11.5999,11.5999,11.5999,11.5993,11.6213,11.6066,11.6078,11.6434,11.6366,11.6428,11.7088,11.7529,11.767,11.7908,11.6721,11.4017,10.8217,10.5422,10.2989,10.0136,9.827,9.7291,9.768,9.7197,9.5507,9.1978,9.3007,9.1572,8.5585,8.6733,8.6695,8.3821,8.5142,8.5551,8.4506,8.8462,9.2672,9.6817,10.1481,10.6464,11.1769,11.4188,11.5737,11.6494,11.6409,11.6975,11.8003,11.8723,11.9185,11.9635,11.968,11.9426,11.8723,11.7815,11.738,11.738,11.738,11.738,11.738,11.738,11.79,11.8489,10.4071,10.6124,10.8299,11.1787,11.6984,12.1291,12.3006,12.7592,13.0811,13.0998,13.1688,13.217,13.1973,13.2525,13.2287,13.0709,13.0596,12.9587,12.7209,12.6986,12.6317,12.4917,12.3797,12.2899,12.2236,11.798,11.2784,10.673,10.2096,9.6375,8.9693,8.9091,8.8508,8.8137,9.2109,9.5802,9.9299,10.5316,10.9682,11.2917,11.489,11.6024,11.6328,11.6114,11.5989,11.5999,11.5999,11.5999,11.5999,11.5925,11.5925,11.5925,11.6005,11.5999,11.5999,11.5999,11.5999,11.6219,11.6868,11.658,11.6372,11.7828,11.7602,11.7083,11.7229,11.8336,11.8795,11.6665,11.5473,11.3785,11.0278,10.8883,10.667,10.1976,10.1693,10.1681,10.0735,10.1693,10.1082,9.7423,9.7798,9.5876,8.9309,8.8321,8.7014,8.448,8.3815,8.3863,8.4723,8.8305,9.1584,9.4243,10.0782,10.6074,11.01,11.3033,11.5409,11.7311,11.6989,11.699,11.7165,11.8199,11.8768,11.8784,11.9073,11.8613,11.7635,11.7427,11.738,11.738,11.738,11.738,11.738,11.738,11.79,11.8564,11.1082,11.1707,11.3504,11.8786,12.1127,12.3578,12.7716,13.0426,13.1967,13.2407,13.2432,13.2434,13.2263,13.1979,13.1513,13.0831,13.088,13.0113,12.8106,12.7821,12.7285,12.6317,12.4407,12.3203,12.2974,12.0129,11.5413,10.8734,10.4716,9.9143,9.2317,9.0344,9.0164,9.1531,9.4115,9.7786,10.2273,10.7328,11.0903,11.3316,11.5476,11.6731,11.7099,11.6482,11.6413,11.6721,11.6721,11.6434,11.6078,11.658,11.6434,11.5999,11.5999,11.5999,11.6072,11.658,11.6721,11.6868,11.7676,11.7682,11.7608,11.819,11.8195,11.7963,11.8483,11.9076,11.9529,11.9003,11.7902,11.6134,11.3424,11.1001,10.9176,10.8217,10.6308,10.4897,10.4919,10.3836,10.1535,9.7571,9.5247,9.2374,8.8299,8.6348,8.5687,8.6383,8.4424,8.38,8.5176,8.6398,8.9279,9.4234,9.8946,10.4084,10.9474,11.2983,11.5611,11.7385,11.7,11.7432,11.8305,11.837,11.8701,11.8921,11.8674,11.8234,11.738,11.738,11.738,11.738,11.738,11.738,11.7534,11.7895,11.8728,11.9439,11.7498,11.7394,11.8935,12.532,12.582,12.6822,13.1232,13.2274,13.2613,13.2714,13.25,13.2305,13.2224,13.1634,13.1302,13.1302,13.1015,13.0209,12.9021,12.8369,12.7889,12.7299,12.5234,12.3997,12.3865,12.1924,11.7836,11.1506,10.8126,10.289,9.6126,9.3141,9.3276,9.6133,9.7729,10.103,10.5805,10.9612,11.2282,11.4081,11.5878,11.6838,11.7071,11.6771,11.6724,11.6862,11.7382,11.7015,11.6507,11.7309,11.7168,11.658,11.6066,11.6219,11.6513,11.7003,11.7376,11.7676,11.8184,11.8416,11.8495,11.8709,11.8789,11.8777,11.9229,11.9376,11.9596,11.9811,11.893,11.7461,11.5473,11.313,11.1594,11.2328,10.9973,10.7923,10.7267,10.5285,10.2186,9.7929,9.4253,9.1023,8.8303,8.583,8.5382,8.7834,8.5622,8.4759,8.5957,8.5915,8.8387,9.379,9.8173,10.3307,10.9322,11.3011,11.572,11.7385,11.698,11.7371,11.8466,11.8291,11.8488,11.8891,11.8694,11.8298,11.7826,11.7826,11.7826,11.7672,11.7529,11.738,11.7529,11.8272,11.9131,11.9778,12.2324,12.3083,12.4791,13.0821,13.1569,13.1713,13.2362,13.268,13.2667,13.2505,13.2686,13.2736,13.2488,13.2333,13.2113,13.2113,13.1073,13.0408,12.9979,12.8832,12.7884,12.7617,12.6514,12.558,12.4768,12.3339,11.9979,11.4819,11.2413,10.771,10.1009,9.8356,9.8947,10.2291,10.3869,10.6221,10.8829,11.1898,11.4075,11.5503,11.6169,11.6216,11.6078,11.6868,11.6727,11.6219,11.7828,11.7902,11.7297,11.8116,11.8416,11.8122,11.6513,11.6495,11.7229,11.7229,11.7823,11.8416,11.8416,11.8416,11.8563,11.9382,11.9602,11.9382,11.8563,11.9003,11.9235,11.7602,11.7224,11.7015,11.6066,11.5332,11.4225,11.2695,11.2401,11.0928,10.6974,10.6386,10.4467,9.9685,9.6896,9.4175,9.0877,8.7815,8.6744,8.836,8.7312,8.6695,8.7071,8.7929,8.959,9.2115,9.8887,10.4705,10.9304,11.2603,11.532,11.7391,11.7118,11.6968,11.6996,11.7611,11.8022,11.8378,11.9108,11.9109,11.8564,11.8564,11.8564,11.8489,11.7677,11.738,11.7529,11.8272,11.9025,11.9572,12.689,12.7734,12.8829,13.1296,13.1621,13.1768,13.2587,13.2792,13.2814,13.2731,13.2566,13.2327,13.1732,13.2105,13.2128,13.1532,13.1022,13.0582,12.999,12.8832,12.8106,12.8123,12.6576,12.5407,12.4837,12.4095,12.1708,11.7687,11.467,10.993,10.347,10.2497,10.3711,10.6719,10.8118,11.0098,11.257,11.4672,11.5695,11.5933,11.5995,11.6429,11.6795,11.6507,11.658,11.7021,11.7969,11.7896,11.7376,11.8789,11.8862,11.8263,11.7828,11.7823,11.8116,11.8715,11.9003,11.9297,11.9878,12.0104,12.0184,12.0398,12.0477,12.0398,12.0184,11.9811,11.9303,11.8184,11.7602,11.7015,11.6066,11.5327,11.4587,11.4079,11.2695,11.0566,10.7635,10.4771,10.1472,9.7135,9.3524,9.0725,8.9119,8.8337,8.8659,9.0377,8.9212,8.8438,8.837,9.041,9.2667,9.5115,10.1109,10.6399,11.0572,11.3925,11.6176,11.7385,11.6985,11.7066,11.7377,11.7918,11.8168,11.8265,11.8119,11.8028,11.7826,11.7826,11.7826,11.7826,11.7529,11.738,11.7529,11.8272,11.8478,11.8574,12.9485,13.0214,13.0928,13.1929,13.2023,13.2106,13.2623,13.2781,13.2803,13.2714,13.2566,13.2424,13.1812,13.1875,13.1612,13.0708,13.041,13.0119,12.9629,12.8307,12.7821,12.8076,12.6981,12.5964,12.5288,12.4829,12.303,12.0033,11.5872,11.1918,10.8006,10.7184,10.8466,11.1477,11.1989,11.3482,11.5813,11.6209,11.6414,11.6428,11.6066,11.6287,11.6801,11.688,11.7015,11.7376,11.8777,11.8777,11.8416,11.9963,12.0037,11.9438,12.0025,12.0025,11.9811,12.0031,12.011,12.0324,12.1499,12.1572,12.1426,12.1713,12.1578,12.1211,12.063,11.9963,11.9303,11.8195,11.7823,11.7309,11.6219,11.5632,11.5265,11.5265,11.3198,11.0707,10.8012,10.3602,9.9333,9.5883,9.2423,9.0216,9.0078,9.0248,9.1137,9.3,9.2605,9.2158,9.1778,9.2554,9.4664,9.8296,10.3418,10.8103,11.2185,11.4934,11.6563,11.738,11.7127,11.7168,11.753,11.7818,11.8009,11.7984,11.7864,11.7905,11.7905,11.7905,11.7905,11.7821,11.7529,11.738,11.7513,11.8628,11.873,11.8594,13.0504,13.0875,13.1605,13.2598,13.2613,13.2466,13.2523,13.2578,13.2725,13.2477,13.2572,13.2703,13.2397,13.1698,13.0788,12.9833,12.9385,12.9077,12.8798,12.7484,12.6971,12.7573,12.7504,12.7022,12.5987,12.5316,12.3775,12.1536,11.6516,11.3983,11.3881,11.2396,11.3277,11.6078,11.5332,11.6208,11.819,11.6727,11.6495,11.7229,11.6513,11.6225,11.6292,11.7823,11.789,11.7596,12.0025,12.0404,11.989,12.1585,12.1725,12.1273,12.2814,12.282,12.2019,12.1285,12.1065,12.1426,12.2888,12.2827,12.2392,12.3108,12.2668,12.1811,12.011,11.967,11.9223,11.7596,11.7817,11.7823,11.6292,11.5999,11.6005,11.592,11.3796,11.1006,10.7787,10.2485,9.8144,9.5717,9.3455,9.2354,9.3157,9.3405,9.4168,9.5843,9.687,9.7213,9.6794,9.4872,9.6294,10.1565,10.58,10.9882,11.3894,11.5528,11.6717,11.738,11.738,11.738,11.738,11.738,11.738,11.7375,11.8197,11.8489,11.8489,11.8489,11.8489,11.8489,11.7677,11.7428,11.7684,11.8896,11.9232,11.9094,13.0737,13.1181,13.1681,13.2173,13.2391,13.2408,13.2224,13.2403,13.2471,13.223,13.2173,13.1967,13.1394,13.16,13.1285,12.9816,12.9015,12.8666,12.8809,12.7484,12.7198,12.7907,12.6627,12.5594,12.5388,12.4222,12.2621,12.0565,11.9265,11.821,11.732,11.6874,11.6801,11.6862,11.6716,11.693,11.7529,11.7088,11.7382,11.8116,11.7902,11.7823,11.7908,11.8269,11.8269,11.8416,12.0172,12.0771,12.0765,12.2527,12.2894,12.2814,12.3188,12.3188,12.2967,12.2814,12.2661,12.2814,12.3181,12.3188,12.3114,12.3334,12.3188,12.2827,12.1725,12.0991,12.0104,11.8489,11.7823,11.7162,11.6219,11.5999,11.5779,11.5185,11.2023,10.8505,10.5207,10.1027,9.7277,9.4855,9.4625,9.4694,9.4914,9.6321,9.7465,9.8004,9.8447,9.9454,10.1318,10.1991,10.2898,10.4314,10.8916,11.27,11.5602,11.6637,11.7232,11.738,11.738,11.738,11.738,11.738,11.738,11.738,11.7603,11.7677,11.7677,11.7677,11.7969,11.8489,11.7677,11.7901,11.8714,11.8634,11.8118,11.7605,13.0901,13.1308,13.1684,13.1913,13.1874,13.1919,13.1788,13.1978,13.2084,13.1874,13.2037,13.189,13.1519,13.1519,13.1079,12.9816,12.9477,12.9095,12.8495,12.7705,12.7187,12.7273,12.643,12.5922,12.581,12.4596,12.2724,12.0006,11.9632,11.8689,11.7314,11.7676,11.7823,11.767,11.767,11.819,11.8771,11.8116,11.819,11.893,11.8483,11.8636,11.9009,11.937,11.9816,12.033,12.1493,12.2013,12.2233,12.3402,12.3769,12.3922,12.4295,12.4576,12.4864,12.4864,12.4429,12.3916,12.4295,12.4362,12.4289,12.3916,12.4062,12.4001,12.2472,12.1805,12.0997,11.9303,11.8263,11.7529,11.6727,11.6213,11.5411,11.3497,11.0707,10.7409,10.3376,9.9632,9.6984,9.6034,9.6323,9.7341,9.9176,10.0274,10.108,10.1518,10.188,10.2727,10.4123,10.6567,10.7801,10.7509,11.1808,11.478,11.6192,11.7009,11.7831,11.8505,11.7836,11.7603,11.7895,11.7603,11.738,11.738,11.738,11.7603,11.79,11.7608,11.8128,11.9078,11.7964,11.8166,11.9111,11.8873,11.8513,11.8312,13.0763,13.1189,13.1613,13.1575,13.1492,13.1283,13.14,13.1472,13.1692,13.169,13.1862,13.2078,13.2113,13.149,13.0718,13.0129,13.0288,12.9786,12.8029,12.753,12.6914,12.6188,12.6064,12.6137,12.6134,12.5316,12.3192,11.9816,11.9009,11.7902,11.6812,11.7309,11.789,11.8563,11.8563,11.9376,12.0618,11.9297,11.9229,11.9664,11.9229,11.9382,12.0116,12.0771,12.1585,12.2392,12.3188,12.3475,12.3622,12.4362,12.4662,12.4809,12.5476,12.621,12.6705,12.6932,12.5971,12.5176,12.5923,12.5996,12.5696,12.5023,12.5329,12.5109,12.2986,12.2466,12.2031,12.019,11.9308,11.8489,11.7376,11.6495,11.4886,11.1724,10.9527,10.6596,10.1986,9.8893,9.7419,9.831,9.8751,10.0508,10.4399,10.4619,10.4777,10.5691,10.6071,10.6386,10.6437,11.0009,11.1724,11.1021,11.4468,11.6414,11.6568,11.7226,11.8282,11.971,11.8431,11.8123,11.8797,11.8128,11.7677,11.7603,11.7677,11.8092,11.8468,11.7869,11.8506,11.9681,11.8518,11.8522,11.9304,11.9476,11.9513,11.9612,13.0119,13.0729,13.1127,13.1283,13.1295,13.1418,13.1625,13.1516,13.1485,13.1996,13.1895,13.1791,13.2096,13.177,13.1479,13.1411,13.1123,12.9689,12.7191,12.5972,12.5267,12.5113,12.3705,12.3431,12.4785,12.3965,12.26,12.0697,11.9811,11.9676,12.0104,11.9523,11.9303,11.9376,11.9376,11.9602,11.9816,12.0324,12.0624,12.0691,12.1291,12.1585,12.1725,12.1884,12.2386,12.3181,12.3995,12.4289,12.4436,12.5176,12.5476,12.547,12.5702,12.5769,12.599,12.6711,12.7225,12.7605,12.7672,12.7225,12.6711,12.6565,12.613,12.5402,12.4374,12.4068,12.3493,12.1211,12.0618,11.9805,11.7596,11.6495,11.4886,11.1724,10.8127,10.4535,10.1022,9.9475,9.9255,10.0811,10.27,10.5269,10.8731,10.7781,10.7983,11.0314,10.947,10.9371,11.0774,11.3784,11.5292,11.4872,11.639,11.7524,11.8192,11.842,11.8489,11.8792,11.9333,11.9566,11.971,11.9566,11.9105,11.8495,11.9184,11.8881,11.8125,11.8568,11.9219,11.9582,11.8595,11.8892,11.9809,11.9735,11.9297,11.9217,13.0624,13.082,13.089,13.1102,13.1008,13.0877,13.0991,13.1108,13.1208,13.1375,13.1504,13.1485,13.1692,13.1595,13.1294,13.0924,13.0501,12.9492,12.7818,12.6968,12.6017,12.4693,12.4295,12.4228,12.4515,12.3267,12.2092,12.0912,12.0037,11.9596,11.9596,11.9602,11.9602,11.9596,12.011,12.033,12.0324,12.0691,12.1217,12.1505,12.1511,12.2233,12.3261,12.29,12.3487,12.4735,12.5537,12.583,12.5904,12.6718,12.7311,12.7599,12.7085,12.7605,12.8333,12.8173,12.81,12.8186,12.8614,12.8473,12.81,12.7672,12.7599,12.7225,12.547,12.547,12.5096,12.2674,12.1793,12.1065,11.9517,11.7823,11.5626,11.2396,10.8421,10.4829,10.1971,10.087,10.1174,10.3219,10.6009,10.8793,11.1678,11.0986,11.0897,11.2401,11.1837,11.1914,11.2905,11.5284,11.7069,11.7986,11.8537,11.9322,12.0591,11.9694,11.9694,12.0591,12.0081,12.0081,12.0522,11.9813,11.9163,11.8925,11.8967,11.9026,11.8803,11.8724,11.9419,12.0429,11.9178,11.9529,12.0407,12.0224,11.9889,11.99,13.0931,13.0903,13.0831,13.0831,13.0591,13.0475,13.0613,13.0668,13.0881,13.1008,13.1078,13.119,13.1338,13.1203,13.1024,13.028,12.9964,12.9519,12.8703,12.83,12.7085,12.4888,12.5029,12.4815,12.4007,12.268,12.1725,12.0912,12.0037,11.9382,11.9003,11.9376,11.967,11.989,12.0618,12.0912,12.0912,12.1132,12.1426,12.1805,12.1364,12.2386,12.4221,12.3469,12.4295,12.5776,12.6424,12.6705,12.7005,12.7592,12.8406,12.8907,12.8333,12.8914,12.9868,12.9415,12.8987,12.8767,12.9421,12.9408,12.9201,12.8473,12.8694,12.8461,12.6724,12.6711,12.6485,12.4289,12.342,12.2533,12.1211,11.8997,11.6428,11.2989,10.9312,10.6161,10.388,10.3229,10.389,10.6512,10.9171,11.1899,11.4468,11.4101,11.3982,11.4364,11.4311,11.4508,11.5118,11.6704,11.837,12.0131,12.0224,12.083,12.2013,12.083,12.083,12.2013,12.0984,12.083,12.1328,12.0169,11.9571,11.9395,11.9038,11.9128,11.9387,11.8862,11.9362,12.0387,11.959,11.9693,12.0182,12.0389,12.0388,12.0412,13.03,13.0494,13.0481,13.0481,13.0468,13.0613,13.0776,13.0709,13.0668,13.1172,13.1108,13.0978,13.132,13.1115,13.0884,13.0804,13.0569,13.0114,12.93,12.8486,12.7391,12.5702,12.4215,12.3114,12.2319,12.2178,12.1725,12.0912,12.0037,11.9963,12.0691,11.9969,12.0031,12.0765,12.0918,12.0912,12.0906,12.1725,12.1578,12.0979,12.1725,12.2606,12.3402,12.3322,12.4295,12.5702,12.5776,12.6283,12.6925,12.7005,12.7519,12.8192,12.8113,12.8192,12.8406,12.9128,12.9788,13.0302,13.0382,12.9862,12.9274,12.9195,12.8694,12.8106,12.7972,12.7972,12.7525,12.5923,12.5482,12.4521,12.1505,11.9517,11.7021,11.2977,11.0272,10.7986,10.6386,10.668,10.8295,11.152,11.2695,11.461,11.7676,11.732,11.7197,11.7978,11.7597,11.7693,11.8694,11.8904,11.9684,12.1096,12.1002,12.1127,12.1201,12.1127,12.1127,12.1201,12.179,12.2167,12.222,12.1575,12.09,12.0207,12.0526,11.9883,11.891,11.9579,11.9315,11.8397,11.9184,11.8974,11.8508,11.999,12.0067,11.9897,13.0389,13.0529,13.0529,13.0529,13.0529,13.0481,13.0591,13.06,13.0606,13.0818,13.0674,13.0722,13.0831,13.0668,13.0684,13.0684,13.0594,13.0382,13.0088,12.9281,12.7666,12.5109,12.3414,12.2386,12.2098,12.2098,12.1725,12.0912,12.1572,12.1793,12.1572,12.1291,12.1285,12.1578,12.1132,12.0912,12.0912,12.1205,12.1511,12.1731,12.2025,12.2906,12.3989,12.3989,12.4729,12.5769,12.6797,12.7091,12.7078,12.8106,12.8614,12.8828,12.8828,12.9207,12.9575,13.0015,13.0309,13.0529,13.0529,13.0309,13.0002,13.0002,12.9795,12.9508,12.8987,12.9201,12.9134,12.7525,12.7164,12.6504,12.4301,12.2092,11.9896,11.7326,11.4017,11.1605,11.1023,11.1085,11.1972,11.3717,11.5479,11.71,11.8269,11.833,11.827,11.8564,11.8877,11.9111,11.9122,11.9526,12.0281,12.1679,12.1501,12.133,12.133,12.1718,12.1785,12.1785,12.2167,12.2608,12.3026,12.2234,12.1627,12.1285,12.0805,12.0116,11.9277,11.9574,11.9663,11.9565,11.978,11.9806,11.9583,12.0092,12.0077,11.9964,13.0535,13.0529,13.0529,13.0529,13.0529,13.0529,13.0529,13.0529,13.0529,13.0529,13.0529,13.0529,13.0529,13.0529,13.0529,13.0529,13.0529,13.0529,13.0529,12.9708,12.81,12.5396,12.3493,12.2606,12.2827,12.2606,12.2233,12.1725,12.282,12.2961,12.2533,12.2533,12.2533,12.2466,12.1866,12.1725,12.1725,12.1725,12.2019,12.2533,12.2533,12.3267,12.4515,12.4515,12.5029,12.5923,12.7225,12.7519,12.7519,12.8828,12.9495,12.9715,12.9715,13.0088,13.0529,13.0529,13.0529,13.0529,13.0529,13.0529,13.0529,13.0529,13.0529,13.0389,12.9788,13.0082,13.0088,12.8773,12.848,12.7966,12.643,12.4301,12.2166,12.033,11.7479,11.5417,11.5118,11.5118,11.5485,11.658,11.7896,11.893,11.9229,11.9382,11.9476,11.9476,11.9696,11.9698,11.9264,12.0369,12.1379,12.1933,12.1685,12.1588,12.1819,12.21,12.2385,12.2682,12.2682,12.2979,12.3472,12.2782,12.2434,12.2091,12.1092,12.0321,11.978,11.978,11.9806,11.9923,12.0023,11.9975,11.9929,12.0117,12.0207,12.0188,13.0302,13.0529,13.0529,13.0529,13.0529,13.0529,13.0529,13.0529,13.0529,13.0529,13.0529,13.0529,13.0529,13.0529,13.0529,13.0529,13.0529,13.0529,13.0529,12.9708,12.8614,12.7005,12.4576,12.3701,12.4515,12.3695,12.3328,12.3328,12.3328,12.3322,12.3328,12.3328,12.3328,12.3328,12.3328,12.3328,12.3328,12.3328,12.3328,12.3328,12.3328,12.3769,12.4515,12.4509,12.5029,12.5769,12.6632,12.7366,12.8186,12.8974,12.9782,13.0529,13.0529,13.0529,13.0529,13.0529,13.0529,13.0529,13.0529,13.0529,13.0529,13.0529,13.0529,13.0529,13.0529,13.0529,13.0309,12.9495,12.9268,12.8828,12.7219,12.561,12.3701,12.1279,12.0184,11.9297,11.8483,11.841,11.9076,12.0691,12.0104,11.9969,12.0765,12.0912,12.0912,12.0912,12.011,11.9596,11.9596,12.21,12.3034,12.1798,12.1615,12.1867,12.2372,12.2307,12.2677,12.3494,12.3494,12.3494,12.3467,12.3621,12.3206,12.2366,12.1583,12.0788,12.0132,12.0132,11.9476,11.8612,11.9673,11.9476,11.873,11.9979,12.0289,12.0207,13.0535,13.0529,13.0529,13.0529,13.0976,13.1203,13.0602,13.0976,13.1116,13.0609,13.0529,13.0529,13.0529,13.0529,13.0529,13.0529,13.0529,13.0529,13.0529,12.9207,12.8473,12.8614,12.6277,12.4595,12.3701,12.3995,12.3922,12.3328,12.4436,12.4735,12.4062,12.4062,12.4062,12.4062,12.4062,12.3769,12.3322,12.3922,12.3769,12.3402,12.4509,12.5102,12.5476,12.6571,12.7164,12.7525,12.832,12.84,12.8186,12.8974,12.9495,12.9795,13.0302,13.0529,13.0529,13.0529,13.0529,13.0529,13.0529,13.0529,13.0529,13.0529,13.0529,13.0529,13.0529,13.0529,13.0376,13.0229,13.0082,12.9788,12.8834,12.7299,12.561,12.3701,12.2668,12.1866,12.1065,12.1505,12.1793,12.1719,12.1511,12.1211,12.0912,12.1432,12.1725,12.1725,12.2013,12.2233,12.2233,12.2796,12.3132,12.3034,12.2784,12.3315,12.4431,12.2571,12.1965,12.2682,12.2513,12.3023,12.4113,12.2982,12.2709,12.2912,12.1703,12.0883,12.0418,12.0418,12.0334,12.02,12.0309,12.0229,11.9935,12.0111,12.0201,12.0096,13.0529,13.0529,13.0529,13.0529,13.0902,13.1123,13.0609,13.0896,13.1129,13.0609,13.0529,13.0529,13.0529,13.0529,13.0529,13.0529,13.0529,13.0529,13.0529,12.9581,12.9128,12.9268,12.7886,12.6424,12.4803,12.517,12.5163,12.4723,12.569,12.613,12.591,12.591,12.591,12.591,12.591,12.5696,12.5163,12.5684,12.561,12.5317,12.6283,12.6571,12.6804,12.7672,12.8113,12.8186,12.8981,12.8981,12.8694,12.9495,12.9788,12.9862,13.0302,13.0676,13.0976,13.0976,13.119,13.1397,13.1397,13.119,13.0976,13.0976,13.0676,13.0529,13.0529,13.0529,13.0529,13.0529,13.0529,13.0389,12.9862,12.8687,12.7292,12.5684,12.5017,12.4283,12.3194,12.3487,12.3628,12.312,12.2466,12.1872,12.1432,12.1805,12.2166,12.2612,12.3334,12.3622,12.3322,12.37,12.3988,12.4001,12.3671,12.4008,12.4974,12.2808,12.2121,12.299,12.2378,12.268,12.371,12.2997,12.2666,12.2813,12.1933,12.1188,12.0694,12.0694,12.0719,12.0676,12.0603,12.0688,12.0877,12.0417,12.0503,12.0913,13.0529,13.0529,13.0529,13.0529,13.0609,13.0602,13.0529,13.0609,13.0602,13.0529,13.0529,13.0529,13.0529,13.0529,13.0529,13.0529,13.0529,13.0529,13.0529,13.0529,13.0235,12.9408,12.9415,12.8687,12.7072,12.6999,12.6999,12.6999,12.6999,12.7372,12.8113,12.8113,12.8113,12.8113,12.8192,12.8192,12.8113,12.8192,12.8192,12.8113,12.8192,12.8186,12.8186,12.8333,12.8333,12.8406,12.9121,12.9415,12.9488,13.0309,13.0529,13.0529,13.0602,13.1136,13.1669,13.1797,13.2304,13.2898,13.2805,13.2297,13.1717,13.1563,13.0969,13.0529,13.0529,13.0529,13.0529,13.0529,13.0529,13.0529,13.0529,12.9782,12.8828,12.7299,12.6919,12.6418,12.4803,12.4589,12.4589,12.4515,12.32,12.2319,12.2166,12.2319,12.26,12.3481,12.4215,12.4295,12.3628,12.4888,12.5409,12.4589,12.4425,12.4379,12.479,12.2991,12.2695,12.3877,12.282,12.2525,12.2797,12.3209,12.3108,12.2366,12.2128,12.1585,12.0912,12.0912,12.0785,12.0499,12.0499,12.1005,12.1505,12.0792,12.1171,12.1878,13.0529,13.0529,13.0529,13.0529,13.0969,13.1196,13.0602,13.0969,13.1196,13.0602,13.0529,13.0529,13.0529,13.0529,13.0529,13.0529,13.0529,13.0529,13.0529,13.0529,13.0382,13.0222,13.0229,12.9795,12.8828,12.8186,12.7813,12.7813,12.7813,12.7892,12.8113,12.8113,12.8113,12.8113,12.8767,12.8694,12.8106,12.8767,12.8694,12.8192,12.8761,12.8974,12.9128,12.9715,13.0021,13.0015,13.0235,13.0229,13.0309,13.0376,13.0529,13.0602,13.119,13.1706,13.2129,13.2497,13.2882,13.3006,13.2209,13.1783,13.149,13.0896,13.0602,13.0529,13.0529,13.0529,13.0529,13.0529,13.0529,13.0529,13.0529,12.9782,12.8981,12.8033,12.7299,12.6571,12.5623,12.5402,12.5182,12.4595,12.4221,12.3701,12.3114,12.3628,12.4295,12.5102,12.5323,12.5409,12.5182,12.5476,12.5623,12.5396,12.542,12.5078,12.4601,12.3315,12.2808,12.2979,12.2009,12.183,12.2534,12.177,12.173,12.2104,12.1535,12.1065,12.0912,12.0912,12.0882,12.0827,12.0827,12.0901,12.1127,12.0907,12.1022,12.1132,13.0529,13.0529,13.0529,13.0529,13.0816,13.1116,13.1123,13.1123,13.1123,13.1123,13.0676,13.0529,13.0529,13.0529,13.0529,13.0529,13.0529,13.0529,13.0529,13.0529,13.0529,13.0529,13.0529,13.0309,12.9862,12.9508,12.9067,12.8694,12.8694,12.892,12.9207,12.9207,12.9207,12.9287,12.9721,12.9568,12.9287,12.9715,12.9568,12.9287,12.9715,12.9862,12.9929,13.0302,13.0529,13.0529,13.0529,13.0529,13.0609,13.0896,13.1123,13.1116,13.157,13.2322,13.3088,13.3603,13.4068,13.44,13.4032,13.3282,13.2507,13.2017,13.1317,13.069,13.0481,13.0529,13.0529,13.0529,13.0529,13.0529,13.0529,13.0235,12.9568,12.8761,12.832,12.7586,12.6418,12.6283,12.599,12.5182,12.4729,12.4289,12.3922,12.4295,12.4809,12.5623,12.5702,12.5702,12.5702,12.5702,12.5702,12.5702,12.5702,12.5329,12.4515,12.3572,12.29,12.2493,12.1429,12.1222,12.1691,12.1113,12.1132,12.1505,12.1065,12.0697,12.033,12.0691,12.0697,12.0324,12.0691,12.1132,12.1426,12.0979,12.0912,12.0912,13.0529,13.0529,13.0529,13.0529,13.0529,13.0676,13.1416,13.0896,13.0676,13.1416,13.0896,13.0529,13.0529,13.0529,13.0529,13.0529,13.0529,13.0529,13.0529,13.0529,13.0529,13.0529,13.0529,13.0529,13.0529,13.0529,13.0235,12.9488,12.9488,12.9782,13.0529,13.0529,13.0529,13.0529,13.0529,13.0529,13.0529,13.0529,13.0529,13.0529,13.0529,13.0529,13.0529,13.0529,13.0529,13.0529,13.0529,13.0602,13.0823,13.163,13.193,13.193,13.2084,13.3071,13.4319,13.4577,13.529,13.591,13.587,13.4833,13.3633,13.3276,13.2113,13.0865,13.0722,13.0632,13.06,13.06,13.06,13.06,13.06,13.0481,13.0235,12.9195,12.9128,12.8461,12.6925,12.6711,12.6418,12.5776,12.5109,12.4735,12.4735,12.4735,12.5035,12.5623,12.5702,12.5702,12.5702,12.5702,12.5702,12.5702,12.5702,12.5176,12.4295,12.3622,12.2814,12.1872,12.1,12.0712,12.0912,12.0912,12.0912,12.0912,12.0912,12.0477,11.9896,12.0618,12.0477,11.9896,12.0618,12.1285,12.1805,12.1132,12.0912,12.0912,13.0529,13.0529,13.0529,13.0529,13.0529,13.0522,13.0596,13.0609,13.0522,13.0596,13.0609,13.0529,13.0529,13.0529,13.0529,13.0529,13.0529,13.0529,13.0529,13.0529,13.0529,13.0529,13.0529,13.0529,13.0529,13.0529,13.0376,13.0302,13.0302,13.0382,13.0529,13.0529,13.0529,13.0529,13.0529,13.0529,13.0529,13.0529,13.0529,13.0529,13.0529,13.0529,13.0529,13.0529,13.0529,13.0529,13.0529,13.0896,13.1717,13.2511,13.2718,13.2878,13.3619,13.4084,13.461,13.5121,13.5706,13.597,13.5119,13.4337,13.3529,13.2772,13.1873,13.1196,13.1165,13.0972,13.0789,13.0789,13.0789,13.0789,13.0789,13.069,13.0015,12.848,12.8333,12.7672,12.6063,12.5923,12.5769,12.5696,12.5623,12.547,12.547,12.547,12.5629,12.5702,12.5702,12.5702,12.5702,12.5702,12.5702,12.5702,12.5702,12.5035,12.3475,12.3408,12.2515,12.1065,12.0876,12.0882,12.0912,12.0912,12.0912,12.0912,12.0912,12.0765,12.0691,12.0918,12.0765,12.0691,12.0918,12.0991,12.0979,12.0912,12.0912,12.0912,13.0529,13.0529,13.0596,13.1123,13.0823,13.0976,13.2291,13.1416,13.0816,13.1697,13.1116,13.0529,13.0529,13.0529,13.0529,13.0529,13.0896,13.0976,13.0522,13.0896,13.0976,13.0522,13.0529,13.0529,13.0529,13.0529,13.0529,13.0529,13.0529,13.0529,13.0529,13.0529,13.0529,13.0529,13.0529,13.0529,13.0529,13.0529,13.0529,13.0529,13.0529,13.0529,13.0529,13.0529,13.0829,13.127,13.2217,13.2518,13.2511,13.3319,13.3612,13.3606,13.3986,13.4506,13.4986,13.5026,13.5535,13.5998,13.5304,13.4987,13.4778,13.4185,13.3371,13.2618,13.2486,13.1978,13.1368,13.0999,13.0812,13.0709,13.0709,13.0613,13.0315,12.9581,12.9428,12.892,12.7311,12.7011,12.6724,12.5769,12.5702,12.5702,12.5702,12.5702,12.5702,12.5702,12.5702,12.5702,12.5702,12.5702,12.5702,12.5702,12.5702,12.4882,12.3322,12.3328,12.2521,12.0912,12.0912,12.0912,12.0912,12.0912,12.0912,12.0912,12.0912,12.0618,12.0178,12.0697,12.0618,12.0178,12.0691,12.0912,12.0912,12.0912,12.0912,12.0912]},{"header":{"parameterUnit":"m.s-1","parameterCategory":1,"la1":30.6,"la2":28.766,"lo1":-90.7593,"lo2":-88.6598,"dy":0.0162,"dx":0.0183,"nx":116,"ny":114,"refTime":"2024-02-16T06:00:00:Z","depth":0,"parameterNumber":3,"parameterNumberName":"V-component_of_WINDS"},"data":[0.0,0.0,0.0,0.0,0.0,0.0,0.0,0.0,0.0,0.0,0.0,0.0,0.0,0.0,0.0,0.0,0.0,0.0,0.0,0.0,0.0,0.0,0.0,0.0,0.0,0.0,0.0,0.0,0.0,0.0,0.0,0.0,0.0,0.0,0.0,0.0,0.0,0.0,0.0,0.0,0.0,0.0,0.0,0.0,0.0,0.0,0.0,0.0,0.0,0.0,0.0,0.0,0.0,0.0,0.0,0.0,0.0,0.0,0.0,0.0,0.0,0.0,0.0,0.0,0.0,0.0,0.0,0.0,0.0,0.0,0.0,0.0,0.0,0.0,0.0,0.0,0.0,0.0,0.0,0.0,0.0,0.0,0.0,0.0,0.0,0.0,0.0,0.0,0.0,0.0,0.0,0.0,0.0,0.0,0.0,0.0,0.0,0.0,0.0,0.0,0.0,0.0,0.0,0.0,0.0,0.0,0.0,0.0,0.0,0.0,0.0,0.0,0.0,0.0,0.0,0.0,0.0,0.0,0.0,0.0,0.0,0.0,0.0,0.0,0.0,0.0,0.0,0.0,0.0,0.0,0.0,0.0,0.0,0.0,0.0,0.0,0.0,0.0,0.0,0.0,0.0,0.0,0.0,0.0,0.0,0.0,0.0,0.0,0.0,0.0,0.0,0.0,0.0,0.0,0.0,0.0,0.0,0.0,0.0,0.0,0.0,0.0,0.0,0.0,0.0,0.0,0.0,0.0,0.0,0.0,0.0,0.0,0.0,0.0,0.0,0.0,0.0,0.0,0.0,0.0,0.0,0.0,0.0,0.0,0.0,0.0,0.0,0.0,0.0,0.0,0.0,0.0,0.0,0.0,0.0,0.0,0.0,0.0,0.0,0.0,0.0,0.0,0.0,0.0,0.0,0.0,0.0,0.0,0.0,0.0,0.0,0.0,0.0,0.0,0.0,0.0,0.0,0.0,0.0,0.0,0.0,0.0,0.0,0.0,0.0,0.0,0.0,0.0,0.0,0.0,0.0,0.0,0.0,0.0,0.0,0.0,0.0,0.0,0.0,0.0,0.0,0.0,0.0,0.0,0.0,0.0,0.0,0.0,0.0,0.0,0.0,0.0,0.0,0.0,0.0,0.0,0.0,0.0,0.0,0.0,0.0,0.0,0.0,0.0,0.0,0.0,0.0,0.0,0.0,0.0,0.0,0.0,0.0,0.0,0.0,0.0,0.0,0.0,0.0,0.0,0.0,0.0,0.0,0.0,0.0,0.0,0.0,0.0,0.0,0.0,0.0,0.0,0.0,0.0,0.0,0.0,0.0,0.0,0.0,0.0,0.0,0.0,0.0,0.0,0.0,0.0,0.0,0.0,0.0,0.0,0.0,0.0,0.0,0.0,0.0,0.0,0.0,0.0,0.0,0.0,0.0,0.0,0.0,0.0,0.0,0.0,0.0,0.0,0.0,0.0,0.0,0.0,0.0,0.0,0.0,0.0,0.0,0.0,0.0,0.0,0.0,0.0,0.0,0.0,0.0,0.0,0.0,0.0,0.0,0.0,0.0,0.0,0.0,0.0,0.0,0.0,0.0,0.0,0.0,0.0,0.0,0.0,0.0,0.0,0.0,0.0,0.0,0.0,0.0,0.0,0.0,0.0,0.0,0.0,0.0,0.0,0.0,0.0,0.0,0.0,0.0,0.0,0.0,0.0,0.0,0.0,0.0,0.0,0.0,0.0,0.0,0.0,0.0,0.0,0.0,0.0,0.0,0.0,0.0,0.0,0.0,0.0,0.0,0.0,0.0,0.0,0.0,0.0,0.0,0.0,0.0,0.0,0.0,0.0,0.0,0.0,0.0,0.0,0.0,0.0,0.0,0.0,0.0,0.0,0.0,0.0,0.0,0.0,0.0,0.0,0.0,0.0,0.0,0.0,0.0,0.0,0.0,0.0,0.0,0.0,0.0,0.0,0.0,0.0,0.0,0.0,0.0,0.0,0.0,0.0,0.0,0.0,0.0,0.0,0.0,0.0,0.0,0.0,0.0,0.0,0.0,0.0,0.0,0.0,0.0,0.0,0.0,0.0,0.0,0.0,0.0,0.0,0.0,0.0,0.0,0.0,0.0,0.0,0.0,0.0,0.0,0.0,0.0,0.0,0.0,0.0,0.0,0.0,0.0,0.0,0.0,0.0,0.0,0.0,0.0,0.0,0.0,0.0,0.0,0.0,0.0,0.0,0.0,0.0,0.0,0.0,0.0,0.0,0.0,0.0,0.0,0.0,0.0,0.0,0.0,0.0,0.0,0.0,0.0,0.0,0.0,0.0,0.0,0.0,0.0,0.0,0.0,0.0,0.0,0.0,0.0,0.0,0.0,0.0,0.0,0.0,0.0,0.0,0.0,0.0,0.0,0.0,0.0,0.0,0.0,0.0,0.0,0.0,0.0,0.0,0.0,0.0,0.0,0.0,0.0,0.0,0.0,0.0,0.0,0.0,0.0,0.0,0.0,0.0,0.0,0.0,0.0,0.0,0.0,0.0,0.0,0.0,0.0,0.0,0.0,0.0,0.0,0.0,0.0,0.0,0.0,0.0,0.0,0.0,0.0,0.0,0.0,0.0,0.0,0.0,0.0,0.0,0.0,0.0,0.0,0.0,0.0,0.0,0.0,0.0,0.0,0.0,0.0,0.0,0.0,0.0,0.0,0.0,0.0,0.0,0.0,0.0,0.0,0.0,0.0,0.0,0.0,0.0,0.0,0.0,0.0,0.0,0.0,0.0,0.0,0.0,0.0,0.0,0.0,0.0,0.0,0.0,0.0,0.0,0.0,0.0,0.0,0.0,0.0,0.0,0.0,0.0,0.0,0.0,0.0,0.0,0.0,0.0,0.0,0.0,0.0,0.0,0.0,0.0,0.0,0.0,0.0,0.0,0.0,0.0,0.0,0.0,0.0,0.0,0.0,0.0,0.0,0.0,0.0,0.0,0.0,0.0,0.0,0.0,0.0,0.0,0.0,0.0,0.0,0.0,0.0,0.0,0.0,0.0,0.0,0.0,0.0,0.0,0.0,0.0,0.0,0.0,0.0,0.0,0.0,0.0,0.0,0.0,0.0,0.0,0.0,0.0,0.0,0.0,0.0,0.0,0.0,0.0,0.0,0.0,0.0,0.0,0.0,0.0,0.0,0.0,0.0,0.0,0.0,0.0,0.0,0.0,0.0,0.0,0.0,0.0,0.0,0.0,0.0,0.0,0.0,0.0,0.0,0.0,0.0,0.0,0.0,0.0,0.0,0.0,0.0,0.0,0.0,0.0,0.0,0.0,0.0,0.0,0.0,0.0,0.0,0.0,0.0,0.0,0.0,0.0,0.0,0.0,0.0,0.0,0.0,0.0,0.0,0.0,0.0,0.0,0.0,0.0,0.0,0.0,0.0,0.0,0.0,0.0,0.0,0.0,0.0,0.0,0.0,0.0,0.0,0.0,0.0,0.0,0.0,0.0,0.0,0.0,0.0,0.0,0.0,0.0,0.0,0.0,0.0,0.0,0.0,0.0,0.0,0.0,0.0,0.0,0.0,0.0,0.0,0.0,0.0,0.0,0.0,0.0,0.0,0.0,0.0,0.0,0.0,0.0,0.0,0.0,0.0,0.0,0.0,0.0,0.0,0.0,0.0,0.0,0.0,0.0,0.0,0.0,0.0,0.0,0.0,0.0,0.0,0.0,0.0,0.0,0.0,0.0,0.0,0.0,0.0,0.0,0.0,0.0,0.0,0.0,0.0,0.0,0.0,0.0,0.0,0.0,0.0,0.0,0.0,0.0,0.0,0.0,0.0,0.0,0.0,0.0,0.0,0.0,0.0,0.0,0.0,0.0,0.0,0.0,0.0,0.0,0.0,0.0,0.0,0.0,0.0,0.0,0.0,0.0,0.0,0.0,0.0,0.0,0.0,0.0,0.0,0.0,0.0,0.0,0.0,0.0,0.0,0.0,0.0,0.0,0.0,0.0,0.0,0.0,0.0,0.0,0.0,0.0,0.0,0.0,0.0,0.0,0.0,0.0,0.0,0.0,0.0,0.0,0.0,0.0,0.0,0.0,0.0,0.0,0.0,0.0,0.0,0.0,0.0,0.0,0.0,0.0,0.0,0.0,0.0,0.0,0.0,0.0,0.0,0.0,0.0,0.0,0.0,0.0,0.0,0.0,0.0,0.0,0.0,0.0,0.0,0.0,0.0,0.0,0.0,0.0,0.0,0.0,0.0,0.0,0.0,0.0,0.0,0.0,0.0,0.0,0.0,0.0,0.0,0.0,0.0,0.0,0.0,0.0,0.0,0.0,0.0,0.0,0.0,0.0,0.0,0.0,0.0,0.0,0.0,0.0,0.0,0.0,0.0,0.0,0.0,0.0,0.0,0.0,0.0,0.0,0.0,0.0,0.0,0.0,0.0,0.0,0.0,0.0,0.0,0.0,0.0,0.0,0.0,0.0,0.0,0.0,0.0,0.0,0.0,0.0,0.0,0.0,0.0,0.0,0.0,0.0,0.0,0.0,0.0,0.0,0.0,0.0,0.0,0.0,0.0,0.0,0.0,0.0,0.0,0.0,0.0,0.0,0.0,0.0,0.0,0.0,0.0,0.0,0.0,0.0,0.0,0.0,0.0,0.0,0.0,0.0,0.0,0.0,0.0,0.0,0.0,0.0,0.0,0.0,0.0,0.0,0.0,0.0,0.0,0.0,0.0,0.0,0.0,0.0,0.0,0.0,0.0,0.0,0.0,0.0,0.0,0.0,0.0,0.0,0.0,0.0,0.0,0.0,0.0,0.0,0.0,0.0,0.0,0.0,0.0,0.0,0.0,0.0,0.0,0.0,0.0,0.0,0.0,0.0,0.0,0.0,0.0,0.0,0.0,0.0,0.0,0.0,0.0,0.0,0.0,0.0,0.0,0.0,0.0,0.0,0.0,0.0,0.0,0.0,0.0,0.0,0.0,0.0,0.0,0.0,0.0,0.0,0.0,0.0,0.0,0.0,0.0,0.0,0.0,0.0,0.0,0.0,0.0,0.0,0.0,0.0,0.0,0.0,0.0,0.0,0.0,0.0,0.0,0.0,0.0,0.0,0.0,0.0,0.0,0.0,0.0,0.0,0.0,0.0,0.0,0.0,0.0,0.0,0.0,0.0,0.0,0.0,0.0,0.0,0.0,0.0,0.0,0.0,0.0,0.0,0.0,0.0,0.0,0.0,0.0,0.0,0.0,0.0,0.0,0.0,0.0,0.0,0.0,0.0,0.0,0.0,0.0,0.0,0.0,0.0,0.0,0.0,0.0,0.0,0.0,0.0,0.0,0.0,0.0,0.0,0.0,0.0,0.0,0.0,0.0,0.0,0.0,0.0,0.0,0.0,0.0,0.0,0.0,0.0,0.0,0.0,0.0,0.0,0.0,0.0,0.0,0.0,0.0,0.0,0.0,0.0,0.0,0.0,0.0,0.0,0.0,0.0,0.0,0.0,0.0,0.0,0.0,0.0,0.0,0.0,0.0,0.0,0.0,0.0,0.0,0.0,0.0,0.0,0.0,0.0,0.0,0.0,0.0,0.0,0.0,0.0,0.0,0.0,0.0,0.0,0.0,0.0,0.0,0.0,0.0,0.0,0.0,0.0,0.0,0.0,0.0,0.0,0.0,0.0,0.0,0.0,0.0,0.0,0.0,0.0,0.0,0.0,0.0,0.0,0.0,0.0,0.0,0.0,0.0,0.0,0.0,0.0,0.0,0.0,0.0,0.0,0.0,0.0,0.0,0.0,0.0,0.0,0.0,0.0,0.0,0.0,0.0,0.0,0.0,0.0,0.0,0.0,0.0,0.0,0.0,0.0,0.0,0.0,0.0,0.0,0.0,0.0,0.0,0.0,0.0,0.0,0.0,0.0,0.0,0.0,0.0,0.0,0.0,0.0,0.0,0.0,0.0,0.0,0.0,0.0,0.0,0.0,0.0,0.0,0.0,0.0,0.0,0.0,0.0,0.0,0.0,0.0,0.0,0.0,0.0,0.0,0.0,0.0,0.0,0.0,0.0,0.0,0.0,0.0,0.0,0.0,0.0,0.0,0.0,0.0,0.0,0.0,0.0,0.0,0.0,0.0,1.2752,1.2328,0.0,0.0,0.0,0.0,0.0,0.0,0.0,0.0,0.0,0.0,0.0,0.0,0.0,0.0,0.0,0.0,0.0,0.0,0.0,0.0,0.0,0.0,0.0,0.0,0.0,0.0,1.081,1.12,1.1482,1.1874,1.2156,1.2296,1.2101,1.1957,1.1847,1.1739,1.184,1.2198,1.2046,1.2233,1.2735,0.0,0.0,0.0,0.0,0.0,0.0,0.0,0.0,0.0,0.0,0.0,0.0,0.0,0.0,0.0,0.0,0.0,0.0,0.0,0.0,0.0,0.0,0.0,0.0,0.0,0.0,0.0,0.0,0.0,0.0,0.0,0.0,0.0,0.0,0.0,0.0,0.0,0.0,0.0,0.0,0.0,0.0,0.0,0.0,0.0,0.0,0.0,0.0,0.0,0.0,0.0,0.0,0.0,0.0,0.0,0.0,0.0,0.0,0.0,0.0,0.0,0.0,0.0,0.0,0.0,0.0,0.0,0.0,0.0,0.0,0.0,0.0,0.0,1.3556,1.3095,0.0,0.0,0.0,0.0,0.0,0.0,0.0,0.0,0.0,0.0,0.0,0.0,0.0,0.0,0.0,0.0,0.0,0.0,0.0,0.0,0.0,0.0,0.0,0.0,1.0783,1.0993,1.1355,1.1593,1.1642,1.1996,1.2197,1.217,1.2234,1.2148,1.1856,1.1638,1.1798,1.2353,1.1965,1.228,1.32,0.0,0.0,0.0,0.0,0.0,0.0,0.0,0.0,0.0,0.0,0.0,0.0,0.0,0.0,0.0,0.0,0.0,0.0,0.0,0.0,0.0,0.0,0.0,0.0,0.0,0.0,0.0,0.0,0.0,0.0,0.0,0.0,0.0,0.0,0.0,0.0,0.0,0.0,0.0,0.0,0.0,0.0,0.0,0.0,0.0,0.0,0.0,0.0,0.0,0.0,0.0,0.0,0.0,0.0,0.0,0.0,0.0,0.0,0.0,0.0,0.0,0.0,0.0,0.0,0.0,0.0,0.0,1.4803,1.5088,1.5464,1.5315,1.5328,1.5411,1.4631,1.4173,1.3927,1.3455,0.0,0.0,0.0,0.0,0.0,0.0,0.0,0.0,0.0,0.0,0.0,0.0,0.0,0.0,0.0,0.0,0.0,0.0,0.0,0.0,0.0,1.0896,1.0893,1.1376,1.1673,1.1945,1.2179,1.2456,1.2566,1.2454,1.2239,1.2115,1.2059,1.2036,1.2184,1.2566,1.3058,1.3521,1.3951,0.0,0.0,0.0,0.0,0.0,0.0,0.0,0.0,0.0,0.0,0.0,0.0,0.0,0.0,0.0,0.0,0.0,0.0,0.0,0.0,0.0,0.0,0.0,0.0,0.0,0.0,0.0,0.0,0.0,0.0,0.0,0.0,0.0,0.0,0.0,0.0,0.0,0.0,0.0,0.0,0.0,0.0,0.0,0.0,0.0,0.0,0.0,1.276,1.2952,0.0,0.0,0.0,0.0,0.0,0.0,0.0,0.0,0.0,0.0,0.0,0.0,0.0,1.4326,1.481,1.5464,1.5817,1.5871,1.6241,1.6432,1.6499,1.6363,1.6376,1.6499,1.6364,0.0,1.4577,1.4383,0.0,0.0,0.0,0.0,0.0,0.0,0.0,0.0,0.0,0.0,0.0,0.0,0.0,0.0,0.0,0.0,0.0,0.0,0.0,0.0,0.0,1.1312,1.1595,1.2281,1.2832,1.307,1.2919,1.3027,1.2959,1.2634,1.2502,1.2371,1.2224,1.2214,1.2414,1.2817,1.3872,1.4459,1.4606,0.0,0.0,0.0,0.0,0.0,0.0,0.0,0.0,0.0,0.0,0.0,0.0,0.0,0.0,0.0,0.0,0.0,0.0,0.0,0.0,0.0,0.0,0.0,0.0,0.0,0.0,0.0,0.0,0.0,0.0,0.0,0.0,0.0,0.0,0.0,0.0,0.0,0.0,0.0,0.0,0.0,0.0,0.0,0.0,0.0,0.0,1.2752,1.321,1.2844,1.2986,1.2901,0.0,0.0,0.0,0.0,0.0,0.0,0.0,0.0,0.0,1.495,1.5111,1.5489,1.6114,1.6673,1.6998,1.712,1.7528,1.7758,1.788,1.7826,1.7758,1.7717,1.7717,1.7189,1.6269,1.5374,1.4692,1.4144,0.0,0.0,0.0,0.0,1.3278,1.3271,0.0,0.0,0.0,0.0,0.0,0.0,0.0,0.0,0.0,0.0,0.0,0.0,1.1492,1.1824,1.2349,1.3207,1.3856,1.4025,1.3604,1.3498,1.3285,1.2895,1.2851,1.2732,1.2527,1.272,1.3057,1.3561,1.4729,1.5313,0.0,0.0,0.0,0.0,0.0,0.0,0.0,0.0,0.0,0.0,0.0,0.0,0.0,0.0,0.0,0.0,0.0,0.0,0.0,0.0,0.0,0.0,0.0,0.0,0.0,0.0,0.0,0.0,0.0,0.0,0.0,0.0,0.0,0.0,0.0,0.0,0.0,0.0,0.0,0.0,0.0,0.0,0.0,0.0,0.0,0.0,0.0,1.3278,1.3705,1.3037,1.364,1.3718,0.0,0.0,0.0,0.0,0.0,0.0,1.4593,1.476,1.5328,1.6292,1.6385,1.6766,1.75,1.7758,1.8016,1.8248,1.8504,1.8721,1.89,1.8874,1.879,1.868,1.8612,1.8327,1.7798,1.643,1.5613,1.5161,1.4399,1.3965,1.3773,1.409,1.4155,1.4168,0.0,0.0,0.0,0.0,0.0,0.0,0.0,0.0,0.0,0.0,0.0,1.1295,1.2162,1.2448,1.2955,1.3962,1.4299,1.4367,1.4076,1.377,1.3518,1.3376,1.3237,1.318,1.3159,1.3843,1.4482,1.5088,0.0,0.0,0.0,0.0,0.0,0.0,0.0,0.0,0.0,0.0,0.0,0.0,0.0,0.0,0.0,0.0,0.0,0.0,0.0,0.0,0.0,0.0,0.0,0.0,0.0,0.0,0.0,0.0,0.0,0.0,0.0,0.0,0.0,0.0,0.0,0.0,0.0,0.0,0.0,0.0,0.0,0.0,0.0,0.0,0.0,0.0,0.0,0.0,0.0,0.0,0.0,1.4272,1.4968,0.0,0.0,0.0,0.0,1.4396,1.4841,1.5381,1.5979,1.6252,1.6742,1.7487,1.7704,1.8153,1.8884,1.8791,1.8858,1.9128,1.902,1.9047,1.9184,1.9047,1.9047,1.9156,1.89,1.8765,1.8655,1.7555,1.6604,1.5828,1.5591,1.5145,1.4685,1.5144,1.5318,1.5359,0.0,0.0,0.0,0.0,0.0,0.0,0.0,0.0,1.1207,1.1203,1.1274,1.1686,1.2649,1.351,1.4351,1.5192,1.5493,1.5494,1.5088,1.4353,1.3903,1.3848,1.3424,1.3424,1.3903,1.4541,1.5124,1.5651,0.0,0.0,0.0,0.0,0.0,0.0,0.0,0.0,0.0,0.0,0.0,0.0,0.0,0.0,0.0,0.0,0.0,0.0,0.0,0.0,0.0,0.0,0.0,0.0,0.0,0.0,0.0,0.0,0.0,0.0,0.0,0.0,0.0,0.0,0.0,0.0,0.0,0.0,0.0,0.0,0.0,0.0,0.0,0.0,0.0,0.0,0.0,0.0,0.0,0.0,0.0,1.5354,1.5914,0.0,1.5155,1.5303,1.5477,1.5532,1.6212,1.6795,1.7229,1.7514,1.7961,1.8612,1.8709,1.8967,1.9443,1.9498,1.955,1.9661,1.97,1.978,1.9898,1.9766,1.97,1.9646,1.9457,1.9212,1.89,1.8424,1.7745,1.6958,1.6485,1.612,1.5889,1.6133,1.6228,1.6269,0.0,0.0,0.0,0.0,0.0,0.0,0.0,0.0,1.0969,1.1071,1.1465,1.2177,1.3316,1.4477,1.5496,1.6278,1.6455,1.6347,1.5875,1.4871,1.4269,1.4171,1.3737,1.3845,1.4595,1.5192,1.5802,0.0,0.0,0.0,0.0,0.0,0.0,0.0,0.0,0.0,0.0,0.0,0.0,0.0,0.0,0.0,1.3411,0.0,0.0,0.0,0.0,0.0,0.0,0.0,0.0,0.0,0.0,0.0,0.0,0.0,0.0,0.0,0.0,0.0,0.0,0.0,0.0,0.0,0.0,0.0,0.0,0.0,0.0,0.0,0.0,0.0,0.0,0.0,0.0,0.0,0.0,1.5357,1.6264,1.606,1.6849,1.7094,1.6295,1.6592,1.6889,1.7011,1.7582,1.807,1.8383,1.8667,1.9047,1.9481,1.9549,1.9725,2.0068,2.0078,2.0134,2.0204,2.0297,2.0376,2.0471,2.0379,2.0241,2.0078,1.9903,1.9618,1.9278,1.9036,1.8586,1.8015,1.7351,1.6972,1.681,1.6905,1.6932,1.6959,0.0,0.0,0.0,0.0,0.0,0.0,0.0,1.0629,1.0825,1.0921,1.1679,1.2758,1.4162,1.5306,1.6304,1.7161,1.7093,1.6808,1.6348,1.5306,1.4575,1.4299,1.4188,1.4484,1.522,1.5829,1.6564,0.0,0.0,0.0,0.0,0.0,0.0,0.0,0.0,0.0,0.0,0.0,0.0,0.0,0.0,0.0,1.4396,0.0,0.0,0.0,0.0,0.0,0.0,0.0,0.0,0.0,0.0,0.0,0.0,0.0,0.0,0.0,0.0,0.0,0.0,0.0,0.0,0.0,0.0,0.0,0.0,0.0,0.0,0.0,0.0,0.0,0.0,0.0,0.0,0.0,1.4586,1.5883,1.6739,1.643,1.7826,1.8464,1.7555,1.8002,1.8477,1.8806,1.8953,1.9156,1.9409,1.9741,1.9987,2.0119,2.025,2.0469,2.0802,2.0618,2.0618,2.0802,2.0802,2.08,2.08,2.0802,2.0689,2.0494,2.0225,2.0026,1.9849,1.94,1.9128,1.894,1.8207,1.7704,1.7433,1.7419,1.7419,1.7392,0.0,0.0,0.0,0.0,0.0,0.0,0.0,1.0624,1.0672,1.1511,1.225,1.3279,1.4783,1.6269,1.7378,1.7948,1.7473,1.7052,1.6822,1.5303,1.434,1.4161,1.4633,1.5287,1.6118,1.6632,1.7229,1.7921,0.0,0.0,0.0,0.0,0.0,0.0,0.0,0.0,0.0,0.0,0.0,0.0,0.0,0.0,1.4577,0.0,0.0,0.0,0.0,0.0,0.0,0.0,0.0,0.0,0.0,0.0,0.0,0.0,0.0,0.0,0.0,0.0,0.0,0.0,0.0,0.0,0.0,0.0,0.0,0.0,0.0,0.0,0.0,0.0,0.0,0.0,1.4588,1.5484,1.5889,1.6985,1.7948,1.8476,1.8936,1.9181,1.9075,1.9211,1.9362,1.9443,1.9768,1.9966,2.0047,2.0363,2.0571,2.0612,2.0743,2.0849,2.0949,2.0892,2.0892,2.0949,2.0949,2.1003,2.1066,2.0895,2.0772,2.0705,2.0388,2.0103,1.9892,1.9661,1.9347,1.8953,1.8395,1.8124,1.8029,1.7826,1.7772,1.7731,0.0,0.0,0.0,0.0,0.0,0.0,0.0,1.05,1.0654,1.1724,1.2559,1.3702,1.5389,1.6734,1.7704,1.8179,1.7595,1.7039,1.6658,1.5276,1.4502,0.0,0.0,1.6049,1.6863,1.7338,1.7881,1.8478,1.8491,1.8546,1.8585,1.8626,1.8531,1.8381,1.83,0.0,0.0,0.0,0.0,0.0,1.6832,1.6132,1.5589,1.4839,1.4511,1.4378,1.3889,1.384,1.3925,1.3359,0.0,0.0,0.0,0.0,0.0,0.0,0.0,0.0,0.0,0.0,0.0,0.0,0.0,0.0,0.0,0.0,0.0,0.0,0.0,0.0,0.0,0.0,0.0,0.0,1.5536,1.6606,1.7365,1.8057,1.8736,1.9439,1.9668,1.9873,2.0136,2.008,2.0078,2.0229,2.0419,2.0564,2.067,2.0917,2.1082,2.1169,2.1315,2.1383,2.1383,2.1383,2.1383,2.1383,2.1383,2.1394,2.1408,2.1248,2.1071,2.087,2.0523,2.0225,1.9971,1.9783,1.9498,1.9114,0.0,0.0,0.0,0.0,1.7962,1.8016,0.0,0.0,0.0,0.0,0.0,0.0,0.0,1.0358,1.0776,1.1775,1.2739,1.4046,1.5887,1.6849,1.7541,1.803,1.75,1.6809,1.6088,1.5265,0.0,1.5328,1.6076,1.6809,1.7541,1.8002,1.8518,1.9075,1.894,1.8927,1.9047,1.8912,1.8762,1.8571,1.8571,1.8819,1.9206,1.86,1.8587,1.8903,1.8211,1.7553,1.6876,1.5763,1.5598,1.5841,1.506,1.4697,1.4543,1.4117,0.0,0.0,0.0,0.0,0.0,0.0,0.0,0.0,0.0,0.0,0.0,0.0,0.0,0.0,0.0,0.0,0.0,0.0,0.0,0.0,0.0,0.0,0.0,0.0,1.6646,1.7826,1.8737,1.9035,1.932,1.9742,2.0132,2.0512,2.0786,2.0673,2.0697,2.1025,2.0962,2.1017,2.1283,2.1429,0.0,0.0,0.0,2.1954,2.1899,2.1913,2.1913,2.1899,2.1886,2.1818,2.1699,2.1655,2.141,2.0987,2.067,2.0388,2.0105,1.9851,1.9603,1.937,1.8967,1.8547,1.8111,1.8017,1.8111,1.8232,0.0,0.0,0.0,0.0,0.0,0.0,0.0,1.0654,1.1028,1.2353,1.3165,1.4208,1.5778,1.6617,1.731,1.7894,1.7134,1.6375,1.574,0.0,1.5673,1.6214,1.7107,1.7894,1.8519,1.8938,1.9291,1.955,1.9373,1.9288,1.933,1.929,1.9208,1.9059,1.9059,1.9261,1.9619,1.9791,1.9901,1.9935,2.0011,1.881,1.6957,1.6442,1.6239,1.6144,1.5494,1.5791,1.6333,1.5399,1.5316,1.541,1.445,0.0,0.0,0.0,0.0,0.0,0.0,0.0,0.0,0.0,0.0,0.0,0.0,0.0,0.0,0.0,0.0,0.0,0.0,0.0,0.0,1.6131,1.7311,1.8395,1.9168,1.9818,2.025,2.0331,2.0645,2.0892,2.0962,2.1025,2.1147,2.1307,2.1465,2.1641,2.1923,2.2055,2.2092,2.2018,2.2307,2.2283,2.1899,2.2004,2.2004,2.1899,2.1794,0.0,2.1682,2.1424,2.119,2.0987,2.0827,2.0566,2.025,2.0078,1.978,1.937,1.9074,1.8667,1.8273,1.834,1.834,1.8273,0.0,0.0,0.0,0.0,0.0,0.0,0.0,1.0708,1.1069,1.2245,1.301,1.3928,1.5157,1.5832,1.632,1.6618,1.6009,1.5565,0.0,1.5848,1.6417,1.7256,1.8111,1.879,1.9335,1.9683,1.9898,1.9997,1.9898,1.9818,1.9751,1.9683,1.9576,1.9457,1.9703,2.0027,2.0401,2.0471,2.0667,2.0846,2.0173,1.9136,1.796,1.7543,1.7179,1.6809,1.6511,1.6659,1.6903,1.6267,1.6118,1.6076,1.541,1.4731,1.4065,0.0,0.0,0.0,0.0,0.0,0.0,0.0,0.0,0.0,0.0,0.0,0.0,0.0,0.0,1.3957,1.4577,0.0,1.6306,1.7256,1.8301,1.9196,1.9776,2.0442,2.0833,2.0754,2.096,2.118,2.1329,2.1478,2.1611,2.1743,2.1923,2.2099,2.2347,2.2411,2.2452,2.2452,2.2605,2.2582,2.2361,2.2361,2.2324,2.2256,2.2072,2.1964,2.1882,2.1652,2.1421,2.1201,2.0987,2.0772,2.0523,2.0293,1.9981,1.963,1.9428,1.9062,1.8626,1.8463,1.8463,1.8518,0.0,0.0,0.0,0.0,0.0,0.0,0.0,1.072,1.1053,1.1939,1.2646,1.3427,1.4387,1.4846,1.5089,1.5142,1.4911,1.4981,0.0,1.6253,1.7148,1.8234,1.9006,1.9603,2.0012,2.0295,2.0442,2.0442,2.0399,2.032,2.0171,2.0053,1.989,1.9759,2.0257,2.0732,2.1123,2.106,2.1315,2.1701,2.0376,1.9616,1.9217,1.8784,1.8151,1.75,1.7392,1.7202,1.6971,1.681,1.6593,1.6335,1.6116,1.568,1.5084,1.4263,1.4068,0.0,0.0,0.0,0.0,0.0,0.0,0.0,0.0,0.0,1.3465,1.3949,1.441,1.4966,1.5754,1.6619,1.75,1.8382,1.9223,1.9944,2.0399,2.0917,2.1215,2.1177,2.1272,2.1445,2.1753,2.1886,2.2021,2.2221,2.234,2.2503,2.2745,2.2759,2.2795,2.29,2.2958,2.2927,2.2832,2.2759,2.2677,2.2599,2.2442,2.2286,2.2123,2.2004,2.1774,2.1483,2.1177,2.0949,2.0788,2.0512,2.0225,1.9958,1.9837,1.9538,1.9115,1.8654,1.8654,1.8832,0.0,0.0,0.0,0.0,0.0,0.0,0.0,0.0,1.1117,1.1748,1.2268,1.2864,1.363,1.3873,1.4046,1.4226,1.4688,0.0,1.5979,1.6823,1.7772,1.8843,1.971,2.0264,2.0424,2.0754,2.0917,2.0917,2.08,2.0648,2.0453,2.0318,2.0119,1.9907,2.0494,2.0947,2.1302,2.1884,2.229,2.2544,2.225,2.1371,2.0217,1.9846,1.8946,1.7786,1.7378,1.7134,1.7011,1.6971,1.6823,1.6661,1.6621,1.6403,1.5969,1.5111,0.0,1.3886,1.2919,1.2634,1.2712,1.3159,1.3234,1.3489,0.0,1.4706,1.4735,1.5488,1.598,1.6416,1.6931,1.7541,1.826,1.9139,1.971,2.0295,2.0998,2.1269,2.1483,2.1777,2.1818,2.1882,2.2045,2.2072,2.2249,2.27,2.2741,2.29,2.3284,2.3311,2.3325,2.332,2.351,2.3406,2.2977,2.3085,2.2958,2.2599,2.2586,2.2469,2.2268,2.215,2.1991,2.1815,2.1367,2.1041,2.0802,2.0759,2.0539,2.0239,2.0103,1.9942,1.9742,1.9278,1.9114,1.9115,0.0,0.0,0.0,0.0,0.0,0.0,0.0,0.0,0.0,1.1382,1.183,1.2286,1.2783,1.2963,1.3014,1.2945,1.377,0.0,1.5752,1.7053,1.8355,1.959,2.0401,2.0889,2.1022,2.1353,2.1421,2.1225,2.1174,2.0984,2.0661,2.051,2.0318,2.0163,2.1006,2.1459,2.1645,2.2502,2.2877,2.2797,2.1919,2.1092,2.029,1.9246,1.8295,1.746,1.7175,1.6917,0.0,0.0,1.6469,1.6485,1.6566,1.6347,1.5938,1.5299,1.4878,0.0,1.3908,1.3593,1.3509,1.3838,1.4147,1.4511,1.507,1.5301,1.5574,1.6226,1.6783,1.7311,1.7866,1.8546,1.9197,1.971,2.0282,2.0783,2.1252,2.1527,2.1706,2.1777,2.1991,2.2146,2.2218,2.2462,2.2751,2.3008,2.3198,2.3406,2.3578,2.3641,2.366,2.3573,2.3727,2.3687,2.342,2.328,2.3113,2.2958,2.2782,2.2673,2.2588,2.2323,2.2059,2.178,2.1587,2.1315,2.103,2.0949,2.0824,2.0673,2.0331,2.0225,2.0171,1.9561,1.933,1.9276,0.0,0.0,0.0,0.0,0.0,0.0,0.0,0.0,0.0,0.0,1.1364,1.168,1.2015,1.22,1.2237,1.2029,0.0,0.0,0.0,1.704,1.8572,1.9929,2.0702,2.119,2.1401,2.1692,2.1747,2.1554,2.1554,2.1337,2.0962,2.1029,2.0931,2.076,2.1824,2.225,2.2206,2.3068,2.3202,2.2709,2.1666,2.0822,2.0063,1.8741,1.7731,1.6985,1.6808,1.6429,0.0,0.0,1.5738,1.5833,1.6035,1.5912,1.5637,1.5258,1.4921,1.4636,1.4434,1.4272,1.4212,1.4432,1.4975,1.5477,1.5588,1.598,1.6469,1.7026,1.7555,1.8096,1.8638,1.9306,1.9865,2.0227,2.0689,2.1106,2.1445,2.1692,2.1818,2.1709,2.1991,2.2201,2.2241,2.2669,2.3045,2.3334,2.3551,2.3732,2.3809,2.389,2.3904,2.3809,2.3885,2.389,2.3759,2.3506,2.3343,2.3262,2.3063,2.2958,2.2904,2.2625,2.2231,2.1818,2.1818,2.1597,2.1242,2.1106,2.1041,2.096,2.0632,2.051,2.044,1.9896,1.9656,1.9561,0.0,0.0,0.0,0.0,0.0,0.0,0.0,0.0,0.0,0.0,0.0,0.0,0.0,1.1662,1.1816,1.1816,0.0,0.0,0.0,1.6715,1.8232,1.9649,2.0422,2.1003,2.1388,2.1597,2.1763,2.1886,2.1886,2.1703,2.1405,2.2102,2.2191,2.1815,2.301,2.3363,2.3083,2.3585,2.3222,2.2303,2.2132,2.1119,1.9634,1.8877,1.772,1.6497,1.6224,0.0,0.0,0.0,1.467,1.4613,1.4934,1.5123,0.0,1.5041,1.4448,1.3884,1.4052,1.4201,1.4394,1.4864,1.553,1.6171,1.6567,1.7026,1.7528,1.8124,1.8518,1.89,1.9288,1.9657,2.0095,2.068,2.0892,2.1163,2.1631,2.1699,2.1699,2.1699,2.1831,2.195,2.2096,2.2537,2.3053,2.3651,2.3687,2.3809,2.4061,2.4089,2.4089,2.4089,2.4089,2.4039,2.389,2.3877,2.3709,2.3402,2.3393,2.3311,2.318,2.3045,2.2656,2.2099,2.2099,2.1808,2.1371,2.1242,2.1123,2.1001,2.0987,2.0778,2.0492,2.0478,2.0304,2.0053,0.0,0.0,0.0,0.0,0.0,0.0,0.0,0.0,0.0,0.0,0.0,0.0,0.0,0.0,0.0,0.0,1.2223,0.0,0.0,1.6102,1.7541,1.8601,2.0028,2.0854,2.1001,2.1465,2.178,2.1899,2.1818,2.1889,2.2128,2.2282,2.2473,2.2698,2.3325,2.3457,2.327,2.365,2.3399,2.2665,2.1602,2.0716,1.9859,1.8277,1.6881,1.5698,0.0,0.0,0.0,0.0,0.0,0.0,1.4101,1.4168,1.4098,1.3873,1.39,1.4055,1.4299,1.4762,1.532,1.597,1.647,1.6944,1.7392,1.7758,1.8042,1.8259,1.8559,1.879,1.8801,1.9332,1.9849,2.0165,2.0732,2.1272,2.1658,2.1842,2.1815,2.1424,2.176,2.1994,2.1845,2.2411,2.2995,2.3465,2.3714,2.3904,2.4089,2.4165,2.4192,2.4102,2.4192,2.417,2.4034,2.3944,2.3836,2.3727,2.3501,2.3266,2.3058,2.2927,2.2588,2.2096,2.2004,2.1743,2.1388,2.1269,2.1228,2.1242,2.1068,2.0984,2.0927,2.0754,2.065,2.0487,0.0,0.0,0.0,0.0,0.0,0.0,0.0,0.0,0.0,0.0,0.0,0.0,0.0,0.0,0.0,0.0,0.0,1.2562,0.0,0.0,1.64,1.7487,1.864,1.943,1.9756,2.0026,2.0365,2.0786,2.08,2.1206,2.1964,2.2196,2.2562,2.3085,2.3488,2.3565,2.3392,2.3548,2.3173,2.2349,2.0864,1.9873,1.9054,1.7061,1.5657,0.0,0.0,0.0,0.0,0.0,0.0,1.3105,1.322,1.3342,1.3447,1.3417,1.3838,1.4407,1.488,1.5494,1.6161,1.6851,1.7311,1.7704,1.8139,1.8383,1.8558,1.8558,1.8667,1.875,1.8626,1.8979,1.9374,1.9673,2.0241,2.0838,2.1386,2.1597,2.1638,2.1408,2.176,2.1994,2.1859,2.2374,2.2904,2.3298,2.3646,2.3895,2.4021,2.4151,2.4192,2.4102,2.4165,2.4192,2.4102,2.4012,2.3931,2.3822,2.3893,2.3628,2.3058,2.2981,2.2656,2.2164,2.2082,2.1798,2.1385,2.1307,2.128,2.132,2.1201,2.1106,2.1041,2.0924,2.08,2.0634,0.0,0.0,0.0,0.0,0.0,0.0,0.0,0.0,0.0,0.0,0.0,0.0,0.0,0.0,0.0,0.0,0.0,0.0,0.0,0.0,0.0,1.6295,1.6443,1.6904,1.7799,1.7541,1.784,1.8737,1.9007,1.9742,2.091,2.1734,2.2402,2.2897,2.3397,2.3523,2.3359,2.3195,2.2439,2.1252,1.9891,1.8622,1.7301,1.5408,0.0,0.0,0.0,0.0,0.0,0.0,1.2306,1.2508,1.2409,1.2758,1.3305,1.3735,1.4293,1.494,1.5746,1.6361,1.6919,1.75,1.8015,1.8436,1.875,1.8912,1.9007,1.8967,1.8845,1.8738,1.8697,1.8586,1.8664,1.9275,1.959,2.0068,2.0933,2.1068,2.1245,0.0,0.0,0.0,0.0,0.0,2.2782,2.318,2.351,2.3746,2.389,2.4034,2.4102,2.4102,2.4102,2.4102,2.4102,2.4102,2.3967,2.3719,2.4478,2.4273,2.3203,2.318,2.2869,2.2309,2.2282,2.194,2.1401,2.1401,2.1337,2.1215,2.1361,2.1177,2.084,2.0962,2.0808,2.0492,0.0,0.0,0.0,0.0,0.0,0.0,0.0,0.0,0.0,0.0,0.0,0.0,0.0,0.0,0.0,0.0,0.0,0.0,1.2069,0.0,0.0,0.0,1.5601,1.6361,0.0,0.0,0.0,1.7907,1.8125,1.8641,1.9434,1.9662,2.0303,2.1295,2.1261,2.1367,2.1538,2.0987,2.0299,1.9431,0.0,1.6949,1.6183,0.0,0.0,0.0,0.0,0.0,0.0,0.0,1.2537,1.2921,1.319,1.3369,1.3651,1.4459,1.5111,1.5761,1.6508,1.7297,1.7988,1.8396,1.8721,1.8993,1.9074,1.9115,1.902,1.8571,1.8164,1.7758,1.7324,1.7772,1.8369,1.8858,1.9917,2.0892,2.1587,2.2062,0.0,2.2164,0.0,2.2696,2.2628,2.289,2.314,2.332,2.3433,2.3641,2.4034,2.4089,2.4102,2.4102,2.4102,2.4102,2.4102,2.4102,2.4021,2.3854,2.3966,2.3779,2.3338,2.3049,2.2679,2.2282,2.2099,2.1771,2.1401,2.1401,2.1371,2.1361,2.1388,2.1334,2.1228,2.1052,2.0946,2.0822,0.0,0.0,0.0,0.0,0.0,0.0,0.0,0.0,0.0,0.0,0.0,0.0,0.0,0.0,0.0,0.0,0.0,0.0,0.0,0.0,0.0,0.0,1.3943,1.4459,0.0,0.0,0.0,0.0,0.0,0.0,1.7754,1.7852,1.839,1.9285,1.9179,1.9228,1.939,1.9015,0.0,0.0,0.0,0.0,0.0,0.0,0.0,0.0,0.0,0.0,0.0,0.0,1.3142,1.3533,1.3881,1.4182,1.4545,1.5342,1.6006,1.6617,1.7297,1.803,1.868,1.8994,1.9183,1.9263,1.9143,1.9075,1.8777,1.7921,1.7446,1.7054,1.6525,1.708,1.7826,1.8478,1.9618,2.0759,2.1685,2.2144,2.2425,0.0,2.2909,0.0,2.2995,2.3239,2.351,2.3691,2.3718,2.3813,2.4089,2.4243,2.4311,2.4311,2.4219,2.4333,2.4624,2.4964,2.5094,2.4942,2.4819,2.4509,2.4029,2.325,2.2751,2.2503,2.214,2.1815,2.1513,2.1442,2.1401,2.1401,2.1401,2.1358,2.128,2.1147,2.1014,2.0895,0.0,0.0,0.0,0.0,0.0,0.0,0.0,0.0,0.0,0.0,0.0,0.0,0.0,0.0,0.0,0.0,0.0,0.0,0.0,0.0,0.0,0.0,1.2201,0.0,1.2638,1.2566,1.2837,1.3454,1.3905,0.0,0.0,0.0,0.0,0.0,0.0,0.0,0.0,0.0,0.0,0.0,0.0,0.0,0.0,0.0,0.0,0.0,0.0,0.0,0.0,0.0,1.3922,1.4242,1.4597,1.5115,1.5698,1.6334,1.6917,1.75,1.8111,1.8682,1.9184,1.9439,1.948,1.9385,1.9047,1.8832,1.8343,1.7147,1.6701,1.6418,1.6075,1.6509,1.7242,1.8164,1.9143,2.0259,2.1631,2.1967,2.2293,2.2894,2.3275,2.3447,2.3325,2.3578,2.3863,2.4097,2.4156,2.4175,2.4175,2.4438,2.4606,2.4606,2.4481,2.4669,2.5156,2.6054,2.6393,2.6167,2.6102,2.5721,2.5012,2.3704,2.3045,2.2895,2.2341,2.1954,2.1685,2.1513,2.1429,2.1401,2.1371,2.1307,2.1215,2.119,2.1041,2.0856,0.0,0.0,0.0,0.0,0.0,0.0,0.0,0.0,0.0,0.0,1.1112,0.0,0.0,0.0,0.0,0.0,0.0,0.0,0.0,0.0,0.0,0.0,0.0,0.0,1.2368,1.2556,1.2678,1.2688,1.3057,1.3336,0.0,0.0,0.0,0.0,0.0,0.0,0.0,0.0,0.0,0.0,0.0,0.0,0.0,0.0,0.0,0.0,0.0,0.0,0.0,0.0,1.4464,1.4737,1.556,1.6118,1.6634,1.7392,1.7935,1.8409,1.9018,1.9454,1.9781,1.9942,1.9903,1.9646,1.8981,1.8438,1.7745,1.6646,1.5996,1.5591,1.5535,1.6117,1.6999,1.8259,1.9437,2.0716,2.2229,2.2751,2.3153,0.0,2.3877,2.398,2.3939,2.3994,2.4102,2.426,2.4419,2.4506,2.4506,2.4566,2.4606,2.4606,2.4936,2.4927,2.4466,2.5818,2.614,2.5475,2.5835,2.594,2.5764,2.4374,2.3668,2.3495,2.2524,2.1954,2.1699,2.1655,2.1554,2.1388,2.1283,2.128,2.1334,2.1123,2.1085,2.1106,0.0,0.0,0.0,0.0,0.0,0.0,0.0,0.0,0.0,1.2246,1.2196,1.202,0.0,0.0,0.0,0.0,0.0,0.0,0.0,0.0,0.0,0.0,0.0,0.0,1.2037,1.2264,1.2386,1.2396,0.0,1.2745,1.2745,1.2813,1.2949,1.3157,1.3107,1.3151,1.327,1.2996,0.0,1.2442,1.2158,1.1906,0.0,0.0,0.0,0.0,0.0,0.0,0.0,0.0,1.459,1.5335,1.6266,1.6958,1.7514,1.7962,1.8517,1.9072,1.9535,2.0012,2.0367,2.032,2.0105,1.962,1.8574,1.7854,1.7052,1.5752,1.5238,1.5008,1.4952,1.5683,1.6632,1.765,1.8776,2.0078,2.1747,2.2289,2.2801,2.356,2.3912,2.4061,2.3994,2.4116,2.4278,2.4441,2.4615,2.471,2.471,2.471,2.4669,2.4606,2.4723,2.4978,2.5446,2.6143,2.6508,2.6545,2.6711,2.6379,2.5592,2.4611,2.3891,2.3403,2.256,2.2096,2.1899,2.1763,2.1638,2.1543,2.1377,2.1334,2.1374,2.1174,2.1147,2.1174,0.0,0.0,0.0,0.0,0.0,0.0,0.0,1.1798,1.2142,1.3108,1.3353,1.318,1.2537,1.2138,1.1803,0.0,0.0,0.0,0.0,0.0,0.0,0.0,0.0,0.0,0.0,0.0,0.0,1.2196,1.2277,0.0,0.0,0.0,0.0,0.0,1.221,1.2138,1.2025,1.2007,1.1898,0.0,0.0,1.1694,0.0,0.0,0.0,0.0,0.0,0.0,0.0,0.0,1.4577,1.5565,1.651,1.7405,1.8125,1.8233,1.8856,1.9574,1.9929,2.0435,2.08,2.0645,2.0227,1.9511,1.8207,1.7337,1.6401,1.4942,1.4604,1.4575,1.46,1.5343,1.6239,0.0,1.8111,1.9345,2.1103,2.172,2.2357,2.3338,2.384,2.4066,2.3944,2.4151,2.4387,2.4579,2.4764,2.484,2.484,2.4791,2.4723,2.4661,2.474,2.525,2.6288,2.6761,2.7248,2.7712,2.7543,2.6879,2.5725,2.4826,2.4037,2.3359,2.2654,2.2255,2.2082,2.1869,2.1753,2.1685,2.1472,2.1401,2.1371,2.1242,2.1215,2.1228,0.0,0.0,0.0,0.0,0.0,0.0,0.0,1.215,1.2803,1.3859,1.4117,1.4068,1.3684,1.3173,1.2656,0.0,0.0,0.0,0.0,0.0,0.0,0.0,0.0,0.0,0.0,0.0,0.0,1.1843,1.1744,0.0,0.0,0.0,0.0,0.0,0.0,1.1843,1.1816,1.1703,0.0,0.0,0.0,0.0,0.0,0.0,0.0,0.0,0.0,1.2485,1.2909,1.3908,1.4493,1.4942,1.5898,1.7066,1.8111,1.8111,1.894,1.9944,2.0331,2.07,2.0987,2.096,2.0324,1.9404,1.818,1.7011,1.5871,1.4749,1.4326,1.4321,1.4862,1.5221,0.0,0.0,0.0,1.9153,2.0971,2.1808,2.2607,2.3551,2.3931,2.4102,2.4089,2.4205,2.4387,2.4579,2.4845,2.4983,2.4983,2.4764,2.4674,2.4772,2.5777,2.6071,2.5602,2.766,2.8343,2.7712,2.7506,2.7334,2.7134,2.5271,2.4267,2.3972,2.2985,2.2388,2.2096,2.2072,2.1923,2.1685,2.1472,2.1401,2.1371,2.1242,2.1283,2.1371,0.0,0.0,0.0,0.0,0.0,0.0,0.0,1.2237,1.2789,1.4261,1.4507,1.4466,1.425,1.396,1.337,0.0,0.0,0.0,0.0,0.0,0.0,0.0,0.0,0.0,0.0,0.0,1.1807,1.1975,1.193,0.0,0.0,0.0,0.0,0.0,0.0,1.1762,1.1676,1.1613,0.0,0.0,0.0,0.0,0.0,0.0,0.0,0.0,0.0,0.0,1.2777,1.3332,1.3875,1.438,1.464,1.5577,1.6755,1.7555,1.8531,1.9537,2.0304,2.1014,2.1478,2.119,2.0474,1.9442,1.8043,1.6822,1.5693,1.4694,1.4353,1.4323,1.4649,1.5016,0.0,0.0,0.0,0.0,1.9358,2.0062,2.1014,2.2547,2.3158,2.3641,2.4165,2.4392,2.4541,2.471,2.4832,2.488,2.488,2.471,2.456,2.4509,2.5325,2.5883,2.6109,2.7483,2.8012,2.7712,2.7634,2.7024,2.5993,2.5101,2.4243,2.3421,2.2932,2.2537,2.2218,2.2123,2.2045,2.1923,2.1665,2.1584,2.1543,2.1283,2.128,2.1388,0.0,0.0,0.0,0.0,0.0,0.0,1.2205,1.2364,1.2908,1.4439,1.4672,1.4697,1.4652,1.4285,1.3648,1.2708,0.0,0.0,0.0,0.0,0.0,0.0,0.0,0.0,0.0,0.0,1.1861,1.2098,1.2048,1.2011,0.0,0.0,1.1911,1.1748,0.0,0.0,0.0,0.0,0.0,0.0,0.0,0.0,0.0,0.0,0.0,0.0,0.0,0.0,0.0,0.0,0.0,1.3818,1.3762,0.0,0.0,1.6769,1.7934,1.902,2.0033,2.096,2.156,2.1269,2.0471,1.9388,1.8002,1.6714,1.5559,1.4681,1.4383,1.4342,1.4532,1.4991,0.0,0.0,0.0,1.7134,1.8327,1.8937,1.9861,2.1445,2.2106,2.2814,2.3709,2.4229,2.4587,2.4718,2.4737,2.4704,2.4663,2.4802,2.4805,2.4658,2.531,2.6025,2.6843,2.7656,2.8033,2.7949,2.7501,2.6588,2.5296,2.4681,2.3865,2.2923,2.2795,2.2574,2.2292,2.2204,2.214,2.2082,2.1882,2.1791,2.1723,2.1465,2.1405,2.1472,0.0,0.0,0.0,0.0,0.0,0.0,0.0,1.2615,1.3343,1.4369,1.4629,1.4778,1.4973,1.4052,1.3403,1.339,0.0,0.0,0.0,0.0,0.0,0.0,0.0,0.0,0.0,0.0,0.0,1.2098,1.1902,1.1793,1.1793,1.1793,1.1735,1.1608,0.0,0.0,0.0,0.0,0.0,0.0,0.0,0.0,0.0,0.0,0.0,0.0,0.0,0.0,0.0,0.0,0.0,0.0,0.0,1.3838,1.4386,0.0,1.7161,1.8531,1.962,2.0447,2.1041,2.1177,2.0293,1.9139,1.8125,1.6714,1.5389,1.4642,1.4383,1.4383,1.4645,1.52,0.0,0.0,0.0,0.0,1.8381,1.9018,1.9681,2.0424,2.093,2.1584,2.2531,2.3646,2.4387,2.4587,2.4606,2.4533,2.4327,2.5053,2.5485,2.5485,2.615,2.688,2.7675,2.8488,2.878,2.8567,2.7039,2.6124,2.5741,2.3995,2.3063,2.2778,2.2663,2.2479,2.2309,2.2309,2.2214,2.2096,2.2096,2.2004,2.1886,2.1753,2.1699,2.1668,0.0,0.0,0.0,0.0,0.0,0.0,0.0,1.1866,1.2413,1.3468,1.3645,1.381,1.4141,1.3634,1.322,1.3125,0.0,0.0,0.0,0.0,0.0,0.0,0.0,0.0,0.0,0.0,0.0,0.0,0.0,1.2282,1.2282,1.2282,1.2082,1.1735,1.1735,1.169,0.0,0.0,0.0,0.0,0.0,0.0,1.2146,0.0,0.0,0.0,0.0,0.0,0.0,0.0,0.0,0.0,0.0,0.0,0.0,1.4652,1.5982,1.7406,1.8302,1.9144,1.9696,1.9424,1.8871,1.8138,1.7284,1.6309,1.5455,1.4948,1.4706,1.4642,1.4855,1.521,0.0,0.0,0.0,1.7256,1.7812,1.8884,1.989,2.0607,2.2259,2.3492,2.3909,2.4289,2.4473,2.44,2.4891,2.5184,2.5109,2.5797,2.5883,2.5191,2.6429,2.7202,2.7369,2.8104,2.8456,2.8373,2.7401,2.6514,2.5759,2.4557,2.358,2.2778,2.2663,2.2483,2.2309,2.2309,2.2575,2.2922,2.2325,2.2376,2.2767,2.2483,2.2084,2.1735,0.0,0.0,0.0,0.0,0.0,0.0,0.0,1.1432,1.1902,1.2758,1.2854,1.3091,1.3738,1.3241,1.2962,1.3197,0.0,0.0,0.0,0.0,0.0,0.0,0.0,0.0,0.0,0.0,0.0,0.0,0.0,0.0,0.0,0.0,1.262,1.2069,1.2015,1.1879,0.0,0.0,0.0,0.0,0.0,0.0,1.2242,0.0,0.0,0.0,0.0,0.0,0.0,0.0,0.0,0.0,0.0,0.0,0.0,0.0,1.5128,1.628,1.7297,1.8152,1.8749,1.8558,1.8097,1.7528,1.6851,1.6052,1.5359,1.5068,1.483,1.4778,1.5029,0.0,0.0,0.0,1.6687,1.7094,1.7704,1.8749,1.981,2.0824,2.2547,2.3727,2.3895,2.4207,2.4483,2.4664,2.5138,2.5568,2.5853,2.6549,2.6634,2.5938,2.6877,2.7513,2.7745,2.8106,2.8277,2.8212,2.7388,2.6667,2.5993,2.4777,2.3859,2.3218,2.3121,2.2983,0.0,2.3122,2.346,2.3765,2.3232,2.3292,2.3643,2.3307,2.294,2.2609,0.0,0.0,0.0,0.0,0.0,0.0,0.0,0.0,0.0,1.2178,1.2237,1.2617,1.3575,1.2847,1.2617,1.345,0.0,0.0,0.0,0.0,0.0,0.0,0.0,0.0,0.0,0.0,0.0,1.2723,1.2949,1.318,1.342,0.0,0.0,1.2508,1.2386,1.2132,0.0,0.0,0.0,0.0,1.2128,1.2228,0.0,0.0,0.0,0.0,0.0,0.0,0.0,0.0,0.0,0.0,0.0,0.0,0.0,0.0,0.0,0.0,0.0,1.7365,1.7976,1.8205,1.7744,1.7135,1.6688,1.586,0.0,0.0,0.0,0.0,0.0,0.0,0.0,0.0,1.6566,1.7067,1.7989,1.8721,1.9725,2.1228,2.2184,2.2759,2.289,2.3687,2.4512,2.5239,2.5407,2.5798,2.6545,2.7341,2.7708,2.7499,2.7484,2.782,2.8569,2.8375,2.823,2.8102,2.7223,2.6659,2.6379,2.4783,2.4056,2.4003,2.3989,2.3906,2.3847,2.4529,2.4701,2.4517,2.4466,2.4419,2.4359,2.4045,2.3893,2.3817,0.0,0.0,0.0,0.0,0.0,0.0,0.0,0.0,0.0,0.0,1.1708,1.1943,1.2446,1.2292,1.231,0.0,0.0,0.0,0.0,0.0,0.0,0.0,0.0,0.0,0.0,0.0,0.0,1.2921,1.338,1.3643,1.3711,1.3892,0.0,0.0,0.0,0.0,0.0,0.0,0.0,0.0,1.226,1.2341,0.0,0.0,0.0,0.0,1.2508,1.2593,0.0,0.0,0.0,0.0,0.0,0.0,0.0,0.0,1.4378,1.4719,1.513,0.0,1.6119,1.5872,1.5845,1.5779,0.0,0.0,0.0,0.0,0.0,0.0,0.0,0.0,0.0,1.6699,1.6971,1.7365,1.8151,1.9735,2.1483,2.3203,2.3614,2.3768,2.379,2.4537,2.5109,2.5295,2.643,2.7229,2.7418,2.8176,2.8602,2.8556,2.8264,2.8192,2.8375,2.823,2.8117,2.8102,2.7892,2.7366,2.6619,2.606,2.5506,2.4978,2.486,2.4803,2.4776,2.4954,2.4917,2.4664,2.4109,2.3736,2.3491,2.3242,2.2761,2.2349,0.0,0.0,0.0,0.0,0.0,0.0,0.0,0.0,0.0,0.0,0.0,0.0,0.0,0.0,0.0,0.0,0.0,0.0,0.0,0.0,0.0,0.0,0.0,0.0,0.0,0.0,0.0,0.0,0.0,1.3846,0.0,0.0,0.0,0.0,0.0,0.0,0.0,0.0,0.0,0.0,1.2341,0.0,0.0,0.0,0.0,0.0,1.2508,1.2761,0.0,1.3118,1.3459,1.3884,0.0,0.0,0.0,0.0,1.4285,1.4423,1.4505,1.5008,1.5469,1.5304,1.5343,1.5359,1.522,0.0,0.0,0.0,0.0,0.0,0.0,0.0,0.0,1.6862,1.7216,1.7839,1.9127,2.0645,2.2164,2.3609,2.4177,2.4514,2.4648,2.5369,2.5988,2.6374,2.7211,2.7829,2.8104,2.8529,2.8718,2.8637,2.8405,2.834,2.844,2.8117,2.8036,2.8182,2.7936,2.7658,2.7313,2.6687,2.6232,2.5938,2.5882,2.5773,2.5697,2.5697,2.5542,2.5227,2.4495,2.4039,2.3772,2.3612,2.336,2.3209,0.0,0.0,0.0,0.0,0.0,0.0,0.0,0.0,0.0,0.0,0.0,0.0,0.0,0.0,0.0,0.0,0.0,0.0,0.0,0.0,0.0,0.0,0.0,0.0,0.0,0.0,0.0,0.0,0.0,0.0,0.0,0.0,1.4467,0.0,0.0,0.0,0.0,0.0,0.0,1.2184,1.2409,0.0,0.0,0.0,0.0,0.0,0.0,0.0,0.0,1.3669,1.4142,1.4676,1.4523,0.0,0.0,0.0,0.0,0.0,1.438,1.4923,1.5454,1.5403,1.536,1.5318,1.525,0.0,0.0,0.0,0.0,0.0,0.0,1.5955,0.0,1.7052,1.7636,1.8624,2.0478,2.1489,2.2398,2.3366,2.4249,2.4867,2.5071,2.5932,2.6783,2.7474,2.7749,2.8097,2.8581,2.8586,2.8521,2.8358,2.8324,2.8405,2.8634,2.8165,2.8066,2.834,2.7854,2.779,2.8084,2.7068,2.6719,2.6878,2.6878,2.6768,2.6609,2.6576,2.6264,2.5707,2.5051,2.4503,2.409,2.4001,2.4176,2.4478,0.0,0.0,0.0,0.0,0.0,0.0,0.0,0.0,0.0,0.0,0.0,0.0,0.0,0.0,0.0,0.0,0.0,0.0,0.0,0.0,0.0,0.0,0.0,1.2088,0.0,0.0,0.0,0.0,0.0,0.0,1.4697,1.5685,1.5526,0.0,0.0,0.0,0.0,0.0,1.2345,1.244,1.2481,0.0,0.0,0.0,0.0,0.0,0.0,0.0,0.0,1.3989,1.4378,1.467,1.4412,0.0,0.0,0.0,0.0,0.0,1.4756,1.5352,1.561,1.4719,1.4774,1.496,1.4557,0.0,0.0,0.0,0.0,0.0,0.0,1.6336,1.6904,1.7786,1.8938,2.0227,2.1649,2.2316,2.2958,2.3727,2.4064,2.4193,2.4116,2.5558,2.6545,2.6672,2.7935,2.8688,2.8586,2.8586,2.8588,2.8553,2.8389,2.8488,2.8848,2.8586,2.8507,2.8553,2.8292,2.8147,2.8102,2.7732,2.7597,2.7631,2.7631,2.7614,2.7581,2.7402,2.6503,2.5197,2.492,2.3785,2.2303,2.2396,2.2618,2.3018,0.0,0.0,0.0,0.0,0.0,0.0,0.0,0.0,0.0,0.0,0.0,0.0,0.0,0.0,0.0,0.0,0.0,0.0,0.0,0.0,0.0,0.0,1.2656,1.2578,1.231,0.0,0.0,0.0,0.0,1.5417,1.6056,1.6258,1.5777,1.4729,0.0,0.0,0.0,0.0,1.244,1.2508,0.0,0.0,0.0,0.0,0.0,0.0,0.0,0.0,0.0,0.0,1.4346,1.4988,1.4455,0.0,0.0,0.0,0.0,0.0,1.4538,1.4934,1.5181,1.4855,1.5303,1.5722,0.0,0.0,0.0,0.0,0.0,0.0,0.0,1.6999,1.7934,1.9427,2.0309,2.1131,2.2082,2.2547,2.3173,2.4157,2.4811,2.5211,2.5297,2.6816,2.7619,2.7192,2.8152,2.8653,2.844,2.8377,2.833,2.833,2.8247,2.8312,2.8569,2.8488,2.8488,2.8586,2.8212,2.8052,2.8102,2.7889,2.7808,2.7808,2.7808,2.7742,2.7592,2.7105,2.635,2.5438,2.4544,2.3595,2.2731,2.2903,2.3278,2.3841,0.0,0.0,0.0,0.0,0.0,0.0,0.0,0.0,0.0,0.0,0.0,0.0,0.0,0.0,0.0,0.0,0.0,0.0,0.0,0.0,1.2715,1.2877,1.3095,1.3044,1.2731,0.0,1.4014,1.4828,1.5523,1.6479,1.7623,1.7012,1.617,0.0,0.0,0.0,0.0,1.2681,1.2681,1.2634,0.0,0.0,0.0,0.0,0.0,0.0,0.0,0.0,0.0,0.0,0.0,0.0,0.0,0.0,0.0,1.4525,1.4327,1.418,1.458,1.4774,1.4929,1.5221,0.0,1.6158,0.0,0.0,0.0,0.0,0.0,0.0,0.0,1.7866,1.9115,2.0824,2.1442,2.193,2.2539,2.3032,2.3687,2.4643,2.5618,2.6291,2.6553,2.7802,2.8393,2.7811,2.8291,2.8505,2.831,2.8198,2.8117,2.8102,2.8117,2.8198,2.8292,2.8277,2.836,2.8521,2.8036,2.7891,2.8019,2.7824,2.7711,2.7678,2.7711,2.761,2.7413,2.6783,2.6293,2.5833,2.5166,2.4713,2.4376,2.4086,2.4325,2.483,0.0,0.0,0.0,0.0,0.0,0.0,0.0,0.0,0.0,0.0,0.0,0.0,0.0,0.0,0.0,0.0,0.0,0.0,0.0,0.0,1.2522,1.2545,1.2962,1.3448,1.3965,1.4147,1.4744,1.5799,1.6349,1.7426,1.8956,1.8274,1.7278,1.5998,0.0,0.0,0.0,0.0,1.3226,1.303,1.2639,0.0,0.0,0.0,0.0,0.0,0.0,0.0,0.0,0.0,0.0,0.0,0.0,0.0,1.4606,1.5074,1.4686,1.4352,1.5491,1.5565,1.5386,1.5524,0.0,0.0,0.0,0.0,0.0,0.0,0.0,0.0,0.0,1.9075,2.0282,2.1212,2.2109,2.2904,2.351,2.4374,2.5002,2.5224,2.5977,2.6553,2.6769,2.738,2.7849,2.7968,2.8355,2.8505,2.831,2.8293,2.8229,2.8102,2.823,2.8293,2.8292,2.8182,2.8182,2.8324,2.7971,2.7808,2.7807,2.761,2.7449,2.7338,2.7466,2.7449,2.7307,2.7074,2.6525,2.6077,2.7832,2.8107,2.7271,2.5465,2.4809,2.4877,0.0,0.0,0.0,0.0,0.0,0.0,0.0,0.0,0.0,0.0,0.0,0.0,0.0,0.0,0.0,0.0,0.0,0.0,0.0,0.0,1.263,1.2911,1.3278,1.3648,1.409,1.4889,1.5844,1.6958,1.8414,1.9283,1.958,1.8957,0.0,0.0,0.0,0.0,0.0,0.0,1.3088,1.3417,1.2851,1.2655,0.0,0.0,0.0,0.0,0.0,0.0,0.0,0.0,1.5122,1.5104,0.0,1.4758,1.4717,1.5172,1.4789,1.4409,1.5288,1.5401,1.533,1.555,0.0,0.0,0.0,0.0,0.0,0.0,0.0,0.0,0.0,2.0132,2.1039,2.1835,2.2634,2.3496,2.4434,2.4944,2.561,2.6672,2.7047,2.7282,2.7343,2.8022,2.8266,2.7843,2.8305,2.8505,2.831,2.8292,2.8275,2.8229,2.818,2.823,2.8292,2.8034,2.7956,2.7987,2.7724,2.7677,2.779,2.75,2.7402,2.7417,2.7497,2.7352,2.7231,2.8603,2.8881,2.8484,2.8791,2.8651,2.8037,2.5829,2.522,2.5492,0.0,0.0,0.0,0.0,0.0,0.0,0.0,0.0,0.0,0.0,0.0,0.0,0.0,0.0,0.0,0.0,0.0,0.0,0.0,1.2368,1.2599,1.2962,1.3349,1.3746,1.4226,1.5408,1.6509,1.746,1.9546,2.0234,1.957,0.0,0.0,0.0,0.0,0.0,0.0,0.0,0.0,0.0,1.2961,1.2733,0.0,0.0,0.0,0.0,0.0,0.0,0.0,0.0,1.5207,1.5217,0.0,0.0,0.0,1.5722,1.5463,1.5091,1.5531,1.5461,1.5339,0.0,0.0,0.0,0.0,0.0,0.0,0.0,0.0,0.0,0.0,0.0,2.1337,2.216,2.3127,2.4107,2.503,2.5688,2.6467,2.7567,2.7916,2.8099,2.8143,2.8597,2.8692,2.8181,2.8372,2.844,2.831,2.8292,2.8275,2.8247,2.8182,2.8182,2.8247,2.8655,2.8505,2.7808,2.9064,2.8942,2.7629,2.7337,2.7223,2.7253,2.7301,2.719,2.7017,2.8639,2.955,2.979,2.86,2.8444,2.8589,2.6235,2.5586,2.5874,0.0,0.0,0.0,0.0,0.0,0.0,0.0,0.0,0.0,0.0,0.0,0.0,0.0,0.0,0.0,0.0,0.0,0.0,0.0,1.2215,1.2355,1.2494,1.3068,1.3743,1.4478,1.567,1.6592,1.7215,1.9416,1.9949,1.8884,1.8281,0.0,0.0,0.0,0.0,0.0,0.0,0.0,0.0,1.2951,1.2834,1.306,0.0,0.0,0.0,0.0,0.0,0.0,0.0,1.5524,1.4998,0.0,0.0,0.0,1.6865,1.6869,1.6488,1.6419,1.5968,1.5515,0.0,0.0,0.0,0.0,0.0,0.0,0.0,0.0,2.0254,2.0718,2.08,2.1139,2.215,2.3575,2.4754,2.5242,2.669,2.7712,2.7712,2.8398,2.8945,2.9086,2.8975,2.8945,2.9086,2.86,2.8292,2.8292,2.831,2.8265,2.8138,2.8283,2.8301,2.8174,3.0211,3.0087,2.7879,3.2199,3.1816,2.7307,2.7127,2.6915,2.6718,2.6914,2.6897,2.6702,2.6719,2.7919,2.9556,2.7376,2.7747,2.9214,2.6789,2.5891,2.5874,0.0,0.0,0.0,0.0,0.0,0.0,0.0,0.0,0.0,0.0,0.0,0.0,0.0,0.0,0.0,0.0,0.0,0.0,1.2084,1.2006,1.2078,1.2355,1.284,1.3315,1.3715,1.5089,1.67,1.8542,1.938,1.9323,1.8409,1.8076,0.0,1.6342,0.0,0.0,0.0,0.0,0.0,0.0,1.3562,1.3169,1.3213,0.0,0.0,0.0,0.0,0.0,0.0,0.0,0.0,0.0,1.5905,0.0,1.6432,1.6861,1.6754,1.6524,1.659,1.6333,0.0,1.6258,0.0,0.0,0.0,0.0,0.0,0.0,2.1424,2.1383,2.1424,2.1649,2.192,2.2123,2.3457,2.4776,2.5732,2.68,2.7756,2.8456,2.875,2.8931,2.8964,2.8931,2.8866,2.8764,2.8586,2.8425,2.8165,2.9957,3.083,3.0494,3.2219,3.3045,3.2818,3.3317,3.2443,3.0212,3.1356,3.0404,2.7683,2.8863,2.8569,2.7127,2.7045,2.6897,2.6805,2.838,3.1111,3.3902,3.0195,2.906,2.9214,2.6789,2.5891,2.5874,0.0,0.0,0.0,0.0,0.0,0.0,0.0,0.0,0.0,0.0,1.2224,1.2301,0.0,0.0,0.0,0.0,0.0,0.0,0.0,0.0,1.2033,1.2287,1.2799,1.3397,1.4106,1.5089,1.6351,1.7907,1.8369,1.8166,1.7371,0.0,1.7345,1.656,0.0,1.6617,0.0,0.0,1.4649,1.4728,1.388,1.3515,1.3531,0.0,0.0,0.0,0.0,0.0,0.0,0.0,0.0,0.0,0.0,0.0,0.0,1.7087,1.7178,1.7181,1.7262,1.7213,0.0,1.7376,1.7887,1.8583,1.9513,0.0,0.0,0.0,2.1886,2.194,2.2038,2.2099,2.2231,2.2485,2.3891,2.5271,2.6147,2.7193,2.8101,2.8695,2.8718,2.8651,2.8651,2.8651,2.8989,2.9785,2.9896,3.0212,3.0888,3.255,3.3329,3.297,3.4429,3.4658,3.3497,3.4239,3.2989,2.9874,3.1571,3.0723,2.7714,2.8619,2.8379,2.7227,2.7914,2.8072,2.7953,2.9313,3.1257,3.3034,2.9538,2.811,2.7818,2.6373,2.5826,2.581,0.0,0.0,1.1259,1.1391,0.0,0.0,0.0,0.0,0.0,0.0,1.2228,1.2314,0.0,0.0,0.0,0.0,0.0,0.0,0.0,0.0,1.217,1.2328,1.2962,1.3873,1.5111,1.5386,1.5657,1.6003,1.6737,1.6749,1.6155,0.0,1.7246,1.6686,0.0,1.7549,1.7025,1.6017,1.521,1.454,1.4039,1.3846,1.3929,1.4832,0.0,0.0,0.0,0.0,0.0,0.0,0.0,0.0,1.6649,1.6764,1.6876,1.7428,1.7856,1.8191,1.8214,1.8297,0.0,1.8789,1.892,0.0,2.0321,2.1269,2.195,2.2099,2.2151,2.2257,2.259,2.24,2.2452,2.3152,2.469,2.5948,2.6448,2.7696,2.8572,2.8569,2.8589,2.8619,2.8619,2.88,2.9763,3.1843,3.2095,3.303,3.5038,3.5583,3.5727,3.547,3.547,3.4385,3.2103,3.372,3.2368,2.8132,3.2262,3.1869,2.7482,2.7384,2.7307,2.7378,2.9202,3.006,3.0182,2.9844,2.959,2.9174,2.6805,2.5826,2.5697,2.5697,2.5697,2.5697,0.0,0.0,1.1404,1.1527,0.0,0.0,0.0,0.0,0.0,0.0,0.0,0.0,0.0,0.0,0.0,0.0,0.0,0.0,0.0,0.0,1.2256,1.2597,1.3542,1.4245,1.464,1.4708,1.4894,1.5237,1.5863,1.6219,0.0,0.0,0.0,1.7836,0.0,1.7908,1.76,1.6132,1.5402,1.5154,1.4467,1.4122,1.4117,1.4795,1.4984,0.0,0.0,0.0,0.0,0.0,0.0,0.0,1.6628,1.6881,1.7274,1.7395,1.7689,1.8028,1.8346,1.8629,0.0,2.0033,2.0635,2.0985,2.1051,2.1567,2.2096,2.2231,2.329,2.3915,2.3075,2.3785,2.437,2.3968,2.4836,2.5856,2.6695,2.7617,2.8247,2.8358,2.9906,3.0976,3.0976,3.26,3.3783,3.4108,3.4144,3.4331,3.47,3.6644,3.7622,3.74,3.7449,3.7198,3.6611,3.4946,3.2827,3.0228,3.1119,3.0066,2.7407,2.9124,2.9692,2.9391,2.9814,3.1785,3.4457,3.1089,3.0474,3.1233,2.7402,2.5826,2.5697,2.5697,2.5697,2.5697,0.0,0.0,0.0,0.0,0.0,0.0,0.0,0.0,0.0,0.0,0.0,0.0,0.0,0.0,0.0,0.0,0.0,0.0,0.0,0.0,1.2378,1.3014,1.3794,1.4296,1.4491,1.4448,1.4661,1.5184,1.5245,0.0,0.0,0.0,0.0,1.7997,0.0,1.8584,1.7972,1.6746,1.5991,1.5569,1.4794,1.441,1.4363,1.5025,1.5129,1.5013,1.5925,0.0,0.0,0.0,0.0,0.0,0.0,0.0,1.7158,1.7331,1.7526,1.7782,1.8392,1.9079,0.0,2.0923,2.1502,2.1719,2.1491,2.172,2.2291,2.3284,2.4236,2.4662,2.3943,2.4863,2.5356,2.4274,2.6178,2.7972,2.8467,3.003,3.1192,3.1391,3.217,3.2804,3.3067,3.4037,3.513,3.626,3.645,3.6966,3.7949,3.9352,4.0009,3.9772,3.9674,3.8548,3.6254,3.4712,3.2342,2.9192,2.9106,2.895,2.8794,2.9973,3.0326,3.0101,3.2075,3.4065,3.5664,3.232,3.14,3.1694,2.7446,2.5761,2.5697,2.5697,2.5697,2.5697,0.0,0.0,0.0,0.0,0.0,0.0,0.0,0.0,0.0,0.0,0.0,0.0,0.0,0.0,0.0,0.0,0.0,0.0,0.0,0.0,0.0,1.3363,1.3821,1.4218,1.4573,1.4346,1.4601,1.5371,0.0,0.0,0.0,0.0,0.0,1.797,0.0,1.9049,1.8141,1.716,1.6379,1.5731,1.4919,1.4565,1.4599,0.0,0.0,1.5124,1.59,1.6117,1.6115,1.6492,0.0,0.0,0.0,0.0,1.6844,1.7234,1.7359,1.7522,1.8316,1.9515,2.0783,2.1811,2.2104,2.2127,2.2029,2.1945,2.2501,2.4601,2.4962,2.5032,2.5412,2.6237,2.6566,2.5703,2.8491,3.0674,3.0389,3.2618,3.4235,3.4082,3.4253,3.4574,3.501,3.5179,3.6153,3.8279,3.8666,3.9608,4.1419,4.1755,4.1779,4.1507,4.0877,3.8513,3.4262,3.3524,3.1337,2.775,2.8048,2.8881,3.0202,3.09,3.1181,3.1252,3.4578,3.6105,3.6018,3.3773,3.2485,3.1518,2.7717,2.601,2.5697,2.5697,2.5697,2.5697,0.0,0.0,0.0,0.0,0.0,0.0,0.0,0.0,0.0,0.0,1.2224,1.2301,0.0,1.2184,1.2111,1.2125,1.2098,1.2075,1.2116,0.0,0.0,1.3376,1.3681,1.4187,1.4921,1.4226,1.4311,1.5228,0.0,0.0,0.0,0.0,0.0,1.8822,0.0,0.0,1.8092,1.642,1.5618,1.5387,1.4532,1.4379,1.4665,0.0,0.0,0.0,0.0,1.5936,1.6314,1.6666,1.6768,0.0,0.0,0.0,1.6682,1.7039,1.7142,1.7309,1.8046,1.9843,2.1833,2.318,2.3097,2.2793,2.3167,2.255,2.2691,2.5438,2.5244,2.5417,2.8169,2.8897,2.9594,3.1211,3.213,3.2138,3.0678,3.2452,3.3176,3.1304,3.4416,3.6774,3.6857,3.8556,3.9805,4.0136,4.0416,4.0601,4.0652,4.0917,4.0934,4.0669,3.8618,3.6343,3.3984,3.1507,3.0011,2.9562,3.1024,3.1013,2.9798,3.3344,3.5078,3.5296,3.562,3.6674,3.8044,3.5886,3.3757,3.1684,2.9321,2.7291,2.5697,2.5697,2.5697,2.5697,0.0,0.0,0.0,0.0,0.0,0.0,0.0,0.0,0.0,0.0,0.0,1.2184,1.2184,1.2029,1.1898,1.1825,1.1825,1.1843,1.1925,1.2349,1.2705,1.3,1.3369,1.3746,1.4092,1.3978,1.4129,0.0,0.0,0.0,0.0,1.7657,1.8231,0.0,0.0,0.0,0.0,0.0,0.0,1.5505,1.4741,1.4614,0.0,0.0,0.0,0.0,0.0,0.0,0.0,0.0,1.6747,1.6752,1.7153,0.0,0.0,0.0,1.6882,1.718,1.8817,2.005,2.1347,2.3398,2.3176,2.2861,2.434,2.3875,2.3737,2.5875,2.5671,2.5775,2.7901,3.0514,3.195,3.0738,3.2205,3.3206,3.2354,3.4136,3.5243,3.4423,3.6852,3.8709,3.9005,3.9796,4.0339,4.0483,4.0621,4.0628,4.05,4.0621,4.0628,4.0483,3.918,3.746,3.5381,3.2677,3.074,2.9604,3.2759,3.3825,3.3116,3.6002,3.6785,3.5934,3.6903,3.7823,3.8433,3.6117,3.3873,3.17,2.9596,2.7538,2.5697,2.5697,2.5697,2.5697,0.0,0.0,0.0,0.0,0.0,0.0,0.0,0.0,0.0,0.0,0.0,1.2098,1.2098,0.0,0.0,0.0,1.1595,1.1662,1.1789,1.2123,1.2417,1.2638,1.3138,1.3469,1.36,1.395,1.4205,0.0,0.0,0.0,1.7601,1.8054,1.8594,0.0,1.8862,0.0,0.0,0.0,0.0,0.0,0.0,0.0,0.0,0.0,0.0,0.0,0.0,0.0,0.0,0.0,0.0,1.6687,1.7104,1.6952,0.0,0.0,0.0,1.7132,1.991,2.0328,2.0669,2.3577,2.3432,2.3081,2.4982,2.4965,2.489,2.6061,2.6967,2.7697,2.824,3.1484,3.3539,3.1906,3.3801,3.5201,3.4428,3.6237,3.7471,3.7147,3.8645,3.9873,4.0259,4.0114,4.0073,4.0283,4.0363,4.0363,4.029,4.029,4.0266,4.0194,3.9728,3.8457,3.6323,3.429,3.2176,3.009,3.4327,3.6082,3.5651,3.7608,3.7712,3.6419,3.7867,3.8482,3.8321,3.5981,3.3771,3.17,2.9596,2.7538,2.5697,2.5697,2.5697,2.5697,0.0,0.0,0.0,0.0,0.0,0.0,0.0,0.0,0.0,0.0,0.0,1.2098,1.2098,1.1925,1.1748,1.1608,1.1595,1.1662,1.1789,1.1829,1.2042,1.2494,1.3086,0.0,1.4151,1.4375,0.0,0.0,0.0,0.0,1.7797,1.8258,1.922,2.0466,1.9631,1.9033,1.8571,0.0,0.0,0.0,0.0,0.0,0.0,0.0,0.0,0.0,0.0,0.0,0.0,0.0,0.0,0.0,0.0,1.6725,1.6605,0.0,0.0,0.0,2.1124,2.0813,2.0279,2.4165,2.4372,2.3853,2.4738,2.5388,2.5857,2.599,2.9649,3.235,3.0908,3.1722,3.4047,3.8424,3.9502,3.8974,3.6679,3.82,3.8803,3.678,3.8418,3.9704,3.9728,3.9728,3.9728,3.9728,3.9986,4.001,3.9777,3.9728,3.9632,3.9367,3.9109,3.7901,3.5774,3.5344,3.4123,3.2091,3.6146,3.7105,3.5391,3.7316,3.8168,3.808,3.8168,3.8225,3.8056,3.5896,3.3771,3.17,2.9596,2.7538,2.5697,2.5697,2.5697,2.5697,0.0,0.0,0.0,0.0,0.0,0.0,0.0,0.0,0.0,0.0,0.0,0.0,0.0,1.1925,1.1748,1.1608,1.169,1.1708,1.1667,1.187,1.2065,1.2238,1.2985,1.3481,1.3677,0.0,0.0,0.0,0.0,1.6222,1.7303,1.7985,1.8947,2.006,1.9545,1.9143,1.8826,1.7659,0.0,0.0,0.0,0.0,0.0,0.0,0.0,0.0,0.0,0.0,0.0,0.0,0.0,0.0,0.0,0.0,0.0,0.0,1.7778,1.864,2.1106,2.1758,2.2365,2.4999,2.5477,2.5916,2.8218,2.9097,2.9458,2.9622,3.0583,3.1834,3.3233,3.5484,3.7245,3.7591,3.7727,3.7504,3.6618,3.7172,3.7356,3.6584,3.8401,3.9704,3.9704,3.9704,3.9704,3.9704,3.9801,3.9728,3.9446,3.9439,3.9326,3.9044,3.882,3.7597,3.527,3.6508,3.6113,3.4029,3.6853,3.7848,3.7187,3.7864,3.8192,3.8192,3.8192,3.8192,3.8032,3.588,3.3771,3.17,2.9596,2.7538,2.5697,2.5697,2.5697,2.5697,0.0,0.0,0.0,0.0,0.0,1.2269,0.0,0.0,0.0,0.0,0.0,0.0,0.0,0.0,1.1906,1.1775,1.1857,1.1861,1.1775,1.198,1.2204,1.2464,1.3227,1.3718,1.3904,0.0,0.0,0.0,0.0,0.0,0.0,1.7762,1.8675,1.9687,1.9277,1.9208,0.0,0.0,0.0,1.6993,0.0,0.0,1.6722,0.0,0.0,0.0,0.0,0.0,0.0,0.0,0.0,0.0,0.0,0.0,0.0,0.0,0.0,0.0,2.2223,2.28,2.3386,2.5921,2.6272,2.6779,2.9756,3.0827,3.122,3.133,3.1922,3.2998,3.4913,3.7626,3.9118,3.7792,3.7574,3.7574,3.7574,3.7574,3.7574,3.7574,3.8829,3.9573,3.9244,3.9427,3.9452,3.9124,3.9306,3.935,3.9174,3.9093,3.8949,3.8667,3.8539,3.7702,3.6083,3.7487,3.7487,3.6083,3.7519,3.8192,3.8192,3.8192,3.8192,3.816,3.7439,3.7134,3.695,3.4842,3.2739,3.0655,2.8569,2.6913,2.5697,2.5697,2.5697,2.5697,0.0,1.2996,1.2935,1.2746,1.2485,1.2314,0.0,0.0,0.0,0.0,0.0,0.0,0.0,0.0,0.0,1.2139,1.2125,1.2125,1.2111,1.2121,1.2455,1.3161,1.3811,1.4378,1.4895,0.0,0.0,0.0,0.0,0.0,0.0,0.0,1.8457,1.9447,1.8943,1.9216,2.0005,0.0,1.8612,1.8069,0.0,1.6968,1.6903,0.0,0.0,0.0,1.8455,1.8316,0.0,1.7615,0.0,0.0,0.0,0.0,0.0,0.0,0.0,0.0,0.0,0.0,0.0,2.6901,2.676,2.6359,2.8925,3.0193,3.0835,3.0831,3.3727,3.6211,3.5909,3.7696,3.9284,3.9615,3.9688,3.9688,3.9671,3.9688,3.9688,3.9671,3.9671,3.9308,3.8409,3.8898,3.8892,3.7959,3.8516,3.8876,3.8859,3.8692,3.8474,3.8208,3.8192,3.8192,3.8192,3.8192,3.8192,3.8192,3.8192,3.8192,3.8192,3.8192,3.8192,3.808,3.6002,3.502,3.4745,3.267,3.0623,2.8585,2.652,2.5697,2.5697,2.5697,2.5697,2.5697,1.2824,1.2979,1.3095,1.2935,1.2863,1.2758,0.0,0.0,0.0,0.0,0.0,0.0,0.0,0.0,0.0,1.2539,1.2758,1.2745,1.2409,1.2799,1.3134,1.3346,1.4191,1.4815,0.0,0.0,0.0,0.0,0.0,0.0,0.0,0.0,0.0,0.0,1.8882,1.8931,1.8878,1.7993,0.0,1.8451,1.7486,1.769,0.0,0.0,0.0,0.0,0.0,1.9879,2.0835,0.0,2.0804,2.1713,0.0,0.0,0.0,0.0,0.0,0.0,2.4396,0.0,0.0,0.0,0.0,0.0,2.939,3.0514,3.172,3.3447,3.3609,3.4278,3.7023,3.6949,3.7063,3.8838,3.9439,3.9521,3.9053,3.9387,3.9441,3.8776,3.8851,3.8913,3.8749,3.8654,3.839,3.7941,3.8516,3.8607,3.7912,3.8152,3.8281,3.8192,3.8192,3.8192,3.8192,3.8192,3.8192,3.8192,3.8192,3.8192,3.8192,3.8192,3.8192,3.816,3.7567,3.5584,3.2605,3.0512,2.9321,2.8585,2.652,2.5697,2.5697,2.5697,2.5697,2.5697,1.2942,1.3115,1.3261,1.318,1.3176,1.3142,0.0,0.0,0.0,0.0,0.0,0.0,0.0,0.0,0.0,0.0,1.3258,1.32,1.2816,1.3232,1.3563,1.3761,1.451,1.5136,0.0,0.0,0.0,0.0,0.0,0.0,0.0,0.0,0.0,0.0,1.8123,1.822,0.0,0.0,0.0,0.0,1.7879,0.0,0.0,1.9857,2.0468,0.0,0.0,0.0,2.3633,2.2707,2.3013,0.0,0.0,0.0,0.0,0.0,0.0,0.0,0.0,0.0,0.0,2.6968,0.0,0.0,2.9707,3.0517,3.1525,3.3711,3.3777,3.4263,3.7007,3.6814,3.6772,3.836,3.9045,3.9142,3.8456,3.8799,3.8859,3.8201,3.8373,3.8366,3.7947,3.8214,3.8059,3.7221,3.8052,3.8377,3.7813,3.804,3.8192,3.8192,3.8192,3.8192,3.8192,3.8192,3.8144,3.8047,3.816,3.8144,3.8047,3.816,3.8192,3.8096,3.634,3.418,3.1684,2.8716,2.7521,2.7389,2.6174,2.624,2.6979,2.6979,2.7538,2.8192,0.0,1.3346,1.342,1.3471,1.3498,0.0,0.0,0.0,0.0,0.0,0.0,0.0,0.0,0.0,0.0,0.0,1.3753,1.3604,1.336,1.3601,0.0,0.0,1.4832,1.5429,0.0,0.0,0.0,0.0,0.0,0.0,0.0,0.0,0.0,0.0,1.7093,1.7336,1.771,0.0,0.0,1.7888,1.8309,1.8748,0.0,0.0,2.2642,2.3212,2.5223,2.6066,2.6105,2.5402,2.5041,0.0,0.0,0.0,0.0,0.0,2.5804,0.0,0.0,0.0,0.0,0.0,2.7692,0.0,2.9616,3.0133,3.0591,3.2287,3.3644,3.4905,3.6074,3.6742,3.7234,3.7636,3.8177,3.8374,3.7952,3.8098,3.8135,3.7779,3.7966,3.7722,3.668,3.7714,3.7837,3.6345,3.7383,3.8112,3.8192,3.8168,3.8168,3.8192,3.8168,3.8168,3.8192,3.8168,3.8047,3.7805,3.7999,3.7983,3.7765,3.8047,3.8016,3.76,3.3868,3.1972,3.1277,2.757,2.6043,2.6043,2.6043,2.7226,2.8912,2.8912,2.9987,3.1277,1.3518,1.3545,1.3651,1.3927,1.4136,0.0,0.0,0.0,0.0,0.0,0.0,0.0,0.0,0.0,0.0,0.0,0.0,1.4306,1.4252,1.4499,0.0,0.0,1.574,1.6036,1.6056,0.0,0.0,0.0,0.0,0.0,0.0,0.0,0.0,0.0,1.7093,1.7006,1.6871,0.0,0.0,1.7538,1.8053,1.9065,2.031,2.0538,2.1181,2.2181,2.3768,2.5529,2.731,2.8818,2.8598,2.7538,0.0,0.0,0.0,2.5693,0.0,0.0,0.0,0.0,0.0,0.0,2.8415,0.0,2.7696,2.8512,2.9729,3.0315,3.115,3.2315,3.403,3.4779,3.5045,3.4706,3.5527,3.6571,3.7738,3.7957,3.7657,3.6804,3.6939,3.7073,3.6978,3.7433,3.7481,3.6942,3.7166,3.7567,3.816,3.7999,3.7991,3.8192,3.7983,3.7991,3.8192,3.7983,3.7862,3.7805,3.762,3.7524,3.75,3.7765,3.694,3.5268,3.4657,3.2508,2.9337,2.8536,2.8192,2.8192,2.8192,2.8763,2.9596,2.9596,2.9192,2.8554,1.3697,1.3776,1.3946,1.4256,0.0,0.0,0.0,0.0,0.0,0.0,0.0,0.0,0.0,0.0,0.0,0.0,0.0,0.0,0.0,0.0,0.0,1.5399,1.5881,1.6228,1.6396,1.6535,0.0,0.0,0.0,0.0,0.0,0.0,0.0,0.0,0.0,0.0,0.0,0.0,1.7466,1.7721,1.8517,0.0,2.1756,2.2812,2.4285,2.6054,2.7671,2.8676,2.9265,2.9323,2.9211,0.0,2.7423,2.7457,2.7863,0.0,2.7313,2.7639,0.0,0.0,0.0,2.8584,2.8801,0.0,0.0,2.8308,2.8861,2.9811,3.0203,3.0853,3.234,3.2809,3.305,3.3171,3.4224,3.5266,3.5904,3.6378,3.6462,3.592,3.5984,3.6179,3.6378,3.6933,3.7404,3.7616,3.7513,3.7688,3.816,3.7966,3.791,3.8192,3.8071,3.8071,3.8192,3.7926,3.7717,3.7596,3.7476,3.7403,3.7419,3.7685,3.671,3.4746,3.3744,3.179,2.9204,2.8119,2.8456,2.9562,2.8147,2.9146,3.131,3.0474,3.0231,3.0214,1.3887,1.4,1.4174,1.445,0.0,0.0,0.0,0.0,0.0,0.0,0.0,0.0,0.0,0.0,0.0,0.0,0.0,0.0,0.0,0.0,0.0,1.558,1.5922,1.6282,1.6644,1.6617,0.0,0.0,0.0,0.0,0.0,0.0,0.0,0.0,0.0,0.0,0.0,0.0,0.0,1.8255,1.9843,2.1292,2.2737,2.4933,2.7238,2.9539,3.1524,3.1969,3.1364,2.9601,2.9495,2.9823,2.8316,2.8925,0.0,0.0,0.0,0.0,0.0,0.0,0.0,2.9972,2.955,2.9017,0.0,0.0,0.0,2.9536,2.9682,2.9936,3.0842,3.0998,3.1191,3.1747,3.3015,3.3812,3.3468,3.4232,3.4827,3.4773,3.4999,3.5189,3.5235,3.6008,3.6869,3.7792,3.7527,3.7534,3.8007,3.783,3.7845,3.8111,3.8071,3.8096,3.8192,3.7814,3.7572,3.7403,3.7346,3.7103,3.672,3.7036,3.5927,3.3626,3.1834,3.0254,2.8823,2.7018,2.7906,3.0203,2.8088,2.9395,3.2336,3.1249,3.129,3.1886,1.4179,1.4171,1.4174,1.445,0.0,0.0,0.0,0.0,0.0,0.0,0.0,0.0,0.0,0.0,0.0,0.0,0.0,0.0,1.6732,0.0,0.0,0.0,1.6417,0.0,1.6104,1.6422,0.0,0.0,0.0,0.0,0.0,0.0,0.0,0.0,1.9233,0.0,0.0,0.0,2.0288,1.9174,2.2631,2.3132,2.198,2.3367,2.5088,2.7098,2.9903,3.1877,3.3036,3.2274,3.1905,3.1652,0.0,3.0326,3.0167,3.0029,0.0,0.0,0.0,3.1916,3.2602,3.0105,3.1505,3.2385,2.8223,0.0,2.9863,2.838,0.0,2.9199,2.9574,0.0,0.0,2.9127,3.048,3.1454,3.1056,3.2045,3.2857,3.2902,3.3752,3.4145,3.3609,3.4041,3.4975,3.6492,3.598,3.6148,3.7404,3.7476,3.7572,3.783,3.7612,3.7717,3.8192,3.7476,3.7194,3.7403,3.7146,3.6061,3.4228,3.4722,3.2852,2.9158,2.9128,2.7888,2.5877,2.5616,2.7175,2.9767,3.0217,3.0471,3.0695,3.1475,3.062,2.9177,1.3965,1.4065,1.4174,1.445,0.0,0.0,0.0,0.0,0.0,0.0,0.0,0.0,0.0,0.0,0.0,0.0,0.0,1.7373,0.0,0.0,0.0,0.0,0.0,0.0,0.0,1.6849,1.6785,0.0,1.7243,0.0,0.0,0.0,0.0,0.0,2.1293,0.0,2.1654,2.258,2.1938,2.0555,2.3768,2.4867,2.4786,2.6457,2.8469,3.0567,3.1604,3.2554,3.3155,3.2023,3.2046,3.248,3.1946,3.1796,3.1915,3.2279,3.1888,3.1366,3.1655,3.2538,3.2968,3.1409,3.1808,3.1996,2.9762,2.9334,2.9334,2.8979,0.0,0.0,0.0,0.0,0.0,0.0,2.9601,3.0199,2.9694,3.0602,3.1669,3.2617,3.2748,3.2793,3.2894,3.3434,3.4189,3.5222,3.5001,3.5382,3.6632,3.6847,3.7129,3.7556,3.7476,3.7515,3.7717,3.7249,3.7049,3.7146,3.6887,3.5811,3.4038,3.4269,3.2256,2.8637,2.8554,2.7788,2.6607,2.6371,2.7974,3.0542,3.0093,3.0379,3.1018,3.07,2.9622,2.8638,1.3781,0.0,0.0,0.0,0.0,1.5423,0.0,0.0,0.0,0.0,0.0,0.0,2.0188,1.9332,0.0,0.0,0.0,1.8728,0.0,0.0,1.8132,0.0,0.0,0.0,0.0,0.0,0.0,0.0,0.0,0.0,0.0,0.0,0.0,0.0,0.0,2.3349,2.3942,2.5132,2.4524,2.3038,2.6052,2.7823,2.8777,2.9897,3.1686,3.3587,3.333,3.3373,3.3387,3.2242,3.25,3.3202,3.2964,3.3037,3.3289,3.3706,3.3312,3.2673,3.2328,3.3192,3.3735,3.2028,3.1825,3.1752,3.0615,3.0028,2.9839,3.0128,3.0068,0.0,0.0,0.0,2.8813,0.0,0.0,2.9713,2.9132,2.9649,3.0476,3.1473,3.1422,3.1682,3.2574,3.2703,3.3128,3.4079,3.3888,3.4355,3.5787,3.6195,3.6645,3.7146,3.7249,3.7331,3.7403,3.7049,3.6928,3.7001,3.6871,3.5866,3.4067,3.3727,3.1793,2.8656,2.7919,2.7657,2.7759,2.7459,2.8793,3.0978,3.0399,3.0722,3.1411,3.0474,2.9591,2.9191,1.3795,1.396,0.0,0.0,0.0,0.0,0.0,0.0,0.0,0.0,0.0,0.0,0.0,0.0,0.0,0.0,0.0,1.9992,2.0573,0.0,1.8931,0.0,0.0,1.731,0.0,0.0,1.8782,1.8645,0.0,0.0,0.0,0.0,0.0,0.0,0.0,2.5428,2.5983,2.8814,2.8717,2.7028,3.0562,3.2613,3.3477,3.2496,3.296,3.4175,3.4171,3.4171,3.4171,3.4108,3.4108,3.4175,3.4141,3.3958,3.373,3.3497,3.4221,3.4655,3.2646,3.4521,3.5947,3.1238,3.1909,3.2884,2.9686,3.0876,3.243,3.1602,3.251,3.3265,3.2689,0.0,0.0,0.0,0.0,0.0,0.0,2.9199,2.8912,2.8575,2.9594,3.0978,3.2625,3.1387,3.1249,3.3109,3.2331,3.2733,3.4919,3.5543,3.6074,3.6597,3.6871,3.7137,3.7403,3.6871,3.6735,3.7001,3.7242,3.6116,3.3761,3.2536,3.0669,2.8311,2.655,2.6811,2.8455,2.8439,2.9197,3.048,3.2016,3.205,3.1333,3.1495,3.1105,3.0851,0.0,0.0,0.0,0.0,0.0,0.0,0.0,1.7137,0.0,0.0,0.0,0.0,0.0,2.2218,2.2109,0.0,0.0,2.2071,2.351,2.1789,0.0,0.0,0.0,1.919,0.0,0.0,1.9627,1.923,0.0,0.0,0.0,0.0,0.0,0.0,0.0,2.7201,2.6972,3.0177,3.0322,2.8638,3.1082,3.3191,3.4769,3.3847,3.3924,3.4489,3.4673,3.4851,3.5035,3.5214,3.5421,3.5671,3.607,3.6017,3.6004,3.6698,3.6782,3.659,3.6282,3.7398,3.7823,3.4368,3.4267,3.4266,3.1471,3.21,3.3007,3.2127,3.3433,3.4308,3.2935,0.0,0.0,0.0,0.0,0.0,0.0,2.8234,2.8152,2.8742,2.9458,3.013,3.0692,2.9941,2.9967,3.1311,3.0977,3.1079,3.19,3.3881,3.4705,3.4092,3.565,3.6597,3.6863,3.6678,3.6661,3.6742,3.6839,3.5889,3.3997,3.2191,3.0377,2.8558,2.6417,2.6106,2.7225,2.8505,3.0157,3.1959,3.2838,3.3694,3.4359,3.3519,3.2951,3.291,1.5593,0.0,0.0,0.0,0.0,0.0,0.0,0.0,0.0,0.0,2.1828,0.0,2.4757,0.0,2.3788,0.0,2.3811,2.344,2.4459,2.2997,0.0,2.4562,2.2253,0.0,0.0,2.265,2.2412,2.1704,0.0,2.4894,0.0,0.0,0.0,0.0,0.0,2.8515,2.8338,3.1446,3.2141,3.1254,3.2578,3.3963,3.5092,3.4346,3.4513,3.5195,3.5504,3.5724,3.5934,3.6335,3.6629,3.6856,3.7267,3.7211,3.7198,3.8003,3.8132,3.7947,3.7727,3.8711,3.9097,3.6252,3.6067,3.5916,3.3389,3.4149,3.5071,3.4084,3.5291,3.6211,3.5304,0.0,0.0,0.0,0.0,0.0,0.0,2.7727,2.8017,2.891,2.9441,2.9778,2.988,2.9566,2.9567,3.0076,3.0081,3.0276,3.0717,3.2283,3.3272,3.3562,3.4598,3.563,3.6582,3.6597,3.6597,3.6597,3.6775,3.5889,3.3934,3.2186,3.0357,2.8433,2.6384,2.6597,2.8453,2.971,3.164,3.3898,3.4774,3.5476,3.5888,3.4973,3.4906,3.5461,1.7927,0.0,0.0,0.0,1.5563,0.0,0.0,0.0,2.0542,0.0,2.2839,2.4323,2.4725,2.4563,2.4702,2.5442,2.4912,2.4357,2.3928,2.3769,0.0,0.0,2.3439,2.3993,2.3599,2.6012,2.681,0.0,0.0,0.0,0.0,0.0,0.0,0.0,2.8669,2.932,2.9973,3.2664,3.4127,3.4696,3.5018,3.5021,3.4773,3.4032,3.4807,3.6319,3.6537,3.6663,3.6768,3.7466,3.7695,3.7765,3.7795,3.7646,3.7476,3.752,3.8343,3.8863,3.7179,3.8624,3.992,3.6969,3.7326,3.7784,3.5418,3.6886,3.8448,3.7274,3.8001,3.8958,3.9346,3.7579,0.0,0.0,0.0,0.0,2.7386,2.7679,2.8367,2.891,2.9404,2.9806,3.0127,3.0111,2.9876,2.9407,2.9574,3.0138,3.1159,3.0799,3.1892,3.4724,3.391,3.4446,3.6582,3.6597,3.6597,3.6597,3.7129,3.6116,3.3746,3.2448,3.0535,2.8186,2.6451,2.7997,3.1761,3.1859,3.3417,3.5906,3.7576,3.7265,3.5915,3.5915,3.6875,3.8192,1.808,1.8089,1.8301,0.0,1.8256,1.855,0.0,0.0,0.0,0.0,2.4326,2.5712,2.6866,2.6311,2.611,2.6748,2.7373,0.0,0.0,0.0,0.0,3.2322,2.9563,2.8396,2.9275,2.8693,0.0,2.7344,0.0,0.0,2.8065,0.0,0.0,0.0,0.0,2.967,2.9973,3.2664,3.4465,3.5438,3.4747,3.4928,3.5453,3.3926,3.499,3.7164,3.6007,3.5908,3.6446,3.7264,3.788,3.8381,3.887,3.9343,3.9682,3.9713,4.0185,4.0624,4.0185,4.109,4.1744,4.006,3.9613,3.9225,3.7968,3.8703,3.9502,3.9012,4.0029,4.045,3.857,3.7524,3.598,0.0,0.0,0.0,2.7471,2.7306,2.7643,2.8584,2.8332,2.8496,2.9518,2.8877,2.8519,2.8787,2.8496,2.8393,2.8572,3.0609,3.1873,3.2169,3.4136,3.5622,3.6582,3.6597,3.6597,3.6597,3.6742,3.6672,3.6311,3.2864,3.1174,3.073,2.7224,2.7177,2.9729,3.1261,3.3195,3.5404,3.7408,3.7952,3.7576,3.7576,3.7856,3.8192,2.0878,0.0,0.0,2.2918,0.0,2.3533,2.3714,2.4206,0.0,2.5058,2.6231,0.0,2.7213,2.8097,2.876,2.8997,3.0246,0.0,3.1923,0.0,0.0,3.4035,3.2428,3.1761,3.2351,3.147,0.0,2.9952,0.0,0.0,2.8705,0.0,0.0,0.0,2.8886,2.9574,2.9984,3.3054,3.4859,3.564,3.4875,3.5098,0.0,3.4481,3.5664,3.787,3.6951,3.7106,3.7944,3.8712,3.9222,3.9641,4.0139,4.0538,4.0882,4.1031,4.1283,4.1534,4.1663,4.2084,4.2314,4.163,4.1198,4.0718,3.9863,4.0119,4.0493,4.0214,4.0615,4.0653,3.9535,3.8034,3.5828,3.2364,0.0,0.0,2.8013,2.7489,2.7483,2.8331,2.8057,2.8043,2.8644,2.8068,2.7723,2.7878,2.8152,2.8192,2.7867,2.9797,3.1006,3.1096,3.2644,3.4192,3.5698,3.5824,3.6165,3.6775,3.6887,3.6638,3.5981,3.2885,3.1061,3.0247,2.706,2.7389,3.0248,3.142,3.3674,3.6524,3.7744,3.8192,3.8192,3.8192,3.8192,3.8192,0.0,0.0,0.0,0.0,0.0,2.9475,2.808,2.7816,2.7657,2.7373,0.0,2.858,2.6927,2.9665,3.1513,3.1223,0.0,3.3918,3.2948,3.3344,3.3259,3.2421,3.3921,3.4577,3.4161,3.4058,3.3571,0.0,0.0,0.0,0.0,0.0,0.0,2.7764,2.862,2.938,3.0208,3.3459,3.5095,3.5482,3.5237,3.557,3.617,3.5547,3.6695,3.8627,3.8562,3.9092,3.9948,4.0594,4.0824,4.0908,4.1194,4.129,4.1374,4.1646,4.1753,4.1844,4.2122,4.2202,4.2202,4.2245,4.2213,4.1999,4.1294,4.1359,4.1481,4.1229,4.0771,4.0558,4.105,3.8475,3.5219,3.2041,3.048,2.9431,2.8808,2.8068,2.7759,2.8164,2.8124,0.0,2.7722,2.7641,2.7393,2.6935,2.8045,2.8548,2.8127,2.8791,2.9736,3.0925,3.0846,3.1987,3.4597,3.4989,3.5812,3.7049,3.7291,3.6492,3.4781,3.2769,3.0782,2.885,2.6927,2.8307,3.1907,3.2183,3.4632,3.8192,3.8192,3.8192,3.8192,3.8192,3.8192,3.8208,0.0,0.0,0.0,0.0,0.0,3.2954,3.4853,3.4156,3.2467,2.9865,3.0586,3.0513,2.8237,3.0312,3.1678,3.124,3.4911,0.0,0.0,0.0,0.0,3.7604,3.774,3.76,3.7083,3.5781,3.4504,0.0,0.0,0.0,0.0,0.0,2.7848,2.7523,2.8536,2.9766,3.1165,3.3051,3.4285,3.5064,3.5608,3.646,3.736,3.7089,3.8195,3.9825,3.936,3.9338,3.9593,4.0265,4.0498,4.0575,4.1124,4.129,4.1305,4.137,4.1588,4.1844,4.2122,4.2202,4.2282,4.2544,4.2405,4.2213,4.2357,4.2592,4.2779,4.271,4.2635,4.2084,4.0504,3.7408,3.4446,3.2459,3.1522,3.0632,2.9433,2.8958,2.8604,2.8227,2.7598,2.7215,2.7216,2.7724,2.7615,2.6499,2.7006,2.7421,2.7617,2.827,2.9287,3.0712,3.2026,3.333,3.4659,3.5981,3.6864,3.7331,3.7395,3.7311,3.7068,3.329,3.1463,3.1185,2.9139,2.9629,3.2041,3.3738,3.5938,3.8192,3.8192,3.8192,3.8192,3.8192,3.8192,3.8241,0.0,0.0,0.0,0.0,3.3403,3.575,3.7855,3.8425,3.7421,3.4158,3.4099,3.3551,3.148,3.386,3.5425,3.5065,3.8028,3.9639,3.8978,3.9667,4.0001,3.9736,3.9238,3.8836,3.8587,3.6904,3.5364,3.402,0.0,0.0,0.0,0.0,2.7655,2.7439,2.8093,2.9545,3.1594,3.2786,3.3806,3.4665,3.5772,3.7035,3.8247,3.8156,3.9421,4.12,4.0928,4.086,4.0871,4.1053,4.1125,4.1187,4.1628,4.1775,4.1775,4.1775,4.1882,4.2031,4.2175,4.2202,4.2229,4.2405,4.2309,4.2298,4.2624,4.2811,4.2929,4.3062,4.2849,4.1978,3.9718,3.7581,3.5738,3.4489,3.3414,3.2579,3.2047,3.1149,3.0326,2.9771,2.9332,2.8803,2.8101,2.8507,2.8123,2.6427,2.7113,2.7575,2.7461,2.793,2.8469,2.9068,3.0636,3.2092,3.3486,3.5252,3.6626,3.7612,3.7612,3.7187,3.6236,3.3133,3.1175,3.0248,2.922,2.9971,3.2151,3.5342,3.7263,3.8192,3.8192,3.8192,3.8192,3.8192,3.8289,3.8402,0.0,3.2139,0.0,3.4727,3.6288,3.7752,3.9237,4.1014,4.1058,3.7924,3.7318,3.647,3.4547,3.7162,3.8954,3.8666,4.0601,4.161,4.1014,4.0797,4.0628,4.0483,3.9832,3.9439,3.9398,3.7734,3.6053,0.0,0.0,3.0585,2.9124,0.0,2.7658,2.7505,2.7995,2.9305,3.1238,3.2494,3.3624,3.4744,3.628,3.7873,3.9335,3.9462,4.0632,4.2202,4.2202,4.2202,4.2175,4.1978,4.1897,4.1908,4.2122,4.2202,4.2202,4.2202,4.2202,4.2218,4.2298,4.2245,4.2213,4.2378,4.2336,4.2394,4.2635,4.2795,4.2865,4.2897,4.2501,4.1481,3.9371,3.837,3.7517,3.6446,3.5404,3.4662,3.45,3.3512,3.242,3.139,3.1275,3.064,2.9078,2.9099,2.847,2.6693,2.7434,2.7694,2.7114,2.7296,2.7409,2.7419,2.8725,3.034,3.2247,3.4265,3.6145,3.7886,3.7385,3.6374,3.4867,3.2333,3.0269,2.8774,2.9251,3.0903,3.3501,3.6829,3.8192,3.8192,3.8192,3.8192,3.8192,3.8192,3.8361,3.8571,3.2876,3.3381,3.4017,3.5163,3.6867,3.8534,3.9837,4.1399,4.1598,3.9134,3.9008,3.8192,3.5709,3.7806,3.9185,3.8737,4.0981,4.2086,4.1314,4.1241,4.1024,4.0531,4.0187,3.9914,3.968,3.837,3.6408,3.3796,3.2896,3.1038,2.8334,2.8679,2.8451,2.7816,2.8987,2.9475,2.9517,3.2026,3.4041,3.5738,3.7764,3.9544,4.1051,4.1653,4.2002,4.2202,4.2202,4.2202,4.2202,4.2175,4.2175,4.2175,4.2186,4.2202,4.2202,4.2202,4.2202,4.2282,4.2555,4.2432,4.232,4.2886,4.2822,4.2651,4.2704,4.3089,4.3201,4.2427,4.2047,4.1432,4.0104,3.9596,3.8825,3.7101,3.6966,3.6538,3.4994,3.5093,3.4467,3.211,3.1968,3.1311,2.9274,2.8777,2.8246,2.7449,2.7221,2.6819,2.6168,2.5922,2.6113,2.676,2.7742,2.9417,3.1831,3.4036,3.6146,3.8152,3.6064,3.4984,3.4671,3.0654,2.8702,2.8637,3.0708,3.3889,3.7655,3.8048,3.8192,3.8192,3.8192,3.8192,3.8192,3.8192,3.8361,3.8595,3.4276,3.4369,3.4905,3.66,3.7756,3.8816,3.9982,4.126,4.1569,4.0145,4.0864,4.1122,4.0082,4.0744,4.119,4.1015,4.1895,4.2237,4.1586,4.1956,4.1837,4.1024,4.0835,4.0496,3.9938,3.858,3.6909,3.4969,3.3426,3.1617,2.962,2.8865,2.8401,2.8216,2.9378,3.0466,3.1558,3.3455,3.5367,3.7298,3.8971,4.0372,4.1449,4.1553,4.1976,4.2501,4.2501,4.2378,4.2213,4.2432,4.2378,4.2202,4.2202,4.2202,4.2229,4.2432,4.2501,4.2555,4.2849,4.2833,4.2806,4.3036,4.302,4.2972,4.3143,4.334,4.3468,4.3314,4.2913,4.2287,4.1283,4.0401,3.9703,3.9371,3.8676,3.7985,3.746,3.7009,3.6018,3.4103,3.3174,3.216,3.0795,2.9745,2.9022,2.8668,2.7622,2.7014,2.7073,2.6299,2.6485,2.7913,2.906,3.0692,3.285,3.5268,3.706,3.8176,3.6294,3.4594,3.2965,3.0303,2.963,3.0669,3.2807,3.5461,3.8192,3.8192,3.8192,3.8192,3.8192,3.8192,3.8225,3.8377,3.8595,3.8934,3.5468,3.5541,3.6114,3.7941,3.8711,3.9436,4.0513,4.1112,4.1336,4.101,4.1698,4.2311,4.2564,4.2612,4.2623,4.2623,4.2747,4.2445,4.1552,4.2291,4.2249,4.1036,4.1069,4.0832,4.0228,3.8863,3.7542,3.6298,3.4563,3.2982,3.1552,3.0376,2.9956,3.0253,3.1166,3.2385,3.3868,3.5301,3.694,3.8708,3.9971,4.1016,4.1763,4.1673,4.2034,4.2571,4.2742,4.2608,4.2405,4.2715,4.2646,4.2432,4.2245,4.2282,4.2389,4.264,4.2758,4.2849,4.3052,4.31,4.311,4.3207,4.3217,4.325,4.3377,4.3431,4.3511,4.3607,4.3287,4.2752,4.2047,4.1176,4.06,4.0867,4.0027,3.9264,3.9009,3.8288,3.7209,3.5658,3.4335,3.3158,3.2181,3.075,2.9908,2.9989,2.848,2.7604,2.7709,2.6806,2.7009,2.8577,2.9737,3.1384,3.3619,3.57,3.7234,3.8176,3.6358,3.4523,3.268,3.0919,3.1092,3.2901,3.4456,3.6326,3.8337,3.8337,3.8337,3.8305,3.8241,3.8192,3.8241,3.8482,3.887,3.9406,3.6234,3.6971,3.7799,3.8906,3.9676,4.0544,4.1615,4.1119,4.0897,4.1679,4.1101,4.0938,4.1734,4.248,4.2906,4.2906,4.3321,4.2844,4.1119,4.2132,4.2015,4.0295,4.0669,4.0766,4.0483,3.9314,3.8279,3.748,3.6542,3.5338,3.395,3.3747,3.3949,3.4552,3.5006,3.5364,3.5689,3.7356,3.8723,3.9859,4.0799,4.1601,4.2213,4.2555,4.2485,4.2282,4.2886,4.2913,4.2747,4.3009,4.31,4.2993,4.2389,4.2437,4.2704,4.2704,4.2902,4.31,4.31,4.31,4.3153,4.3415,4.3495,4.3415,4.3153,4.3314,4.3361,4.2822,4.272,4.2608,4.2245,4.1978,4.1592,4.1,4.0893,4.0374,3.8902,3.8689,3.8023,3.6313,3.5297,3.4321,3.3104,3.1461,3.0744,3.133,2.9824,2.847,2.7558,2.7171,2.735,2.8176,2.8984,3.0798,3.3678,3.4645,3.617,3.816,3.5911,3.4786,3.4691,3.2547,3.2817,3.4977,3.5264,3.6611,3.8595,3.8595,3.8595,3.8571,3.8289,3.8192,3.8241,3.8482,3.9195,4.0026,3.8416,3.8862,3.9291,3.977,4.0044,4.0364,4.0892,4.0757,4.0685,4.0956,4.1222,4.1465,4.1535,4.191,4.2096,4.1906,4.2473,4.231,4.1083,4.2132,4.234,4.1282,4.149,4.1296,4.0524,3.8997,3.7992,3.7495,3.6413,3.5586,3.4966,3.5637,3.5711,3.5352,3.6586,3.7558,3.8298,3.9153,4.0261,4.1464,4.1754,4.2161,4.2528,4.2405,4.2432,4.2592,4.2956,4.2929,4.2758,4.3217,4.3244,4.3062,4.2886,4.2902,4.3009,4.319,4.3314,4.342,4.3651,4.3714,4.3725,4.3821,4.3832,4.3821,4.3725,4.3607,4.3404,4.3052,4.2822,4.2608,4.2245,4.1993,4.1742,4.1539,4.1,4.0226,3.9143,3.8101,3.6886,3.5324,3.4054,3.3063,3.2451,3.116,3.0474,3.0761,2.9566,2.8922,2.9127,2.9172,2.9552,3.0361,3.1879,3.3547,3.5378,3.6433,3.7345,3.8176,3.6342,3.4729,3.338,3.376,3.4303,3.5084,3.6642,3.771,3.8337,3.8337,3.8337,3.8337,3.8241,3.8192,3.8241,3.8482,3.9355,4.0539,3.9549,4.0102,4.0439,4.0374,4.06,4.0862,4.1042,4.0793,4.0721,4.101,4.1222,4.1416,4.154,4.16,4.1655,4.1663,4.2333,4.2219,4.093,4.198,4.2207,4.1171,4.1259,4.1099,4.0652,3.9265,3.8736,3.9128,3.8279,3.7787,3.7635,3.8087,3.821,3.8113,3.9023,3.996,4.0869,4.092,4.151,4.2394,4.2245,4.2325,4.2512,4.2523,4.2608,4.2758,4.325,4.325,4.31,4.3645,4.3671,4.349,4.3704,4.3704,4.3607,4.3688,4.3698,4.3795,4.4222,4.4249,4.4195,4.4319,4.4232,4.4099,4.3868,4.3645,4.3404,4.302,4.2902,4.2715,4.2282,4.2069,4.1935,4.1935,4.1218,4.0294,3.9247,3.766,3.6139,3.4884,3.3653,3.2864,3.2786,3.2083,3.1673,3.1782,3.0999,3.0612,3.0764,3.0408,3.0744,3.1953,3.3634,3.5141,3.6485,3.7379,3.7926,3.8192,3.7193,3.6014,3.4814,3.5757,3.6202,3.6283,3.7711,3.8345,3.8345,3.8345,3.8345,3.8353,3.8241,3.8192,3.8289,3.8902,3.9835,4.0962,3.9957,4.0873,4.1416,4.0856,4.1336,4.1806,4.1884,4.1186,4.0974,4.177,4.1204,4.1047,4.1764,4.1643,4.1669,4.2087,4.2704,4.2388,4.0707,4.173,4.1792,4.0434,4.0393,4.0622,4.1031,4.0057,4.0254,4.1774,4.1457,4.1346,4.1397,4.0909,4.1229,4.2213,4.1978,4.2314,4.3036,4.2485,4.2437,4.2704,4.2389,4.2266,4.2309,4.2902,4.2945,4.2838,4.3704,4.3805,4.3618,4.4216,4.4286,4.4158,4.472,4.4703,4.4392,4.4125,4.4045,4.4195,4.4746,4.4686,4.4509,4.4827,4.4666,4.4279,4.3698,4.3538,4.3394,4.2838,4.2918,4.2902,4.2309,4.2202,4.2186,4.2191,4.1401,4.0386,3.9181,3.7301,3.5752,3.4882,3.4015,3.3614,3.3921,3.3924,3.3882,3.3837,3.3503,3.2984,3.2269,3.1112,3.1288,3.3016,3.4392,3.5736,3.7041,3.7572,3.7959,3.8192,3.8192,3.8192,3.8192,3.8192,3.8192,3.8208,3.8458,3.8571,3.8571,3.8571,3.8571,3.8571,3.8289,3.8296,3.8522,3.9584,4.0546,4.1426,4.2085,4.2742,4.3223,4.2468,4.2041,4.1987,4.2564,4.2005,4.1788,4.2546,4.2468,4.2342,4.2336,4.2462,4.242,4.214,4.2075,4.1632,4.0671,4.173,4.2348,4.2197,4.233,4.2462,4.2583,4.1395,4.101,4.1477,4.1412,4.1824,4.2683,4.2539,4.2512,4.2571,4.2517,4.2613,4.2795,4.2635,4.2742,4.3009,4.2913,4.2902,4.2897,4.3046,4.3046,4.31,4.3757,4.3938,4.3955,4.4596,4.473,4.472,4.4837,4.4837,4.4756,4.472,4.4683,4.472,4.4853,4.4837,4.481,4.489,4.4837,4.4686,4.4286,4.4018,4.3714,4.3127,4.2902,4.2662,4.2282,4.2202,4.2122,4.1924,4.079,3.9493,3.8276,3.674,3.5391,3.451,3.4455,3.4495,3.4575,3.4124,3.3694,3.3327,3.2746,3.2435,3.2508,3.297,3.3465,3.3909,3.5422,3.6669,3.7596,3.795,3.8144,3.8192,3.8192,3.8192,3.8192,3.8192,3.8192,3.8192,3.8265,3.8289,3.8289,3.8289,3.8402,3.8571,3.8289,3.911,4.037,3.9874,4.114,4.3041,4.2592,4.3358,4.3961,4.3518,4.3386,4.35,4.3896,4.332,4.2996,4.3386,4.314,4.2834,4.2713,4.2713,4.2551,4.214,4.2421,4.2335,4.1654,4.2555,4.3116,4.3107,4.2917,4.2955,4.3281,4.2484,4.2164,4.2368,4.2254,4.234,4.2699,4.2849,4.2902,4.2865,4.2865,4.3036,4.3266,4.3009,4.3036,4.3287,4.3143,4.318,4.3297,4.3447,4.3591,4.3778,4.4239,4.4409,4.4489,4.4934,4.5067,4.5104,4.522,4.5361,4.5485,4.5485,4.5308,4.5121,4.522,4.5264,4.5237,4.5121,4.5174,4.5114,4.4519,4.4296,4.4002,4.3404,4.3062,4.2795,4.2485,4.2298,4.1989,4.131,4.0294,3.9077,3.7594,3.6232,3.5284,3.4924,3.5044,3.5444,3.6113,3.5832,3.5191,3.4152,3.4058,3.3735,3.297,3.4305,3.5059,3.4948,3.6379,3.7346,3.7805,3.8071,3.8321,3.8522,3.8305,3.8265,3.8377,3.8265,3.8192,3.8192,3.8192,3.8265,3.8361,3.8249,3.8418,3.8781,3.9167,4.004,4.114,4.1349,4.2368,4.3611,4.2764,4.3716,4.4417,4.4284,4.4775,4.5144,4.5044,4.4589,4.4183,4.3943,4.3422,4.3014,4.2906,4.2803,4.265,4.2439,4.3455,4.3721,4.2819,4.3562,4.3913,4.3623,4.3023,4.3048,4.3778,4.3513,4.3435,4.3591,4.3297,4.2913,4.248,4.2715,4.2945,4.3153,4.3153,4.3431,4.3901,4.342,4.3377,4.3554,4.3377,4.3415,4.3682,4.3938,4.4216,4.4509,4.4837,4.496,4.5014,4.5264,4.5354,4.5407,4.5631,4.5898,4.6136,4.6199,4.5869,4.5541,4.5774,4.58,4.5711,4.5505,4.5577,4.5497,4.4706,4.4536,4.4359,4.3708,4.3388,4.3127,4.2758,4.2437,4.1833,4.0699,3.9882,3.8798,3.7073,3.5979,3.5458,3.5752,3.5912,3.6566,3.7982,3.8062,3.7393,3.5958,3.6297,3.5855,3.4199,3.5595,3.6386,3.6274,3.7296,3.7878,3.791,3.816,3.845,3.886,3.8498,3.8434,3.8635,3.8418,3.8289,3.8265,3.8289,3.8531,3.8886,3.8707,3.9024,3.97,4.0701,4.1408,4.201,4.3154,4.3739,4.3923,4.4685,4.5313,4.5832,4.5144,4.5108,4.499,4.4381,4.4704,4.4553,4.3266,4.3572,4.3638,4.296,4.3451,4.3833,4.379,4.5129,4.4972,4.2615,4.3529,4.4129,4.4094,4.4091,4.4392,4.5014,4.4756,4.4396,4.3912,4.3607,4.3521,4.3714,4.3484,4.3404,4.3431,4.3431,4.3495,4.3591,4.3795,4.3885,4.3928,4.4109,4.4216,4.4286,4.4306,4.4526,4.4853,4.5131,4.5237,4.5291,4.5541,4.5631,4.5648,4.5694,4.5738,4.5818,4.6119,4.6306,4.6405,4.6449,4.6306,4.6119,4.6066,4.5888,4.5604,4.523,4.5157,4.491,4.4099,4.3901,4.3624,4.2838,4.2437,4.1833,4.0699,3.9388,3.8064,3.6753,3.6206,3.6126,3.6646,3.7396,3.8331,3.9558,3.9196,3.8869,3.8844,3.7944,3.751,3.7754,3.7624,3.7791,3.8314,3.8204,3.8257,3.8474,3.8531,3.8571,3.8651,3.8756,3.8795,3.886,3.8795,3.8699,3.8555,3.8707,3.9381,4.0404,4.0555,4.1542,4.2861,4.2836,4.3843,4.5186,4.4043,4.4325,4.5205,4.5137,4.5764,4.627,4.5903,4.6171,4.6306,4.5985,4.5885,4.5599,4.4876,4.474,4.4553,4.4183,4.447,4.4628,4.4503,4.5493,4.5538,4.4167,4.4942,4.5283,4.4808,4.499,4.5177,4.5301,4.4847,4.4419,4.4008,4.3671,4.3511,4.3511,4.3495,4.3495,4.3511,4.3698,4.3778,4.3795,4.3928,4.4082,4.4205,4.4189,4.4489,4.4863,4.4713,4.4927,4.5381,4.5692,4.5799,4.5825,4.6102,4.6298,4.6422,4.6235,4.6405,4.669,4.6671,4.6644,4.6636,4.6831,4.676,4.6644,4.6449,4.6422,4.6306,4.5648,4.5648,4.5531,4.465,4.4329,4.4045,4.3501,4.2902,4.2084,4.0909,3.9495,3.8171,3.7114,3.6714,3.6793,3.7569,3.8584,3.9614,4.0596,3.9985,3.9305,3.8789,3.8509,3.8041,3.7299,3.8067,3.8639,3.8852,3.8676,3.8788,3.9182,3.8909,3.8909,3.9182,3.8981,3.8981,3.9142,3.9798,4.0016,3.999,4.0837,4.1621,4.2253,4.2243,4.2619,4.3276,4.3746,4.4374,4.4925,4.4521,4.475,4.5165,4.5683,4.6235,4.6671,4.6671,4.7108,4.7429,4.7277,4.6894,4.6528,4.6171,4.5734,4.5413,4.5223,4.5377,4.5415,4.5177,4.5843,4.6163,4.5892,4.6321,4.6235,4.5417,4.5488,4.539,4.5097,4.4633,4.4286,4.4008,4.3671,4.3415,4.3314,4.3431,4.3538,4.3618,4.3901,4.4008,4.4008,4.4088,4.4195,4.4296,4.4136,4.4526,4.5194,4.4977,4.522,4.572,4.5995,4.6136,4.6226,4.644,4.6716,4.6938,4.669,4.6921,4.7268,4.7143,4.6948,4.6867,4.7125,4.7161,4.7045,4.676,4.6841,4.6795,4.6085,4.6119,4.6056,4.5237,4.4883,4.4579,4.4099,4.333,4.2394,4.1107,3.9786,3.8623,3.7809,3.7541,3.7781,3.88,3.9718,4.0676,4.161,4.1019,4.0188,3.9327,3.9482,3.8905,3.7317,3.8748,3.9678,3.9831,3.9299,3.9205,3.9608,3.9205,3.9205,3.9608,3.9237,3.9205,3.944,4.0701,4.1244,4.1275,4.2757,4.3654,4.4081,4.3924,4.3924,4.4078,4.488,4.5049,4.4859,4.4974,4.5199,4.5357,4.7224,4.7375,4.7411,4.7411,4.7446,4.7277,4.6591,4.701,4.6894,4.5466,4.5885,4.602,4.5277,4.5868,4.6288,4.628,4.6939,4.7277,4.7001,4.6725,4.6308,4.5694,4.5211,4.481,4.4483,4.4413,4.4286,4.4008,4.3671,4.3645,4.3928,4.3628,4.3688,4.3955,4.3992,4.4008,4.4025,4.4286,4.4232,4.4051,4.4286,4.4606,4.4934,4.4924,4.522,4.5694,4.572,4.5924,4.6217,4.6226,4.6413,4.6619,4.6609,4.6619,4.6716,4.7019,4.7259,4.7446,4.7455,4.7286,4.7072,4.7063,4.6841,4.6627,4.6539,4.6539,4.6396,4.5774,4.5614,4.5284,4.4205,4.3501,4.2592,4.1138,4.0119,3.932,3.8689,3.8795,3.9383,4.0573,4.1,4.1679,4.2849,4.2683,4.2566,4.2704,4.1914,4.1172,4.0671,4.0779,4.1393,4.2567,4.0432,3.9302,3.9326,3.9302,3.9302,3.9326,3.9535,3.9639,3.973,4.1177,4.1703,4.1556,4.3236,4.4543,4.5571,4.579,4.6474,4.7311,4.7023,4.7128,4.7243,4.5591,4.5827,4.6701,4.7437,4.7509,4.7509,4.7509,4.7509,4.7411,4.7108,4.7313,4.7295,4.6707,4.6877,4.6974,4.6671,4.6894,4.7081,4.7081,4.7331,4.7455,4.7348,4.7054,4.6467,4.5497,4.49,4.4526,4.4403,4.4403,4.4286,4.4008,4.4249,4.4329,4.4249,4.4109,4.4125,4.4232,4.4088,4.4008,4.4008,4.4115,4.4189,4.4269,4.4376,4.4696,4.5147,4.5147,4.5398,4.5738,4.6111,4.6218,4.6253,4.6627,4.6831,4.6929,4.6929,4.7028,4.7161,4.7322,4.7428,4.7509,4.7509,4.7428,4.7357,4.7357,4.7241,4.7117,4.6948,4.7045,4.7001,4.6396,4.6245,4.6005,4.5204,4.4419,4.3601,4.2667,4.1481,4.0569,4.034,4.0397,4.0703,4.139,4.2031,4.2603,4.3046,4.2649,4.2354,4.2459,4.2279,4.1851,4.1108,4.1612,4.182,4.1601,4.1152,4.0928,4.0928,4.0008,3.9552,3.9552,3.9639,3.9801,4.0029,4.2387,4.3407,4.3434,4.5863,4.6786,4.6572,4.6669,4.6441,4.6046,4.6355,4.6289,4.5997,4.5761,4.6018,4.6313,4.7491,4.7509,4.7509,4.7509,4.7509,4.7509,4.7509,4.7509,4.7509,4.7509,4.7509,4.7509,4.7509,4.7509,4.7509,4.7509,4.7509,4.7509,4.7509,4.725,4.6644,4.5621,4.491,4.4606,4.4686,4.4606,4.4489,4.4286,4.4703,4.4773,4.4579,4.4579,4.4579,4.4536,4.4356,4.4286,4.4286,4.4286,4.4392,4.4579,4.4579,4.4847,4.5301,4.5301,4.5488,4.5774,4.6306,4.6413,4.6413,4.6929,4.7152,4.7232,4.7232,4.7348,4.7509,4.7509,4.7509,4.7509,4.7509,4.7509,4.7509,4.7509,4.7509,4.7437,4.7259,4.7366,4.7348,4.685,4.6743,4.6556,4.5978,4.5204,4.4446,4.3778,4.2704,4.1973,4.1882,4.1882,4.2015,4.2432,4.2929,4.3287,4.3377,4.2954,4.2694,4.2694,4.2773,4.2534,4.1886,4.2514,4.2703,4.2301,4.2774,4.2814,4.2392,4.0595,3.9728,3.9825,3.9825,3.9921,4.0174,4.2952,4.4166,4.4193,4.6862,4.7547,4.6787,4.6787,4.6289,4.5547,4.5941,4.5848,4.5531,4.5696,4.5899,4.5948,4.7446,4.7509,4.7509,4.7509,4.7509,4.7509,4.7509,4.7509,4.7509,4.7509,4.7509,4.7509,4.7509,4.7509,4.7509,4.7509,4.7509,4.7509,4.7509,4.725,4.6831,4.6226,4.5361,4.5024,4.5301,4.5041,4.4907,4.4907,4.4907,4.4924,4.4907,4.4907,4.4907,4.4907,4.4907,4.4907,4.4907,4.4907,4.4907,4.4907,4.4907,4.5067,4.5301,4.5318,4.5488,4.5738,4.611,4.6377,4.6636,4.6983,4.7277,4.7509,4.7509,4.7509,4.7509,4.7509,4.7509,4.7509,4.7509,4.7509,4.7509,4.7509,4.7509,4.7509,4.7509,4.7509,4.7428,4.7152,4.709,4.6929,4.6324,4.5718,4.5024,4.4142,4.3725,4.342,4.3143,4.3116,4.334,4.3928,4.3714,4.3628,4.3955,4.4008,4.4008,4.4008,4.3698,4.3511,4.3511,4.3707,4.4344,4.5444,4.5489,4.4808,4.3409,4.0961,3.9842,4.0107,4.0107,4.0107,4.0191,4.2679,4.363,4.3426,4.5572,4.6347,4.6095,4.6095,4.6274,4.6555,4.62,4.6274,4.647,4.54,4.5461,4.5899,4.7491,4.7509,4.7509,4.7509,4.7651,4.7713,4.7535,4.7651,4.7722,4.7518,4.7509,4.7509,4.7509,4.7509,4.7509,4.7509,4.7509,4.7509,4.7509,4.7028,4.676,4.6831,4.5942,4.531,4.5024,4.5131,4.5104,4.4907,4.5291,4.5381,4.5174,4.5174,4.5174,4.5174,4.5174,4.5067,4.4924,4.5104,4.5067,4.4934,4.5318,4.5514,4.5631,4.6048,4.6245,4.6396,4.6725,4.6734,4.6636,4.6983,4.7152,4.7241,4.7446,4.7509,4.7509,4.7509,4.7509,4.7509,4.7509,4.7509,4.7509,4.7509,4.7509,4.7509,4.7509,4.7509,4.7473,4.7419,4.7366,4.7259,4.6912,4.6333,4.5718,4.5024,4.4666,4.4356,4.4045,4.4205,4.4329,4.4302,4.4189,4.4099,4.4008,4.4179,4.4286,4.4286,4.4409,4.4489,4.4489,4.4998,4.4988,4.4344,4.4803,4.4484,4.3206,4.1887,4.0753,3.9825,4.0343,4.079,4.1227,4.3324,4.4322,4.4452,4.592,4.61,4.5341,4.5341,4.5122,4.481,4.5188,4.5401,4.5514,4.5712,4.5915,4.5969,4.7509,4.7509,4.7509,4.7509,4.7624,4.7705,4.7518,4.7642,4.7687,4.7518,4.7509,4.7509,4.7509,4.7509,4.7509,4.7509,4.7509,4.7509,4.7509,4.7144,4.7019,4.709,4.6547,4.5995,4.5424,4.5558,4.5575,4.5415,4.5728,4.5888,4.5808,4.5808,4.5808,4.5808,4.5808,4.5711,4.5575,4.5745,4.5718,4.5611,4.5924,4.6048,4.6094,4.6449,4.6609,4.6636,4.6965,4.6965,4.6841,4.7152,4.7259,4.7286,4.7446,4.7562,4.7651,4.7651,4.7749,4.7865,4.7865,4.7749,4.7651,4.7651,4.7562,4.7509,4.7509,4.7509,4.7509,4.7509,4.7509,4.7437,4.7286,4.6858,4.635,4.5745,4.5522,4.5254,4.482,4.4927,4.4997,4.4793,4.4536,4.4339,4.4179,4.4296,4.4446,4.4589,4.489,4.5014,4.4924,4.5482,4.5377,4.4425,4.5108,4.4867,4.3547,4.3112,4.2236,4.0891,4.1486,4.1812,4.1937,4.3518,4.4212,4.4265,4.5305,4.5291,4.4601,4.4601,4.4535,4.4426,4.4848,4.5067,4.5231,4.5566,4.556,4.5358,4.7509,4.7509,4.7509,4.7509,4.7518,4.7535,4.7509,4.7518,4.7535,4.7509,4.7509,4.7509,4.7509,4.7509,4.7509,4.7509,4.7509,4.7509,4.7509,4.7509,4.7402,4.7161,4.7143,4.6858,4.627,4.6243,4.6243,4.6243,4.6243,4.636,4.6609,4.6609,4.6609,4.6609,4.6619,4.6619,4.6609,4.6619,4.6619,4.6609,4.6619,4.6636,4.6636,4.669,4.669,4.6716,4.7036,4.7143,4.717,4.7428,4.7509,4.7509,4.7535,4.7669,4.7802,4.7909,4.8114,4.8309,4.8337,4.8132,4.79,4.7865,4.7669,4.7509,4.7509,4.7509,4.7509,4.7509,4.7509,4.7509,4.7509,4.7277,4.6929,4.6333,4.6234,4.6012,4.5424,4.5327,4.5327,4.5301,4.4803,4.4483,4.4446,4.4483,4.4623,4.4943,4.5211,4.522,4.4997,4.5417,4.5587,4.5327,4.5999,4.5674,4.4305,4.4462,4.3901,4.2654,4.3079,4.2975,4.2432,4.3385,4.3671,4.3426,4.4093,4.4216,4.4008,4.4008,4.4354,4.4903,4.4903,4.511,4.5335,4.5012,4.4665,4.4322,4.7509,4.7509,4.7509,4.7509,4.7669,4.7731,4.7535,4.7669,4.7731,4.7535,4.7509,4.7509,4.7509,4.7509,4.7509,4.7509,4.7509,4.7509,4.7509,4.7509,4.7455,4.7437,4.7419,4.7241,4.6929,4.6636,4.652,4.652,4.652,4.6529,4.6609,4.6609,4.6609,4.6609,4.6867,4.6841,4.6627,4.6867,4.6841,4.6619,4.6885,4.6983,4.7019,4.7232,4.7304,4.7322,4.7402,4.7419,4.7428,4.7473,4.7509,4.7535,4.7749,4.747,4.7216,4.8041,4.7894,4.7549,4.7916,4.7945,4.7838,4.7642,4.7535,4.7509,4.7509,4.7509,4.7509,4.7509,4.7509,4.7509,4.7509,4.7277,4.6965,4.66,4.6333,4.6048,4.5684,4.5604,4.5524,4.531,4.5194,4.5024,4.481,4.4997,4.522,4.5514,4.5594,4.5587,4.5524,4.5631,4.5684,4.5621,4.5785,4.5582,4.5063,4.5398,4.4509,4.2383,4.2794,4.3068,4.3185,4.3701,4.4043,4.4159,4.4123,4.4045,4.4008,4.4008,4.4091,4.4239,4.4239,4.4266,4.433,4.4249,4.4161,4.4088,4.7509,4.7509,4.7509,4.7509,4.7633,4.7722,4.7705,4.7705,4.7705,4.7705,4.7562,4.7509,4.7509,4.7509,4.7509,4.7509,4.7509,4.7509,4.7509,4.7509,4.7509,4.7509,4.7509,4.7428,4.7286,4.7117,4.6957,4.6841,4.6841,4.6903,4.7028,4.7028,4.7028,4.7037,4.7215,4.7179,4.7037,4.7232,4.7179,4.7037,4.7232,4.7286,4.733,4.7446,4.7509,4.7509,4.7509,4.7509,4.7518,4.7642,4.7705,4.7722,4.7847,4.7835,4.7783,4.7968,4.7826,4.7593,4.7463,4.7239,4.7086,4.7297,4.7168,4.7063,4.7411,4.7509,4.7509,4.7509,4.7509,4.7509,4.7509,4.7402,4.7179,4.6885,4.6725,4.6457,4.6012,4.5924,4.5818,4.5524,4.5398,4.5237,4.5104,4.522,4.5407,4.5684,4.5694,4.5694,4.5694,4.5694,4.5694,4.5694,4.5694,4.5577,4.5301,4.5378,4.4713,4.3302,4.3728,4.3841,4.3691,4.3913,4.4088,4.4205,4.4045,4.3912,4.3778,4.3928,4.3912,4.3795,4.3928,4.4088,4.4195,4.4051,4.4008,4.4008,4.7509,4.7509,4.7509,4.7509,4.7509,4.7562,4.7811,4.7642,4.7562,4.7811,4.7642,4.7509,4.7509,4.7509,4.7509,4.7509,4.7509,4.7509,4.7509,4.7509,4.7509,4.7509,4.7509,4.7509,4.7509,4.7509,4.7402,4.717,4.717,4.7277,4.7509,4.7509,4.7509,4.7509,4.7509,4.7509,4.7509,4.7509,4.7509,4.7509,4.7509,4.7509,4.7509,4.7509,4.7509,4.7509,4.7509,4.7535,4.7616,4.7909,4.7998,4.7998,4.8034,4.829,4.8515,4.8028,4.7888,4.7774,4.7178,4.6591,4.6238,4.6787,4.6561,4.6342,4.6974,4.7224,4.7313,4.7313,4.7313,4.7313,4.7313,4.7411,4.7402,4.7063,4.7019,4.6795,4.6217,4.6119,4.6012,4.572,4.5497,4.5381,4.5381,4.5381,4.5471,4.5684,4.5694,4.5694,4.5694,4.5694,4.5694,4.5694,4.5694,4.5541,4.522,4.5014,4.472,4.4339,4.4677,4.4552,4.4008,4.4008,4.4008,4.4008,4.4008,4.3832,4.3601,4.3901,4.3832,4.3601,4.3901,4.4125,4.4296,4.4088,4.4008,4.4008,4.7509,4.7509,4.7509,4.7509,4.7509,4.7526,4.7553,4.7518,4.7526,4.7553,4.7518,4.7509,4.7509,4.7509,4.7509,4.7509,4.7509,4.7509,4.7509,4.7509,4.7509,4.7509,4.7509,4.7509,4.7509,4.7509,4.7473,4.7446,4.7446,4.7455,4.7509,4.7509,4.7509,4.7509,4.7509,4.7509,4.7509,4.7509,4.7509,4.7509,4.7509,4.7509,4.7509,4.7509,4.7509,4.7509,4.7509,4.7642,4.79,4.823,4.8346,4.8364,4.8613,4.8244,4.7936,4.8825,4.8118,4.7129,4.7434,4.683,4.6059,4.5859,4.5589,4.5395,4.5484,4.6038,4.6556,4.6556,4.6556,4.6556,4.6556,4.7063,4.7322,4.6743,4.669,4.6449,4.5844,4.5774,4.5738,4.5711,4.5684,4.5648,4.5648,4.5648,4.5667,4.5694,4.5694,4.5694,4.5694,4.5694,4.5694,4.5694,4.5694,4.5471,4.496,4.4917,4.463,4.4045,4.4107,4.4091,4.4008,4.4008,4.4008,4.4008,4.4008,4.3955,4.3928,4.3992,4.3955,4.3928,4.3992,4.4018,4.4051,4.4008,4.4008,4.4008,4.7509,4.7509,4.7553,4.7705,4.7616,4.7651,4.815,4.7811,4.7633,4.7954,4.7722,4.7509,4.7509,4.7509,4.7509,4.7509,4.7642,4.7651,4.7526,4.7642,4.7651,4.7526,4.7509,4.7509,4.7509,4.7509,4.7509,4.7509,4.7509,4.7509,4.7509,4.7509,4.7509,4.7509,4.7509,4.7509,4.7509,4.7509,4.7509,4.7509,4.7509,4.7509,4.7509,4.7509,4.7598,4.7758,4.8123,4.8212,4.823,4.8524,4.8631,4.8649,4.8746,4.8686,4.8507,4.8396,4.7663,4.6807,4.6424,4.5658,4.5055,4.5346,4.5557,4.5826,4.6205,4.6473,4.656,4.643,4.6725,4.701,4.701,4.7277,4.7411,4.7144,4.7108,4.6903,4.6298,4.6209,4.6085,4.5738,4.5694,4.5694,4.5694,4.5694,4.5694,4.5694,4.5694,4.5694,4.5694,4.5694,4.5694,4.5694,4.5694,4.5434,4.4924,4.4907,4.4613,4.4008,4.4008,4.4008,4.4008,4.4008,4.4008,4.4008,4.4008,4.3901,4.3741,4.3912,4.3901,4.3741,4.3928,4.4008,4.4008,4.4008,4.4008,4.4008]}]]